<?xml version="1.0" encoding="UTF-8" standalone="no" ?>
<gpx xmlns="http://www.topografix.com/GPX/1/1" xmlns:xsi="http://www.w3.org/2001/XMLSchema-instance" xsi:schemaLocation="http://www.topografix.com/GPX/1/1 http://www.topografix.com/GPX/1/1/gpx.xsd" version="1.1" creator="VisuGPX - https://www.visugpx.com">
  <metadata>
    <name>ST CROIX DU MONTS 2  25 MAI 19</name>
  </metadata>
  <trk>
    <name><![CDATA[ST CROIX DU MONTS 2  25 MAI 19]]></name>
    <trkseg>
      <trkpt lat="44.5937" lon="-0.28262">
        <ele>85.21</ele>
        <time>2019-05-25T07:00:29Z</time>
      </trkpt>
      <trkpt lat="44.5937" lon="-0.28262">
        <ele>85.21</ele>
        <time>2019-05-25T07:00:30Z</time>
      </trkpt>
      <trkpt lat="44.59368" lon="-0.28262">
        <ele>85.21</ele>
        <time>2019-05-25T07:00:59Z</time>
      </trkpt>
      <trkpt lat="44.59368" lon="-0.2826">
        <ele>84.73</ele>
        <time>2019-05-25T07:01:27Z</time>
      </trkpt>
      <trkpt lat="44.59369" lon="-0.28262">
        <ele>84.73</ele>
        <time>2019-05-25T07:01:41Z</time>
      </trkpt>
      <trkpt lat="44.59369" lon="-0.28272">
        <ele>84.73</ele>
        <time>2019-05-25T07:01:49Z</time>
      </trkpt>
      <trkpt lat="44.59365" lon="-0.28286">
        <ele>84.25</ele>
        <time>2019-05-25T07:02:00Z</time>
      </trkpt>
      <trkpt lat="44.59361" lon="-0.28291">
        <ele>84.25</ele>
        <time>2019-05-25T07:02:05Z</time>
      </trkpt>
      <trkpt lat="44.59361" lon="-0.28298">
        <ele>84.25</ele>
        <time>2019-05-25T07:02:10Z</time>
      </trkpt>
      <trkpt lat="44.59362" lon="-0.28311">
        <ele>82.81</ele>
        <time>2019-05-25T07:02:19Z</time>
      </trkpt>
      <trkpt lat="44.59363" lon="-0.28318">
        <ele>82.81</ele>
        <time>2019-05-25T07:02:23Z</time>
      </trkpt>
      <trkpt lat="44.59364" lon="-0.28325">
        <ele>82.33</ele>
        <time>2019-05-25T07:02:27Z</time>
      </trkpt>
      <trkpt lat="44.59357" lon="-0.28336">
        <ele>82.81</ele>
        <time>2019-05-25T07:02:42Z</time>
      </trkpt>
      <trkpt lat="44.59355" lon="-0.28334">
        <ele>80.89</ele>
        <time>2019-05-25T07:02:45Z</time>
      </trkpt>
      <trkpt lat="44.59353" lon="-0.28331">
        <ele>79.93</ele>
        <time>2019-05-25T07:02:48Z</time>
      </trkpt>
      <trkpt lat="44.59347" lon="-0.28322">
        <ele>79.45</ele>
        <time>2019-05-25T07:02:55Z</time>
      </trkpt>
      <trkpt lat="44.59345" lon="-0.28319">
        <ele>79.45</ele>
        <time>2019-05-25T07:02:58Z</time>
      </trkpt>
      <trkpt lat="44.59341" lon="-0.28311">
        <ele>79.45</ele>
        <time>2019-05-25T07:03:04Z</time>
      </trkpt>
      <trkpt lat="44.59333" lon="-0.28311">
        <ele>77.52</ele>
        <time>2019-05-25T07:03:18Z</time>
      </trkpt>
      <trkpt lat="44.59335" lon="-0.28321">
        <ele>73.68</ele>
        <time>2019-05-25T07:03:29Z</time>
      </trkpt>
      <trkpt lat="44.59336" lon="-0.28321">
        <ele>73.68</ele>
        <time>2019-05-25T07:03:30Z</time>
      </trkpt>
      <trkpt lat="44.59337" lon="-0.28322">
        <ele>74.16</ele>
        <time>2019-05-25T07:03:31Z</time>
      </trkpt>
      <trkpt lat="44.5935" lon="-0.28335">
        <ele>74.16</ele>
        <time>2019-05-25T07:03:45Z</time>
      </trkpt>
      <trkpt lat="44.59349" lon="-0.28332">
        <ele>73.68</ele>
        <time>2019-05-25T07:03:58Z</time>
      </trkpt>
      <trkpt lat="44.59349" lon="-0.28336">
        <ele>73.68</ele>
        <time>2019-05-25T07:04:21Z</time>
      </trkpt>
      <trkpt lat="44.59352" lon="-0.28336">
        <ele>73.68</ele>
        <time>2019-05-25T07:04:51Z</time>
      </trkpt>
      <trkpt lat="44.59348" lon="-0.28333">
        <ele>73.68</ele>
        <time>2019-05-25T07:05:07Z</time>
      </trkpt>
      <trkpt lat="44.59344" lon="-0.28328">
        <ele>75.12</ele>
        <time>2019-05-25T07:05:11Z</time>
      </trkpt>
      <trkpt lat="44.59335" lon="-0.28316">
        <ele>75.12</ele>
        <time>2019-05-25T07:05:22Z</time>
      </trkpt>
      <trkpt lat="44.59328" lon="-0.28309">
        <ele>75.12</ele>
        <time>2019-05-25T07:05:29Z</time>
      </trkpt>
      <trkpt lat="44.59323" lon="-0.28299">
        <ele>74.16</ele>
        <time>2019-05-25T07:05:38Z</time>
      </trkpt>
      <trkpt lat="44.59321" lon="-0.28298">
        <ele>74.16</ele>
        <time>2019-05-25T07:05:40Z</time>
      </trkpt>
      <trkpt lat="44.59318" lon="-0.28297">
        <ele>74.16</ele>
        <time>2019-05-25T07:05:43Z</time>
      </trkpt>
      <trkpt lat="44.59314" lon="-0.28293">
        <ele>73.2</ele>
        <time>2019-05-25T07:05:47Z</time>
      </trkpt>
      <trkpt lat="44.59302" lon="-0.28278">
        <ele>72.72</ele>
        <time>2019-05-25T07:06:00Z</time>
      </trkpt>
      <trkpt lat="44.59296" lon="-0.28274">
        <ele>72.72</ele>
        <time>2019-05-25T07:06:12Z</time>
      </trkpt>
      <trkpt lat="44.59303" lon="-0.2829">
        <ele>69.35</ele>
        <time>2019-05-25T07:06:28Z</time>
      </trkpt>
      <trkpt lat="44.59312" lon="-0.28307">
        <ele>65.51</ele>
        <time>2019-05-25T07:06:47Z</time>
      </trkpt>
      <trkpt lat="44.59313" lon="-0.28308">
        <ele>65.51</ele>
        <time>2019-05-25T07:06:48Z</time>
      </trkpt>
      <trkpt lat="44.5932" lon="-0.28319">
        <ele>63.1</ele>
        <time>2019-05-25T07:07:04Z</time>
      </trkpt>
      <trkpt lat="44.59326" lon="-0.28334">
        <ele>60.22</ele>
        <time>2019-05-25T07:07:19Z</time>
      </trkpt>
      <trkpt lat="44.59327" lon="-0.2835">
        <ele>56.86</ele>
        <time>2019-05-25T07:07:36Z</time>
      </trkpt>
      <trkpt lat="44.59326" lon="-0.28352">
        <ele>55.89</ele>
        <time>2019-05-25T07:07:38Z</time>
      </trkpt>
      <trkpt lat="44.59325" lon="-0.28354">
        <ele>55.89</ele>
        <time>2019-05-25T07:07:40Z</time>
      </trkpt>
      <trkpt lat="44.59321" lon="-0.28357">
        <ele>53.97</ele>
        <time>2019-05-25T07:07:45Z</time>
      </trkpt>
      <trkpt lat="44.5932" lon="-0.28358">
        <ele>53.01</ele>
        <time>2019-05-25T07:07:48Z</time>
      </trkpt>
      <trkpt lat="44.59309" lon="-0.28366">
        <ele>51.57</ele>
        <time>2019-05-25T07:08:03Z</time>
      </trkpt>
      <trkpt lat="44.59307" lon="-0.28369">
        <ele>49.65</ele>
        <time>2019-05-25T07:08:06Z</time>
      </trkpt>
      <trkpt lat="44.59306" lon="-0.28371">
        <ele>49.65</ele>
        <time>2019-05-25T07:08:08Z</time>
      </trkpt>
      <trkpt lat="44.59304" lon="-0.28383">
        <ele>47.24</ele>
        <time>2019-05-25T07:08:20Z</time>
      </trkpt>
      <trkpt lat="44.59309" lon="-0.28387">
        <ele>47.72</ele>
        <time>2019-05-25T07:08:25Z</time>
      </trkpt>
      <trkpt lat="44.5931" lon="-0.28385">
        <ele>49.16</ele>
        <time>2019-05-25T07:08:29Z</time>
      </trkpt>
      <trkpt lat="44.59316" lon="-0.28382">
        <ele>48.2</ele>
        <time>2019-05-25T07:08:45Z</time>
      </trkpt>
      <trkpt lat="44.59317" lon="-0.28383">
        <ele>49.16</ele>
        <time>2019-05-25T07:08:47Z</time>
      </trkpt>
      <trkpt lat="44.59319" lon="-0.28385">
        <ele>49.16</ele>
        <time>2019-05-25T07:08:50Z</time>
      </trkpt>
      <trkpt lat="44.59321" lon="-0.28386">
        <ele>49.16</ele>
        <time>2019-05-25T07:08:52Z</time>
      </trkpt>
      <trkpt lat="44.59331" lon="-0.28403">
        <ele>49.65</ele>
        <time>2019-05-25T07:09:06Z</time>
      </trkpt>
      <trkpt lat="44.59338" lon="-0.28417">
        <ele>50.61</ele>
        <time>2019-05-25T07:09:16Z</time>
      </trkpt>
      <trkpt lat="44.59339" lon="-0.28422">
        <ele>49.16</ele>
        <time>2019-05-25T07:09:19Z</time>
      </trkpt>
      <trkpt lat="44.59353" lon="-0.28445">
        <ele>50.13</ele>
        <time>2019-05-25T07:09:36Z</time>
      </trkpt>
      <trkpt lat="44.59364" lon="-0.28463">
        <ele>50.13</ele>
        <time>2019-05-25T07:09:49Z</time>
      </trkpt>
      <trkpt lat="44.59377" lon="-0.2848">
        <ele>50.13</ele>
        <time>2019-05-25T07:10:03Z</time>
      </trkpt>
      <trkpt lat="44.59393" lon="-0.28503">
        <ele>48.68</ele>
        <time>2019-05-25T07:10:21Z</time>
      </trkpt>
      <trkpt lat="44.59394" lon="-0.28506">
        <ele>50.13</ele>
        <time>2019-05-25T07:10:23Z</time>
      </trkpt>
      <trkpt lat="44.59396" lon="-0.28511">
        <ele>48.68</ele>
        <time>2019-05-25T07:10:26Z</time>
      </trkpt>
      <trkpt lat="44.59409" lon="-0.28535">
        <ele>48.2</ele>
        <time>2019-05-25T07:10:41Z</time>
      </trkpt>
      <trkpt lat="44.59418" lon="-0.28549">
        <ele>49.16</ele>
        <time>2019-05-25T07:10:51Z</time>
      </trkpt>
      <trkpt lat="44.59434" lon="-0.2856">
        <ele>50.13</ele>
        <time>2019-05-25T07:11:07Z</time>
      </trkpt>
      <trkpt lat="44.59439" lon="-0.28561">
        <ele>50.13</ele>
        <time>2019-05-25T07:11:11Z</time>
      </trkpt>
      <trkpt lat="44.59458" lon="-0.28562">
        <ele>49.16</ele>
        <time>2019-05-25T07:11:27Z</time>
      </trkpt>
      <trkpt lat="44.59461" lon="-0.28562">
        <ele>49.16</ele>
        <time>2019-05-25T07:11:30Z</time>
      </trkpt>
      <trkpt lat="44.59468" lon="-0.28564">
        <ele>50.61</ele>
        <time>2019-05-25T07:11:35Z</time>
      </trkpt>
      <trkpt lat="44.59483" lon="-0.28563">
        <ele>50.13</ele>
        <time>2019-05-25T07:11:46Z</time>
      </trkpt>
      <trkpt lat="44.59493" lon="-0.28563">
        <ele>50.61</ele>
        <time>2019-05-25T07:11:54Z</time>
      </trkpt>
      <trkpt lat="44.59508" lon="-0.28556">
        <ele>48.68</ele>
        <time>2019-05-25T07:12:08Z</time>
      </trkpt>
      <trkpt lat="44.59509" lon="-0.28556">
        <ele>48.68</ele>
        <time>2019-05-25T07:12:09Z</time>
      </trkpt>
      <trkpt lat="44.59512" lon="-0.28555">
        <ele>50.61</ele>
        <time>2019-05-25T07:12:11Z</time>
      </trkpt>
      <trkpt lat="44.59514" lon="-0.28553">
        <ele>50.61</ele>
        <time>2019-05-25T07:12:13Z</time>
      </trkpt>
      <trkpt lat="44.59535" lon="-0.28546">
        <ele>49.16</ele>
        <time>2019-05-25T07:12:31Z</time>
      </trkpt>
      <trkpt lat="44.59547" lon="-0.28534">
        <ele>49.65</ele>
        <time>2019-05-25T07:12:43Z</time>
      </trkpt>
      <trkpt lat="44.59559" lon="-0.28514">
        <ele>47.24</ele>
        <time>2019-05-25T07:12:58Z</time>
      </trkpt>
      <trkpt lat="44.59561" lon="-0.28512">
        <ele>48.68</ele>
        <time>2019-05-25T07:13:00Z</time>
      </trkpt>
      <trkpt lat="44.59573" lon="-0.28492">
        <ele>47.72</ele>
        <time>2019-05-25T07:13:15Z</time>
      </trkpt>
      <trkpt lat="44.5958" lon="-0.28486">
        <ele>47.72</ele>
        <time>2019-05-25T07:13:21Z</time>
      </trkpt>
      <trkpt lat="44.59582" lon="-0.28484">
        <ele>48.68</ele>
        <time>2019-05-25T07:13:23Z</time>
      </trkpt>
      <trkpt lat="44.59589" lon="-0.28471">
        <ele>48.2</ele>
        <time>2019-05-25T07:13:32Z</time>
      </trkpt>
      <trkpt lat="44.59595" lon="-0.28458">
        <ele>48.2</ele>
        <time>2019-05-25T07:13:41Z</time>
      </trkpt>
      <trkpt lat="44.59599" lon="-0.28451">
        <ele>50.13</ele>
        <time>2019-05-25T07:13:46Z</time>
      </trkpt>
      <trkpt lat="44.59602" lon="-0.28443">
        <ele>50.13</ele>
        <time>2019-05-25T07:13:51Z</time>
      </trkpt>
      <trkpt lat="44.5961" lon="-0.28417">
        <ele>50.61</ele>
        <time>2019-05-25T07:14:07Z</time>
      </trkpt>
      <trkpt lat="44.5961" lon="-0.28416">
        <ele>52.53</ele>
        <time>2019-05-25T07:14:08Z</time>
      </trkpt>
      <trkpt lat="44.59611" lon="-0.28408">
        <ele>52.53</ele>
        <time>2019-05-25T07:14:13Z</time>
      </trkpt>
      <trkpt lat="44.59614" lon="-0.28403">
        <ele>52.53</ele>
        <time>2019-05-25T07:14:16Z</time>
      </trkpt>
      <trkpt lat="44.59617" lon="-0.28381">
        <ele>54.45</ele>
        <time>2019-05-25T07:14:30Z</time>
      </trkpt>
      <trkpt lat="44.59619" lon="-0.28353">
        <ele>53.49</ele>
        <time>2019-05-25T07:14:47Z</time>
      </trkpt>
      <trkpt lat="44.59619" lon="-0.28349">
        <ele>55.89</ele>
        <time>2019-05-25T07:14:49Z</time>
      </trkpt>
      <trkpt lat="44.59619" lon="-0.28346">
        <ele>53.97</ele>
        <time>2019-05-25T07:14:51Z</time>
      </trkpt>
      <trkpt lat="44.59626" lon="-0.28318">
        <ele>55.41</ele>
        <time>2019-05-25T07:15:06Z</time>
      </trkpt>
      <trkpt lat="44.59627" lon="-0.28303">
        <ele>55.41</ele>
        <time>2019-05-25T07:15:14Z</time>
      </trkpt>
      <trkpt lat="44.59627" lon="-0.28301">
        <ele>55.41</ele>
        <time>2019-05-25T07:15:16Z</time>
      </trkpt>
      <trkpt lat="44.59626" lon="-0.28277">
        <ele>53.01</ele>
        <time>2019-05-25T07:15:30Z</time>
      </trkpt>
      <trkpt lat="44.59627" lon="-0.28252">
        <ele>51.57</ele>
        <time>2019-05-25T07:15:44Z</time>
      </trkpt>
      <trkpt lat="44.59628" lon="-0.28246">
        <ele>51.09</ele>
        <time>2019-05-25T07:15:48Z</time>
      </trkpt>
      <trkpt lat="44.59632" lon="-0.28233">
        <ele>50.13</ele>
        <time>2019-05-25T07:16:02Z</time>
      </trkpt>
      <trkpt lat="44.59633" lon="-0.28226">
        <ele>49.65</ele>
        <time>2019-05-25T07:16:16Z</time>
      </trkpt>
      <trkpt lat="44.59636" lon="-0.28217">
        <ele>49.65</ele>
        <time>2019-05-25T07:16:22Z</time>
      </trkpt>
      <trkpt lat="44.59638" lon="-0.28207">
        <ele>49.16</ele>
        <time>2019-05-25T07:16:27Z</time>
      </trkpt>
      <trkpt lat="44.59639" lon="-0.28189">
        <ele>50.13</ele>
        <time>2019-05-25T07:16:37Z</time>
      </trkpt>
      <trkpt lat="44.5964" lon="-0.28187">
        <ele>48.68</ele>
        <time>2019-05-25T07:16:39Z</time>
      </trkpt>
      <trkpt lat="44.59644" lon="-0.28186">
        <ele>48.68</ele>
        <time>2019-05-25T07:16:42Z</time>
      </trkpt>
      <trkpt lat="44.59654" lon="-0.28198">
        <ele>47.72</ele>
        <time>2019-05-25T07:16:52Z</time>
      </trkpt>
      <trkpt lat="44.59665" lon="-0.28224">
        <ele>48.2</ele>
        <time>2019-05-25T07:17:08Z</time>
      </trkpt>
      <trkpt lat="44.59666" lon="-0.28227">
        <ele>49.65</ele>
        <time>2019-05-25T07:17:10Z</time>
      </trkpt>
      <trkpt lat="44.59668" lon="-0.2823">
        <ele>48.2</ele>
        <time>2019-05-25T07:17:12Z</time>
      </trkpt>
      <trkpt lat="44.59669" lon="-0.28233">
        <ele>49.65</ele>
        <time>2019-05-25T07:17:14Z</time>
      </trkpt>
      <trkpt lat="44.59683" lon="-0.28256">
        <ele>51.09</ele>
        <time>2019-05-25T07:17:30Z</time>
      </trkpt>
      <trkpt lat="44.59697" lon="-0.28273">
        <ele>50.13</ele>
        <time>2019-05-25T07:17:44Z</time>
      </trkpt>
      <trkpt lat="44.59698" lon="-0.28274">
        <ele>51.57</ele>
        <time>2019-05-25T07:17:46Z</time>
      </trkpt>
      <trkpt lat="44.59712" lon="-0.28278">
        <ele>54.45</ele>
        <time>2019-05-25T07:18:05Z</time>
      </trkpt>
      <trkpt lat="44.59715" lon="-0.28279">
        <ele>55.89</ele>
        <time>2019-05-25T07:18:11Z</time>
      </trkpt>
      <trkpt lat="44.59722" lon="-0.28282">
        <ele>58.3</ele>
        <time>2019-05-25T07:18:20Z</time>
      </trkpt>
      <trkpt lat="44.59733" lon="-0.2829">
        <ele>57.82</ele>
        <time>2019-05-25T07:18:34Z</time>
      </trkpt>
      <trkpt lat="44.59744" lon="-0.28314">
        <ele>58.3</ele>
        <time>2019-05-25T07:18:56Z</time>
      </trkpt>
      <trkpt lat="44.59765" lon="-0.28328">
        <ele>58.78</ele>
        <time>2019-05-25T07:19:21Z</time>
      </trkpt>
      <trkpt lat="44.59773" lon="-0.28333">
        <ele>57.82</ele>
        <time>2019-05-25T07:19:27Z</time>
      </trkpt>
      <trkpt lat="44.59784" lon="-0.28337">
        <ele>58.3</ele>
        <time>2019-05-25T07:19:35Z</time>
      </trkpt>
      <trkpt lat="44.59786" lon="-0.28338">
        <ele>57.34</ele>
        <time>2019-05-25T07:19:37Z</time>
      </trkpt>
      <trkpt lat="44.59791" lon="-0.28339">
        <ele>58.3</ele>
        <time>2019-05-25T07:19:42Z</time>
      </trkpt>
      <trkpt lat="44.59801" lon="-0.28339">
        <ele>57.82</ele>
        <time>2019-05-25T07:19:51Z</time>
      </trkpt>
      <trkpt lat="44.59821" lon="-0.28335">
        <ele>60.22</ele>
        <time>2019-05-25T07:20:13Z</time>
      </trkpt>
      <trkpt lat="44.5984" lon="-0.28331">
        <ele>59.26</ele>
        <time>2019-05-25T07:20:28Z</time>
      </trkpt>
      <trkpt lat="44.59861" lon="-0.28322">
        <ele>59.26</ele>
        <time>2019-05-25T07:20:48Z</time>
      </trkpt>
      <trkpt lat="44.59869" lon="-0.28318">
        <ele>60.22</ele>
        <time>2019-05-25T07:20:58Z</time>
      </trkpt>
      <trkpt lat="44.59889" lon="-0.28293">
        <ele>62.14</ele>
        <time>2019-05-25T07:21:20Z</time>
      </trkpt>
      <trkpt lat="44.59902" lon="-0.28282">
        <ele>65.03</ele>
        <time>2019-05-25T07:21:34Z</time>
      </trkpt>
      <trkpt lat="44.59903" lon="-0.28281">
        <ele>65.03</ele>
        <time>2019-05-25T07:21:35Z</time>
      </trkpt>
      <trkpt lat="44.59929" lon="-0.28275">
        <ele>65.51</ele>
        <time>2019-05-25T07:21:58Z</time>
      </trkpt>
      <trkpt lat="44.59934" lon="-0.28278">
        <ele>64.07</ele>
        <time>2019-05-25T07:22:04Z</time>
      </trkpt>
      <trkpt lat="44.5995" lon="-0.28275">
        <ele>64.07</ele>
        <time>2019-05-25T07:22:23Z</time>
      </trkpt>
      <trkpt lat="44.59951" lon="-0.28274">
        <ele>64.07</ele>
        <time>2019-05-25T07:22:24Z</time>
      </trkpt>
      <trkpt lat="44.59962" lon="-0.28272">
        <ele>64.07</ele>
        <time>2019-05-25T07:22:41Z</time>
      </trkpt>
      <trkpt lat="44.59965" lon="-0.28277">
        <ele>63.58</ele>
        <time>2019-05-25T07:22:58Z</time>
      </trkpt>
      <trkpt lat="44.59967" lon="-0.28284">
        <ele>65.51</ele>
        <time>2019-05-25T07:23:03Z</time>
      </trkpt>
      <trkpt lat="44.59976" lon="-0.28302">
        <ele>67.91</ele>
        <time>2019-05-25T07:23:17Z</time>
      </trkpt>
      <trkpt lat="44.59981" lon="-0.28319">
        <ele>70.31</ele>
        <time>2019-05-25T07:23:31Z</time>
      </trkpt>
      <trkpt lat="44.59985" lon="-0.28334">
        <ele>73.68</ele>
        <time>2019-05-25T07:23:43Z</time>
      </trkpt>
      <trkpt lat="44.59989" lon="-0.28344">
        <ele>75.12</ele>
        <time>2019-05-25T07:23:52Z</time>
      </trkpt>
      <trkpt lat="44.59992" lon="-0.28348">
        <ele>77.04</ele>
        <time>2019-05-25T07:23:57Z</time>
      </trkpt>
      <trkpt lat="44.59992" lon="-0.28352">
        <ele>76.56</ele>
        <time>2019-05-25T07:24:03Z</time>
      </trkpt>
      <trkpt lat="44.59991" lon="-0.28356">
        <ele>76.56</ele>
        <time>2019-05-25T07:24:06Z</time>
      </trkpt>
      <trkpt lat="44.59989" lon="-0.28368">
        <ele>75.12</ele>
        <time>2019-05-25T07:24:14Z</time>
      </trkpt>
      <trkpt lat="44.59991" lon="-0.28371">
        <ele>77.52</ele>
        <time>2019-05-25T07:24:16Z</time>
      </trkpt>
      <trkpt lat="44.60001" lon="-0.28379">
        <ele>77.04</ele>
        <time>2019-05-25T07:24:26Z</time>
      </trkpt>
      <trkpt lat="44.60003" lon="-0.28381">
        <ele>78.97</ele>
        <time>2019-05-25T07:24:28Z</time>
      </trkpt>
      <trkpt lat="44.60008" lon="-0.28384">
        <ele>78</ele>
        <time>2019-05-25T07:24:33Z</time>
      </trkpt>
      <trkpt lat="44.6001" lon="-0.28385">
        <ele>78.97</ele>
        <time>2019-05-25T07:24:35Z</time>
      </trkpt>
      <trkpt lat="44.60023" lon="-0.28398">
        <ele>80.41</ele>
        <time>2019-05-25T07:24:47Z</time>
      </trkpt>
      <trkpt lat="44.60024" lon="-0.28398">
        <ele>80.41</ele>
        <time>2019-05-25T07:24:48Z</time>
      </trkpt>
      <trkpt lat="44.60031" lon="-0.28404">
        <ele>79.93</ele>
        <time>2019-05-25T07:24:56Z</time>
      </trkpt>
      <trkpt lat="44.60042" lon="-0.28416">
        <ele>83.29</ele>
        <time>2019-05-25T07:25:06Z</time>
      </trkpt>
      <trkpt lat="44.60047" lon="-0.28424">
        <ele>84.25</ele>
        <time>2019-05-25T07:25:13Z</time>
      </trkpt>
      <trkpt lat="44.60061" lon="-0.28426">
        <ele>82.81</ele>
        <time>2019-05-25T07:25:24Z</time>
      </trkpt>
      <trkpt lat="44.60063" lon="-0.28426">
        <ele>84.73</ele>
        <time>2019-05-25T07:25:26Z</time>
      </trkpt>
      <trkpt lat="44.60069" lon="-0.28423">
        <ele>86.18</ele>
        <time>2019-05-25T07:25:34Z</time>
      </trkpt>
      <trkpt lat="44.60078" lon="-0.28421">
        <ele>85.21</ele>
        <time>2019-05-25T07:25:41Z</time>
      </trkpt>
      <trkpt lat="44.60083" lon="-0.2842">
        <ele>89.06</ele>
        <time>2019-05-25T07:25:45Z</time>
      </trkpt>
      <trkpt lat="44.60105" lon="-0.28428">
        <ele>91.46</ele>
        <time>2019-05-25T07:26:05Z</time>
      </trkpt>
      <trkpt lat="44.6012" lon="-0.28431">
        <ele>92.42</ele>
        <time>2019-05-25T07:26:15Z</time>
      </trkpt>
      <trkpt lat="44.60128" lon="-0.28433">
        <ele>92.42</ele>
        <time>2019-05-25T07:26:20Z</time>
      </trkpt>
      <trkpt lat="44.6014" lon="-0.28428">
        <ele>92.9</ele>
        <time>2019-05-25T07:26:39Z</time>
      </trkpt>
      <trkpt lat="44.6014" lon="-0.28428">
        <ele>92.9</ele>
        <time>2019-05-25T07:27:06Z</time>
      </trkpt>
      <trkpt lat="44.60141" lon="-0.28428">
        <ele>92.9</ele>
        <time>2019-05-25T07:27:31Z</time>
      </trkpt>
      <trkpt lat="44.60141" lon="-0.28428">
        <ele>94.35</ele>
        <time>2019-05-25T07:27:40Z</time>
      </trkpt>
      <trkpt lat="44.6014" lon="-0.28429">
        <ele>94.35</ele>
        <time>2019-05-25T07:27:55Z</time>
      </trkpt>
      <trkpt lat="44.60141" lon="-0.2843">
        <ele>94.35</ele>
        <time>2019-05-25T07:28:16Z</time>
      </trkpt>
      <trkpt lat="44.60146" lon="-0.28425">
        <ele>94.83</ele>
        <time>2019-05-25T07:28:33Z</time>
      </trkpt>
      <trkpt lat="44.60148" lon="-0.28426">
        <ele>94.83</ele>
        <time>2019-05-25T07:28:36Z</time>
      </trkpt>
      <trkpt lat="44.60152" lon="-0.28427">
        <ele>94.83</ele>
        <time>2019-05-25T07:28:41Z</time>
      </trkpt>
      <trkpt lat="44.60165" lon="-0.28423">
        <ele>97.23</ele>
        <time>2019-05-25T07:28:57Z</time>
      </trkpt>
      <trkpt lat="44.60181" lon="-0.28422">
        <ele>98.67</ele>
        <time>2019-05-25T07:29:13Z</time>
      </trkpt>
      <trkpt lat="44.60192" lon="-0.28419">
        <ele>99.15</ele>
        <time>2019-05-25T07:29:23Z</time>
      </trkpt>
      <trkpt lat="44.60195" lon="-0.28417">
        <ele>99.15</ele>
        <time>2019-05-25T07:29:27Z</time>
      </trkpt>
      <trkpt lat="44.60203" lon="-0.28414">
        <ele>100.11</ele>
        <time>2019-05-25T07:29:34Z</time>
      </trkpt>
      <trkpt lat="44.60207" lon="-0.28414">
        <ele>101.08</ele>
        <time>2019-05-25T07:29:37Z</time>
      </trkpt>
      <trkpt lat="44.60214" lon="-0.28412">
        <ele>102.52</ele>
        <time>2019-05-25T07:29:43Z</time>
      </trkpt>
      <trkpt lat="44.60231" lon="-0.28409">
        <ele>103</ele>
        <time>2019-05-25T07:29:59Z</time>
      </trkpt>
      <trkpt lat="44.60248" lon="-0.28399">
        <ele>103.48</ele>
        <time>2019-05-25T07:30:16Z</time>
      </trkpt>
      <trkpt lat="44.60249" lon="-0.28384">
        <ele>103.48</ele>
        <time>2019-05-25T07:30:25Z</time>
      </trkpt>
      <trkpt lat="44.60249" lon="-0.28357">
        <ele>103</ele>
        <time>2019-05-25T07:30:42Z</time>
      </trkpt>
      <trkpt lat="44.60244" lon="-0.28334">
        <ele>102.52</ele>
        <time>2019-05-25T07:30:58Z</time>
      </trkpt>
      <trkpt lat="44.60233" lon="-0.28312">
        <ele>101.56</ele>
        <time>2019-05-25T07:31:15Z</time>
      </trkpt>
      <trkpt lat="44.60231" lon="-0.28294">
        <ele>100.6</ele>
        <time>2019-05-25T07:31:26Z</time>
      </trkpt>
      <trkpt lat="44.60235" lon="-0.28274">
        <ele>100.11</ele>
        <time>2019-05-25T07:31:39Z</time>
      </trkpt>
      <trkpt lat="44.60246" lon="-0.28249">
        <ele>99.63</ele>
        <time>2019-05-25T07:31:56Z</time>
      </trkpt>
      <trkpt lat="44.60249" lon="-0.2824">
        <ele>99.15</ele>
        <time>2019-05-25T07:32:03Z</time>
      </trkpt>
      <trkpt lat="44.60252" lon="-0.28233">
        <ele>99.63</ele>
        <time>2019-05-25T07:32:08Z</time>
      </trkpt>
      <trkpt lat="44.60261" lon="-0.28206">
        <ele>101.08</ele>
        <time>2019-05-25T07:32:26Z</time>
      </trkpt>
      <trkpt lat="44.60273" lon="-0.28179">
        <ele>101.08</ele>
        <time>2019-05-25T07:32:45Z</time>
      </trkpt>
      <trkpt lat="44.60275" lon="-0.28174">
        <ele>102.52</ele>
        <time>2019-05-25T07:32:48Z</time>
      </trkpt>
      <trkpt lat="44.60284" lon="-0.28145">
        <ele>102.04</ele>
        <time>2019-05-25T07:33:06Z</time>
      </trkpt>
      <trkpt lat="44.60285" lon="-0.28139">
        <ele>103.48</ele>
        <time>2019-05-25T07:33:10Z</time>
      </trkpt>
      <trkpt lat="44.6029" lon="-0.2812">
        <ele>103.96</ele>
        <time>2019-05-25T07:33:21Z</time>
      </trkpt>
      <trkpt lat="44.60297" lon="-0.28092">
        <ele>104.44</ele>
        <time>2019-05-25T07:33:38Z</time>
      </trkpt>
      <trkpt lat="44.60305" lon="-0.28081">
        <ele>103.48</ele>
        <time>2019-05-25T07:33:55Z</time>
      </trkpt>
      <trkpt lat="44.60307" lon="-0.28084">
        <ele>104.92</ele>
        <time>2019-05-25T07:34:07Z</time>
      </trkpt>
      <trkpt lat="44.60312" lon="-0.28078">
        <ele>106.84</ele>
        <time>2019-05-25T07:34:22Z</time>
      </trkpt>
      <trkpt lat="44.60319" lon="-0.28071">
        <ele>107.32</ele>
        <time>2019-05-25T07:34:28Z</time>
      </trkpt>
      <trkpt lat="44.60335" lon="-0.28057">
        <ele>107.81</ele>
        <time>2019-05-25T07:34:43Z</time>
      </trkpt>
      <trkpt lat="44.60347" lon="-0.28039">
        <ele>109.25</ele>
        <time>2019-05-25T07:34:56Z</time>
      </trkpt>
      <trkpt lat="44.60362" lon="-0.28024">
        <ele>109.73</ele>
        <time>2019-05-25T07:35:10Z</time>
      </trkpt>
      <trkpt lat="44.6038" lon="-0.28002">
        <ele>110.69</ele>
        <time>2019-05-25T07:35:28Z</time>
      </trkpt>
      <trkpt lat="44.60394" lon="-0.27977">
        <ele>110.69</ele>
        <time>2019-05-25T07:35:43Z</time>
      </trkpt>
      <trkpt lat="44.60397" lon="-0.27973">
        <ele>109.73</ele>
        <time>2019-05-25T07:35:46Z</time>
      </trkpt>
      <trkpt lat="44.60406" lon="-0.27954">
        <ele>110.69</ele>
        <time>2019-05-25T07:35:58Z</time>
      </trkpt>
      <trkpt lat="44.60424" lon="-0.27932">
        <ele>109.25</ele>
        <time>2019-05-25T07:36:16Z</time>
      </trkpt>
      <trkpt lat="44.6043" lon="-0.27933">
        <ele>109.25</ele>
        <time>2019-05-25T07:36:37Z</time>
      </trkpt>
      <trkpt lat="44.60444" lon="-0.27955">
        <ele>110.69</ele>
        <time>2019-05-25T07:36:57Z</time>
      </trkpt>
      <trkpt lat="44.6045" lon="-0.27961">
        <ele>110.69</ele>
        <time>2019-05-25T07:37:02Z</time>
      </trkpt>
      <trkpt lat="44.60469" lon="-0.27995">
        <ele>111.17</ele>
        <time>2019-05-25T07:37:22Z</time>
      </trkpt>
      <trkpt lat="44.60479" lon="-0.28018">
        <ele>110.69</ele>
        <time>2019-05-25T07:37:41Z</time>
      </trkpt>
      <trkpt lat="44.60477" lon="-0.28021">
        <ele>110.69</ele>
        <time>2019-05-25T07:37:55Z</time>
      </trkpt>
      <trkpt lat="44.60486" lon="-0.28046">
        <ele>110.21</ele>
        <time>2019-05-25T07:38:10Z</time>
      </trkpt>
      <trkpt lat="44.60497" lon="-0.28062">
        <ele>110.21</ele>
        <time>2019-05-25T07:38:21Z</time>
      </trkpt>
      <trkpt lat="44.60511" lon="-0.28086">
        <ele>109.73</ele>
        <time>2019-05-25T07:38:38Z</time>
      </trkpt>
      <trkpt lat="44.60525" lon="-0.28108">
        <ele>109.25</ele>
        <time>2019-05-25T07:38:53Z</time>
      </trkpt>
      <trkpt lat="44.60537" lon="-0.28128">
        <ele>108.77</ele>
        <time>2019-05-25T07:39:08Z</time>
      </trkpt>
      <trkpt lat="44.60549" lon="-0.28148">
        <ele>108.29</ele>
        <time>2019-05-25T07:39:22Z</time>
      </trkpt>
      <trkpt lat="44.6055" lon="-0.28149">
        <ele>108.29</ele>
        <time>2019-05-25T07:39:23Z</time>
      </trkpt>
      <trkpt lat="44.60555" lon="-0.28164">
        <ele>108.29</ele>
        <time>2019-05-25T07:39:33Z</time>
      </trkpt>
      <trkpt lat="44.60542" lon="-0.28186">
        <ele>107.81</ele>
        <time>2019-05-25T07:39:47Z</time>
      </trkpt>
      <trkpt lat="44.60528" lon="-0.28202">
        <ele>107.32</ele>
        <time>2019-05-25T07:40:02Z</time>
      </trkpt>
      <trkpt lat="44.60511" lon="-0.28221">
        <ele>105.88</ele>
        <time>2019-05-25T07:40:19Z</time>
      </trkpt>
      <trkpt lat="44.60506" lon="-0.28228">
        <ele>105.88</ele>
        <time>2019-05-25T07:40:25Z</time>
      </trkpt>
      <trkpt lat="44.60506" lon="-0.28235">
        <ele>105.88</ele>
        <time>2019-05-25T07:40:29Z</time>
      </trkpt>
      <trkpt lat="44.60519" lon="-0.28256">
        <ele>104.44</ele>
        <time>2019-05-25T07:40:43Z</time>
      </trkpt>
      <trkpt lat="44.60527" lon="-0.2827">
        <ele>103.48</ele>
        <time>2019-05-25T07:40:54Z</time>
      </trkpt>
      <trkpt lat="44.60538" lon="-0.2829">
        <ele>102.04</ele>
        <time>2019-05-25T07:41:08Z</time>
      </trkpt>
      <trkpt lat="44.60551" lon="-0.28313">
        <ele>100.6</ele>
        <time>2019-05-25T07:41:24Z</time>
      </trkpt>
      <trkpt lat="44.60564" lon="-0.28333">
        <ele>100.11</ele>
        <time>2019-05-25T07:41:38Z</time>
      </trkpt>
      <trkpt lat="44.60574" lon="-0.28352">
        <ele>100.11</ele>
        <time>2019-05-25T07:41:51Z</time>
      </trkpt>
      <trkpt lat="44.60585" lon="-0.28373">
        <ele>99.63</ele>
        <time>2019-05-25T07:42:05Z</time>
      </trkpt>
      <trkpt lat="44.60586" lon="-0.28376">
        <ele>99.63</ele>
        <time>2019-05-25T07:42:07Z</time>
      </trkpt>
      <trkpt lat="44.60592" lon="-0.28397">
        <ele>100.6</ele>
        <time>2019-05-25T07:42:19Z</time>
      </trkpt>
      <trkpt lat="44.60595" lon="-0.28408">
        <ele>99.15</ele>
        <time>2019-05-25T07:42:25Z</time>
      </trkpt>
      <trkpt lat="44.60598" lon="-0.28422">
        <ele>100.11</ele>
        <time>2019-05-25T07:42:33Z</time>
      </trkpt>
      <trkpt lat="44.60605" lon="-0.2844">
        <ele>99.15</ele>
        <time>2019-05-25T07:42:43Z</time>
      </trkpt>
      <trkpt lat="44.60608" lon="-0.28449">
        <ele>99.15</ele>
        <time>2019-05-25T07:42:48Z</time>
      </trkpt>
      <trkpt lat="44.60609" lon="-0.28454">
        <ele>100.6</ele>
        <time>2019-05-25T07:42:51Z</time>
      </trkpt>
      <trkpt lat="44.60609" lon="-0.28457">
        <ele>99.63</ele>
        <time>2019-05-25T07:42:53Z</time>
      </trkpt>
      <trkpt lat="44.60615" lon="-0.28477">
        <ele>100.6</ele>
        <time>2019-05-25T07:43:05Z</time>
      </trkpt>
      <trkpt lat="44.60617" lon="-0.28485">
        <ele>99.15</ele>
        <time>2019-05-25T07:43:09Z</time>
      </trkpt>
      <trkpt lat="44.60618" lon="-0.28489">
        <ele>100.6</ele>
        <time>2019-05-25T07:43:11Z</time>
      </trkpt>
      <trkpt lat="44.60621" lon="-0.28501">
        <ele>100.6</ele>
        <time>2019-05-25T07:43:18Z</time>
      </trkpt>
      <trkpt lat="44.60628" lon="-0.28527">
        <ele>101.08</ele>
        <time>2019-05-25T07:43:32Z</time>
      </trkpt>
      <trkpt lat="44.60635" lon="-0.28547">
        <ele>101.56</ele>
        <time>2019-05-25T07:43:44Z</time>
      </trkpt>
      <trkpt lat="44.60641" lon="-0.2857">
        <ele>100.11</ele>
        <time>2019-05-25T07:43:58Z</time>
      </trkpt>
      <trkpt lat="44.60644" lon="-0.28586">
        <ele>101.56</ele>
        <time>2019-05-25T07:44:07Z</time>
      </trkpt>
      <trkpt lat="44.60647" lon="-0.286">
        <ele>100.11</ele>
        <time>2019-05-25T07:44:15Z</time>
      </trkpt>
      <trkpt lat="44.60648" lon="-0.28604">
        <ele>101.08</ele>
        <time>2019-05-25T07:44:17Z</time>
      </trkpt>
      <trkpt lat="44.6065" lon="-0.28606">
        <ele>100.11</ele>
        <time>2019-05-25T07:44:19Z</time>
      </trkpt>
      <trkpt lat="44.60651" lon="-0.2861">
        <ele>101.08</ele>
        <time>2019-05-25T07:44:21Z</time>
      </trkpt>
      <trkpt lat="44.60652" lon="-0.28614">
        <ele>100.11</ele>
        <time>2019-05-25T07:44:24Z</time>
      </trkpt>
      <trkpt lat="44.60654" lon="-0.28621">
        <ele>101.08</ele>
        <time>2019-05-25T07:44:29Z</time>
      </trkpt>
      <trkpt lat="44.60661" lon="-0.28648">
        <ele>101.08</ele>
        <time>2019-05-25T07:44:45Z</time>
      </trkpt>
      <trkpt lat="44.60661" lon="-0.2865">
        <ele>101.08</ele>
        <time>2019-05-25T07:44:46Z</time>
      </trkpt>
      <trkpt lat="44.60667" lon="-0.28657">
        <ele>101.56</ele>
        <time>2019-05-25T07:44:54Z</time>
      </trkpt>
      <trkpt lat="44.60679" lon="-0.28682">
        <ele>100.6</ele>
        <time>2019-05-25T07:45:10Z</time>
      </trkpt>
      <trkpt lat="44.60692" lon="-0.287">
        <ele>98.67</ele>
        <time>2019-05-25T07:45:24Z</time>
      </trkpt>
      <trkpt lat="44.60703" lon="-0.28717">
        <ele>98.67</ele>
        <time>2019-05-25T07:45:37Z</time>
      </trkpt>
      <trkpt lat="44.60716" lon="-0.28736">
        <ele>98.19</ele>
        <time>2019-05-25T07:45:51Z</time>
      </trkpt>
      <trkpt lat="44.6073" lon="-0.28756">
        <ele>96.75</ele>
        <time>2019-05-25T07:46:05Z</time>
      </trkpt>
      <trkpt lat="44.60741" lon="-0.28776">
        <ele>96.27</ele>
        <time>2019-05-25T07:46:20Z</time>
      </trkpt>
      <trkpt lat="44.60743" lon="-0.28779">
        <ele>96.27</ele>
        <time>2019-05-25T07:46:22Z</time>
      </trkpt>
      <trkpt lat="44.60747" lon="-0.28784">
        <ele>95.79</ele>
        <time>2019-05-25T07:46:26Z</time>
      </trkpt>
      <trkpt lat="44.6076" lon="-0.28804">
        <ele>95.31</ele>
        <time>2019-05-25T07:46:41Z</time>
      </trkpt>
      <trkpt lat="44.60771" lon="-0.2882">
        <ele>94.83</ele>
        <time>2019-05-25T07:46:53Z</time>
      </trkpt>
      <trkpt lat="44.60778" lon="-0.28831">
        <ele>94.35</ele>
        <time>2019-05-25T07:47:01Z</time>
      </trkpt>
      <trkpt lat="44.60778" lon="-0.28836">
        <ele>94.35</ele>
        <time>2019-05-25T07:47:04Z</time>
      </trkpt>
      <trkpt lat="44.60774" lon="-0.28844">
        <ele>93.39</ele>
        <time>2019-05-25T07:47:08Z</time>
      </trkpt>
      <trkpt lat="44.60759" lon="-0.28864">
        <ele>92.42</ele>
        <time>2019-05-25T07:47:23Z</time>
      </trkpt>
      <trkpt lat="44.6075" lon="-0.28881">
        <ele>90.98</ele>
        <time>2019-05-25T07:47:35Z</time>
      </trkpt>
      <trkpt lat="44.60746" lon="-0.28887">
        <ele>90.5</ele>
        <time>2019-05-25T07:47:39Z</time>
      </trkpt>
      <trkpt lat="44.60733" lon="-0.28909">
        <ele>87.14</ele>
        <time>2019-05-25T07:47:55Z</time>
      </trkpt>
      <trkpt lat="44.60719" lon="-0.28929">
        <ele>84.73</ele>
        <time>2019-05-25T07:48:11Z</time>
      </trkpt>
      <trkpt lat="44.60713" lon="-0.28937">
        <ele>84.25</ele>
        <time>2019-05-25T07:48:18Z</time>
      </trkpt>
      <trkpt lat="44.60712" lon="-0.2894">
        <ele>83.29</ele>
        <time>2019-05-25T07:48:20Z</time>
      </trkpt>
      <trkpt lat="44.60704" lon="-0.28957">
        <ele>82.33</ele>
        <time>2019-05-25T07:48:32Z</time>
      </trkpt>
      <trkpt lat="44.60691" lon="-0.28974">
        <ele>79.45</ele>
        <time>2019-05-25T07:48:45Z</time>
      </trkpt>
      <trkpt lat="44.60679" lon="-0.28994">
        <ele>76.56</ele>
        <time>2019-05-25T07:49:00Z</time>
      </trkpt>
      <trkpt lat="44.60663" lon="-0.29014">
        <ele>75.6</ele>
        <time>2019-05-25T07:49:16Z</time>
      </trkpt>
      <trkpt lat="44.60648" lon="-0.29029">
        <ele>74.16</ele>
        <time>2019-05-25T07:49:30Z</time>
      </trkpt>
      <trkpt lat="44.60641" lon="-0.29035">
        <ele>74.16</ele>
        <time>2019-05-25T07:49:36Z</time>
      </trkpt>
      <trkpt lat="44.60637" lon="-0.29036">
        <ele>72.72</ele>
        <time>2019-05-25T07:49:39Z</time>
      </trkpt>
      <trkpt lat="44.60617" lon="-0.29051">
        <ele>71.76</ele>
        <time>2019-05-25T07:49:57Z</time>
      </trkpt>
      <trkpt lat="44.606" lon="-0.29063">
        <ele>70.31</ele>
        <time>2019-05-25T07:50:11Z</time>
      </trkpt>
      <trkpt lat="44.60598" lon="-0.29065">
        <ele>69.83</ele>
        <time>2019-05-25T07:50:13Z</time>
      </trkpt>
      <trkpt lat="44.60584" lon="-0.29086">
        <ele>70.79</ele>
        <time>2019-05-25T07:50:29Z</time>
      </trkpt>
      <trkpt lat="44.6058" lon="-0.29095">
        <ele>69.83</ele>
        <time>2019-05-25T07:50:36Z</time>
      </trkpt>
      <trkpt lat="44.60572" lon="-0.2912">
        <ele>72.24</ele>
        <time>2019-05-25T07:50:52Z</time>
      </trkpt>
      <trkpt lat="44.60572" lon="-0.29121">
        <ele>70.79</ele>
        <time>2019-05-25T07:50:53Z</time>
      </trkpt>
      <trkpt lat="44.60575" lon="-0.29126">
        <ele>71.76</ele>
        <time>2019-05-25T07:50:57Z</time>
      </trkpt>
      <trkpt lat="44.60579" lon="-0.29131">
        <ele>71.27</ele>
        <time>2019-05-25T07:51:02Z</time>
      </trkpt>
      <trkpt lat="44.6058" lon="-0.29133">
        <ele>73.2</ele>
        <time>2019-05-25T07:51:04Z</time>
      </trkpt>
      <trkpt lat="44.60583" lon="-0.29138">
        <ele>74.16</ele>
        <time>2019-05-25T07:51:09Z</time>
      </trkpt>
      <trkpt lat="44.60597" lon="-0.29154">
        <ele>73.68</ele>
        <time>2019-05-25T07:51:25Z</time>
      </trkpt>
      <trkpt lat="44.60601" lon="-0.29159">
        <ele>75.6</ele>
        <time>2019-05-25T07:51:32Z</time>
      </trkpt>
      <trkpt lat="44.60607" lon="-0.29162">
        <ele>75.6</ele>
        <time>2019-05-25T07:51:36Z</time>
      </trkpt>
      <trkpt lat="44.60622" lon="-0.29178">
        <ele>76.08</ele>
        <time>2019-05-25T07:51:52Z</time>
      </trkpt>
      <trkpt lat="44.60625" lon="-0.29181">
        <ele>77.04</ele>
        <time>2019-05-25T07:51:56Z</time>
      </trkpt>
      <trkpt lat="44.60636" lon="-0.29196">
        <ele>77.04</ele>
        <time>2019-05-25T07:52:09Z</time>
      </trkpt>
      <trkpt lat="44.60651" lon="-0.29212">
        <ele>76.56</ele>
        <time>2019-05-25T07:52:24Z</time>
      </trkpt>
      <trkpt lat="44.60668" lon="-0.29229">
        <ele>78</ele>
        <time>2019-05-25T07:52:41Z</time>
      </trkpt>
      <trkpt lat="44.60672" lon="-0.2923">
        <ele>78.48</ele>
        <time>2019-05-25T07:52:45Z</time>
      </trkpt>
      <trkpt lat="44.60687" lon="-0.29227">
        <ele>79.45</ele>
        <time>2019-05-25T07:52:59Z</time>
      </trkpt>
      <trkpt lat="44.6069" lon="-0.29226">
        <ele>78.48</ele>
        <time>2019-05-25T07:53:02Z</time>
      </trkpt>
      <trkpt lat="44.60698" lon="-0.2922">
        <ele>81.85</ele>
        <time>2019-05-25T07:53:11Z</time>
      </trkpt>
      <trkpt lat="44.60712" lon="-0.2922">
        <ele>84.73</ele>
        <time>2019-05-25T07:53:26Z</time>
      </trkpt>
      <trkpt lat="44.6072" lon="-0.29223">
        <ele>85.21</ele>
        <time>2019-05-25T07:53:33Z</time>
      </trkpt>
      <trkpt lat="44.60724" lon="-0.29226">
        <ele>85.69</ele>
        <time>2019-05-25T07:53:36Z</time>
      </trkpt>
      <trkpt lat="44.60732" lon="-0.29235">
        <ele>85.21</ele>
        <time>2019-05-25T07:53:45Z</time>
      </trkpt>
      <trkpt lat="44.60734" lon="-0.29236">
        <ele>87.14</ele>
        <time>2019-05-25T07:53:47Z</time>
      </trkpt>
      <trkpt lat="44.60746" lon="-0.29247">
        <ele>87.14</ele>
        <time>2019-05-25T07:54:00Z</time>
      </trkpt>
      <trkpt lat="44.60752" lon="-0.29256">
        <ele>88.1</ele>
        <time>2019-05-25T07:54:06Z</time>
      </trkpt>
      <trkpt lat="44.60759" lon="-0.29266">
        <ele>86.66</ele>
        <time>2019-05-25T07:54:16Z</time>
      </trkpt>
      <trkpt lat="44.6076" lon="-0.29267">
        <ele>88.58</ele>
        <time>2019-05-25T07:54:17Z</time>
      </trkpt>
      <trkpt lat="44.60765" lon="-0.29271">
        <ele>89.06</ele>
        <time>2019-05-25T07:54:22Z</time>
      </trkpt>
      <trkpt lat="44.60767" lon="-0.29273">
        <ele>87.14</ele>
        <time>2019-05-25T07:54:24Z</time>
      </trkpt>
      <trkpt lat="44.60778" lon="-0.29292">
        <ele>88.1</ele>
        <time>2019-05-25T07:54:38Z</time>
      </trkpt>
      <trkpt lat="44.60781" lon="-0.29301">
        <ele>89.06</ele>
        <time>2019-05-25T07:54:43Z</time>
      </trkpt>
      <trkpt lat="44.60783" lon="-0.29305">
        <ele>87.14</ele>
        <time>2019-05-25T07:54:46Z</time>
      </trkpt>
      <trkpt lat="44.60796" lon="-0.29329">
        <ele>89.06</ele>
        <time>2019-05-25T07:55:04Z</time>
      </trkpt>
      <trkpt lat="44.60799" lon="-0.29336">
        <ele>87.62</ele>
        <time>2019-05-25T07:55:08Z</time>
      </trkpt>
      <trkpt lat="44.60799" lon="-0.29337">
        <ele>87.62</ele>
        <time>2019-05-25T07:55:09Z</time>
      </trkpt>
      <trkpt lat="44.60803" lon="-0.29343">
        <ele>87.62</ele>
        <time>2019-05-25T07:55:14Z</time>
      </trkpt>
      <trkpt lat="44.60807" lon="-0.29349">
        <ele>87.62</ele>
        <time>2019-05-25T07:55:19Z</time>
      </trkpt>
      <trkpt lat="44.60817" lon="-0.29358">
        <ele>87.62</ele>
        <time>2019-05-25T07:55:28Z</time>
      </trkpt>
      <trkpt lat="44.60834" lon="-0.29366">
        <ele>89.06</ele>
        <time>2019-05-25T07:55:42Z</time>
      </trkpt>
      <trkpt lat="44.60834" lon="-0.29366">
        <ele>89.06</ele>
        <time>2019-05-25T07:55:43Z</time>
      </trkpt>
      <trkpt lat="44.60841" lon="-0.29368">
        <ele>88.1</ele>
        <time>2019-05-25T07:55:49Z</time>
      </trkpt>
      <trkpt lat="44.60851" lon="-0.29374">
        <ele>89.06</ele>
        <time>2019-05-25T07:55:55Z</time>
      </trkpt>
      <trkpt lat="44.60855" lon="-0.29379">
        <ele>89.54</ele>
        <time>2019-05-25T07:55:59Z</time>
      </trkpt>
      <trkpt lat="44.60858" lon="-0.2938">
        <ele>89.06</ele>
        <time>2019-05-25T07:56:02Z</time>
      </trkpt>
      <trkpt lat="44.60864" lon="-0.29381">
        <ele>88.1</ele>
        <time>2019-05-25T07:56:06Z</time>
      </trkpt>
      <trkpt lat="44.60865" lon="-0.29381">
        <ele>90.02</ele>
        <time>2019-05-25T07:56:08Z</time>
      </trkpt>
      <trkpt lat="44.60869" lon="-0.29382">
        <ele>88.1</ele>
        <time>2019-05-25T07:56:12Z</time>
      </trkpt>
      <trkpt lat="44.60875" lon="-0.29383">
        <ele>89.54</ele>
        <time>2019-05-25T07:56:17Z</time>
      </trkpt>
      <trkpt lat="44.60879" lon="-0.29384">
        <ele>88.58</ele>
        <time>2019-05-25T07:56:20Z</time>
      </trkpt>
      <trkpt lat="44.60887" lon="-0.29389">
        <ele>89.54</ele>
        <time>2019-05-25T07:56:27Z</time>
      </trkpt>
      <trkpt lat="44.60891" lon="-0.2939">
        <ele>88.1</ele>
        <time>2019-05-25T07:56:30Z</time>
      </trkpt>
      <trkpt lat="44.60906" lon="-0.29393">
        <ele>89.54</ele>
        <time>2019-05-25T07:56:43Z</time>
      </trkpt>
      <trkpt lat="44.60907" lon="-0.29394">
        <ele>89.54</ele>
        <time>2019-05-25T07:56:44Z</time>
      </trkpt>
      <trkpt lat="44.60923" lon="-0.29404">
        <ele>88.58</ele>
        <time>2019-05-25T07:56:57Z</time>
      </trkpt>
      <trkpt lat="44.6093" lon="-0.29409">
        <ele>89.54</ele>
        <time>2019-05-25T07:57:03Z</time>
      </trkpt>
      <trkpt lat="44.60937" lon="-0.29421">
        <ele>88.58</ele>
        <time>2019-05-25T07:57:13Z</time>
      </trkpt>
      <trkpt lat="44.60945" lon="-0.29433">
        <ele>88.1</ele>
        <time>2019-05-25T07:57:20Z</time>
      </trkpt>
      <trkpt lat="44.60949" lon="-0.29445">
        <ele>87.62</ele>
        <time>2019-05-25T07:57:27Z</time>
      </trkpt>
      <trkpt lat="44.60951" lon="-0.29448">
        <ele>87.62</ele>
        <time>2019-05-25T07:57:29Z</time>
      </trkpt>
      <trkpt lat="44.60961" lon="-0.29461">
        <ele>87.14</ele>
        <time>2019-05-25T07:57:40Z</time>
      </trkpt>
      <trkpt lat="44.60963" lon="-0.29463">
        <ele>86.66</ele>
        <time>2019-05-25T07:57:42Z</time>
      </trkpt>
      <trkpt lat="44.60973" lon="-0.29465">
        <ele>88.1</ele>
        <time>2019-05-25T07:57:49Z</time>
      </trkpt>
      <trkpt lat="44.60983" lon="-0.29466">
        <ele>87.14</ele>
        <time>2019-05-25T07:57:58Z</time>
      </trkpt>
      <trkpt lat="44.6099" lon="-0.29468">
        <ele>87.62</ele>
        <time>2019-05-25T07:58:03Z</time>
      </trkpt>
      <trkpt lat="44.60993" lon="-0.29468">
        <ele>89.06</ele>
        <time>2019-05-25T07:58:05Z</time>
      </trkpt>
      <trkpt lat="44.61001" lon="-0.29469">
        <ele>89.06</ele>
        <time>2019-05-25T07:58:12Z</time>
      </trkpt>
      <trkpt lat="44.61005" lon="-0.29468">
        <ele>87.62</ele>
        <time>2019-05-25T07:58:15Z</time>
      </trkpt>
      <trkpt lat="44.61009" lon="-0.29466">
        <ele>87.14</ele>
        <time>2019-05-25T07:58:19Z</time>
      </trkpt>
      <trkpt lat="44.61028" lon="-0.29462">
        <ele>88.1</ele>
        <time>2019-05-25T07:58:33Z</time>
      </trkpt>
      <trkpt lat="44.61029" lon="-0.29462">
        <ele>88.58</ele>
        <time>2019-05-25T07:58:34Z</time>
      </trkpt>
      <trkpt lat="44.61042" lon="-0.29459">
        <ele>88.58</ele>
        <time>2019-05-25T07:58:43Z</time>
      </trkpt>
      <trkpt lat="44.61051" lon="-0.29453">
        <ele>87.14</ele>
        <time>2019-05-25T07:58:51Z</time>
      </trkpt>
      <trkpt lat="44.61054" lon="-0.29452">
        <ele>89.06</ele>
        <time>2019-05-25T07:58:53Z</time>
      </trkpt>
      <trkpt lat="44.61057" lon="-0.29451">
        <ele>89.06</ele>
        <time>2019-05-25T07:58:56Z</time>
      </trkpt>
      <trkpt lat="44.61066" lon="-0.2945">
        <ele>89.06</ele>
        <time>2019-05-25T07:59:03Z</time>
      </trkpt>
      <trkpt lat="44.61071" lon="-0.29452">
        <ele>88.58</ele>
        <time>2019-05-25T07:59:07Z</time>
      </trkpt>
      <trkpt lat="44.61076" lon="-0.29457">
        <ele>88.58</ele>
        <time>2019-05-25T07:59:11Z</time>
      </trkpt>
      <trkpt lat="44.61091" lon="-0.29471">
        <ele>89.54</ele>
        <time>2019-05-25T07:59:24Z</time>
      </trkpt>
      <trkpt lat="44.61094" lon="-0.29473">
        <ele>88.1</ele>
        <time>2019-05-25T07:59:27Z</time>
      </trkpt>
      <trkpt lat="44.61098" lon="-0.29478">
        <ele>87.62</ele>
        <time>2019-05-25T07:59:31Z</time>
      </trkpt>
      <trkpt lat="44.61109" lon="-0.29497">
        <ele>89.06</ele>
        <time>2019-05-25T07:59:46Z</time>
      </trkpt>
      <trkpt lat="44.6111" lon="-0.295">
        <ele>89.06</ele>
        <time>2019-05-25T07:59:47Z</time>
      </trkpt>
      <trkpt lat="44.61114" lon="-0.29521">
        <ele>87.14</ele>
        <time>2019-05-25T07:59:57Z</time>
      </trkpt>
      <trkpt lat="44.61118" lon="-0.29532">
        <ele>88.58</ele>
        <time>2019-05-25T08:00:03Z</time>
      </trkpt>
      <trkpt lat="44.61118" lon="-0.29533">
        <ele>87.14</ele>
        <time>2019-05-25T08:00:04Z</time>
      </trkpt>
      <trkpt lat="44.6113" lon="-0.29556">
        <ele>88.58</ele>
        <time>2019-05-25T08:00:19Z</time>
      </trkpt>
      <trkpt lat="44.61138" lon="-0.29572">
        <ele>88.58</ele>
        <time>2019-05-25T08:00:32Z</time>
      </trkpt>
      <trkpt lat="44.61149" lon="-0.29583">
        <ele>88.58</ele>
        <time>2019-05-25T08:00:49Z</time>
      </trkpt>
      <trkpt lat="44.61153" lon="-0.29583">
        <ele>87.62</ele>
        <time>2019-05-25T08:01:06Z</time>
      </trkpt>
      <trkpt lat="44.6115" lon="-0.29577">
        <ele>88.58</ele>
        <time>2019-05-25T08:01:29Z</time>
      </trkpt>
      <trkpt lat="44.61149" lon="-0.29578">
        <ele>88.58</ele>
        <time>2019-05-25T08:01:49Z</time>
      </trkpt>
      <trkpt lat="44.61146" lon="-0.29581">
        <ele>88.58</ele>
        <time>2019-05-25T08:02:28Z</time>
      </trkpt>
      <trkpt lat="44.61148" lon="-0.29579">
        <ele>88.58</ele>
        <time>2019-05-25T08:03:06Z</time>
      </trkpt>
      <trkpt lat="44.6115" lon="-0.29583">
        <ele>85.21</ele>
        <time>2019-05-25T08:03:29Z</time>
      </trkpt>
      <trkpt lat="44.6115" lon="-0.29584">
        <ele>90.02</ele>
        <time>2019-05-25T08:03:30Z</time>
      </trkpt>
      <trkpt lat="44.6115" lon="-0.29583">
        <ele>90.02</ele>
        <time>2019-05-25T08:03:31Z</time>
      </trkpt>
      <trkpt lat="44.6115" lon="-0.29583">
        <ele>88.58</ele>
        <time>2019-05-25T08:03:33Z</time>
      </trkpt>
      <trkpt lat="44.61154" lon="-0.29586">
        <ele>88.58</ele>
        <time>2019-05-25T08:03:43Z</time>
      </trkpt>
      <trkpt lat="44.61147" lon="-0.29589">
        <ele>88.58</ele>
        <time>2019-05-25T08:04:13Z</time>
      </trkpt>
      <trkpt lat="44.61145" lon="-0.29589">
        <ele>89.06</ele>
        <time>2019-05-25T08:04:37Z</time>
      </trkpt>
      <trkpt lat="44.61148" lon="-0.29588">
        <ele>88.1</ele>
        <time>2019-05-25T08:05:02Z</time>
      </trkpt>
      <trkpt lat="44.61147" lon="-0.29588">
        <ele>84.73</ele>
        <time>2019-05-25T08:05:16Z</time>
      </trkpt>
      <trkpt lat="44.61147" lon="-0.29589">
        <ele>91.94</ele>
        <time>2019-05-25T08:05:17Z</time>
      </trkpt>
      <trkpt lat="44.61146" lon="-0.29589">
        <ele>89.06</ele>
        <time>2019-05-25T08:05:18Z</time>
      </trkpt>
      <trkpt lat="44.61149" lon="-0.29581">
        <ele>88.58</ele>
        <time>2019-05-25T08:05:41Z</time>
      </trkpt>
      <trkpt lat="44.61149" lon="-0.29582">
        <ele>88.58</ele>
        <time>2019-05-25T08:05:47Z</time>
      </trkpt>
      <trkpt lat="44.61148" lon="-0.29575">
        <ele>89.54</ele>
        <time>2019-05-25T08:05:55Z</time>
      </trkpt>
      <trkpt lat="44.61148" lon="-0.29577">
        <ele>90.02</ele>
        <time>2019-05-25T08:06:23Z</time>
      </trkpt>
      <trkpt lat="44.6115" lon="-0.2958">
        <ele>88.58</ele>
        <time>2019-05-25T08:06:43Z</time>
      </trkpt>
      <trkpt lat="44.6115" lon="-0.29579">
        <ele>88.58</ele>
        <time>2019-05-25T08:06:44Z</time>
      </trkpt>
      <trkpt lat="44.6115" lon="-0.29578">
        <ele>88.58</ele>
        <time>2019-05-25T08:07:05Z</time>
      </trkpt>
      <trkpt lat="44.61152" lon="-0.29583">
        <ele>88.58</ele>
        <time>2019-05-25T08:07:36Z</time>
      </trkpt>
      <trkpt lat="44.61152" lon="-0.29579">
        <ele>89.54</ele>
        <time>2019-05-25T08:07:58Z</time>
      </trkpt>
      <trkpt lat="44.61154" lon="-0.29575">
        <ele>90.02</ele>
        <time>2019-05-25T08:08:02Z</time>
      </trkpt>
      <trkpt lat="44.61156" lon="-0.29572">
        <ele>88.58</ele>
        <time>2019-05-25T08:08:04Z</time>
      </trkpt>
      <trkpt lat="44.61164" lon="-0.29561">
        <ele>89.06</ele>
        <time>2019-05-25T08:08:15Z</time>
      </trkpt>
      <trkpt lat="44.61166" lon="-0.2956">
        <ele>89.54</ele>
        <time>2019-05-25T08:08:16Z</time>
      </trkpt>
      <trkpt lat="44.61178" lon="-0.29549">
        <ele>88.58</ele>
        <time>2019-05-25T08:08:28Z</time>
      </trkpt>
      <trkpt lat="44.6119" lon="-0.29547">
        <ele>86.66</ele>
        <time>2019-05-25T08:08:38Z</time>
      </trkpt>
      <trkpt lat="44.61194" lon="-0.29549">
        <ele>87.14</ele>
        <time>2019-05-25T08:08:42Z</time>
      </trkpt>
      <trkpt lat="44.61196" lon="-0.29549">
        <ele>87.14</ele>
        <time>2019-05-25T08:08:43Z</time>
      </trkpt>
      <trkpt lat="44.61201" lon="-0.29551">
        <ele>85.69</ele>
        <time>2019-05-25T08:08:49Z</time>
      </trkpt>
      <trkpt lat="44.61203" lon="-0.29555">
        <ele>85.69</ele>
        <time>2019-05-25T08:08:54Z</time>
      </trkpt>
      <trkpt lat="44.61213" lon="-0.29576">
        <ele>83.77</ele>
        <time>2019-05-25T08:09:09Z</time>
      </trkpt>
      <trkpt lat="44.6122" lon="-0.29597">
        <ele>82.33</ele>
        <time>2019-05-25T08:09:23Z</time>
      </trkpt>
      <trkpt lat="44.61229" lon="-0.29618">
        <ele>80.89</ele>
        <time>2019-05-25T08:09:38Z</time>
      </trkpt>
      <trkpt lat="44.6124" lon="-0.29635">
        <ele>78.97</ele>
        <time>2019-05-25T08:09:53Z</time>
      </trkpt>
      <trkpt lat="44.61255" lon="-0.29646">
        <ele>76.08</ele>
        <time>2019-05-25T08:10:08Z</time>
      </trkpt>
      <trkpt lat="44.6126" lon="-0.29647">
        <ele>75.6</ele>
        <time>2019-05-25T08:10:14Z</time>
      </trkpt>
      <trkpt lat="44.61265" lon="-0.29649">
        <ele>73.68</ele>
        <time>2019-05-25T08:10:18Z</time>
      </trkpt>
      <trkpt lat="44.61271" lon="-0.29651">
        <ele>73.68</ele>
        <time>2019-05-25T08:10:23Z</time>
      </trkpt>
      <trkpt lat="44.61283" lon="-0.29655">
        <ele>72.24</ele>
        <time>2019-05-25T08:10:34Z</time>
      </trkpt>
      <trkpt lat="44.61284" lon="-0.29663">
        <ele>71.76</ele>
        <time>2019-05-25T08:10:38Z</time>
      </trkpt>
      <trkpt lat="44.61269" lon="-0.29681">
        <ele>70.31</ele>
        <time>2019-05-25T08:10:56Z</time>
      </trkpt>
      <trkpt lat="44.61268" lon="-0.29682">
        <ele>70.31</ele>
        <time>2019-05-25T08:10:57Z</time>
      </trkpt>
      <trkpt lat="44.61263" lon="-0.29684">
        <ele>68.87</ele>
        <time>2019-05-25T08:11:02Z</time>
      </trkpt>
      <trkpt lat="44.61235" lon="-0.29684">
        <ele>67.91</ele>
        <time>2019-05-25T08:11:19Z</time>
      </trkpt>
      <trkpt lat="44.61233" lon="-0.29684">
        <ele>67.91</ele>
        <time>2019-05-25T08:11:20Z</time>
      </trkpt>
      <trkpt lat="44.6121" lon="-0.29675">
        <ele>65.99</ele>
        <time>2019-05-25T08:11:37Z</time>
      </trkpt>
      <trkpt lat="44.61195" lon="-0.2967">
        <ele>64.07</ele>
        <time>2019-05-25T08:11:52Z</time>
      </trkpt>
      <trkpt lat="44.6118" lon="-0.29665">
        <ele>64.07</ele>
        <time>2019-05-25T08:12:02Z</time>
      </trkpt>
      <trkpt lat="44.61177" lon="-0.29664">
        <ele>62.14</ele>
        <time>2019-05-25T08:12:04Z</time>
      </trkpt>
      <trkpt lat="44.61169" lon="-0.29674">
        <ele>60.7</ele>
        <time>2019-05-25T08:12:22Z</time>
      </trkpt>
      <trkpt lat="44.61152" lon="-0.29688">
        <ele>58.78</ele>
        <time>2019-05-25T08:12:41Z</time>
      </trkpt>
      <trkpt lat="44.61115" lon="-0.29691">
        <ele>55.89</ele>
        <time>2019-05-25T08:13:01Z</time>
      </trkpt>
      <trkpt lat="44.61093" lon="-0.29688">
        <ele>53.97</ele>
        <time>2019-05-25T08:13:17Z</time>
      </trkpt>
      <trkpt lat="44.61092" lon="-0.29688">
        <ele>54.45</ele>
        <time>2019-05-25T08:13:18Z</time>
      </trkpt>
      <trkpt lat="44.61087" lon="-0.29684">
        <ele>53.49</ele>
        <time>2019-05-25T08:13:22Z</time>
      </trkpt>
      <trkpt lat="44.61081" lon="-0.29679">
        <ele>52.05</ele>
        <time>2019-05-25T08:13:39Z</time>
      </trkpt>
      <trkpt lat="44.61087" lon="-0.29693">
        <ele>49.16</ele>
        <time>2019-05-25T08:13:49Z</time>
      </trkpt>
      <trkpt lat="44.61099" lon="-0.29702">
        <ele>48.2</ele>
        <time>2019-05-25T08:13:57Z</time>
      </trkpt>
      <trkpt lat="44.61102" lon="-0.29703">
        <ele>49.65</ele>
        <time>2019-05-25T08:13:59Z</time>
      </trkpt>
      <trkpt lat="44.61106" lon="-0.29704">
        <ele>48.68</ele>
        <time>2019-05-25T08:14:03Z</time>
      </trkpt>
      <trkpt lat="44.6111" lon="-0.29708">
        <ele>47.24</ele>
        <time>2019-05-25T08:14:08Z</time>
      </trkpt>
      <trkpt lat="44.61131" lon="-0.29717">
        <ele>45.32</ele>
        <time>2019-05-25T08:14:25Z</time>
      </trkpt>
      <trkpt lat="44.61139" lon="-0.29739">
        <ele>43.88</ele>
        <time>2019-05-25T08:14:41Z</time>
      </trkpt>
      <trkpt lat="44.61144" lon="-0.29753">
        <ele>42.92</ele>
        <time>2019-05-25T08:14:58Z</time>
      </trkpt>
      <trkpt lat="44.61149" lon="-0.29756">
        <ele>41.95</ele>
        <time>2019-05-25T08:15:03Z</time>
      </trkpt>
      <trkpt lat="44.61164" lon="-0.29762">
        <ele>42.44</ele>
        <time>2019-05-25T08:15:18Z</time>
      </trkpt>
      <trkpt lat="44.61175" lon="-0.29763">
        <ele>41.47</ele>
        <time>2019-05-25T08:15:26Z</time>
      </trkpt>
      <trkpt lat="44.61176" lon="-0.29763">
        <ele>41.47</ele>
        <time>2019-05-25T08:15:27Z</time>
      </trkpt>
      <trkpt lat="44.61183" lon="-0.29763">
        <ele>42.92</ele>
        <time>2019-05-25T08:15:32Z</time>
      </trkpt>
      <trkpt lat="44.61189" lon="-0.29769">
        <ele>42.92</ele>
        <time>2019-05-25T08:15:39Z</time>
      </trkpt>
      <trkpt lat="44.61199" lon="-0.29769">
        <ele>41.47</ele>
        <time>2019-05-25T08:15:46Z</time>
      </trkpt>
      <trkpt lat="44.61204" lon="-0.29768">
        <ele>41.47</ele>
        <time>2019-05-25T08:15:50Z</time>
      </trkpt>
      <trkpt lat="44.61209" lon="-0.29764">
        <ele>41.47</ele>
        <time>2019-05-25T08:15:54Z</time>
      </trkpt>
      <trkpt lat="44.61212" lon="-0.29763">
        <ele>42.44</ele>
        <time>2019-05-25T08:15:56Z</time>
      </trkpt>
      <trkpt lat="44.61219" lon="-0.29761">
        <ele>42.44</ele>
        <time>2019-05-25T08:16:00Z</time>
      </trkpt>
      <trkpt lat="44.61232" lon="-0.29755">
        <ele>41.47</ele>
        <time>2019-05-25T08:16:11Z</time>
      </trkpt>
      <trkpt lat="44.61241" lon="-0.29755">
        <ele>41.47</ele>
        <time>2019-05-25T08:16:18Z</time>
      </trkpt>
      <trkpt lat="44.61263" lon="-0.29756">
        <ele>44.84</ele>
        <time>2019-05-25T08:16:38Z</time>
      </trkpt>
      <trkpt lat="44.61265" lon="-0.29756">
        <ele>44.84</ele>
        <time>2019-05-25T08:16:39Z</time>
      </trkpt>
      <trkpt lat="44.61281" lon="-0.29756">
        <ele>45.32</ele>
        <time>2019-05-25T08:16:53Z</time>
      </trkpt>
      <trkpt lat="44.61286" lon="-0.29756">
        <ele>43.88</ele>
        <time>2019-05-25T08:16:57Z</time>
      </trkpt>
      <trkpt lat="44.61289" lon="-0.29756">
        <ele>45.32</ele>
        <time>2019-05-25T08:16:59Z</time>
      </trkpt>
      <trkpt lat="44.6131" lon="-0.29746">
        <ele>45.8</ele>
        <time>2019-05-25T08:17:12Z</time>
      </trkpt>
      <trkpt lat="44.61316" lon="-0.29743">
        <ele>45.8</ele>
        <time>2019-05-25T08:17:19Z</time>
      </trkpt>
      <trkpt lat="44.61338" lon="-0.29731">
        <ele>45.8</ele>
        <time>2019-05-25T08:17:36Z</time>
      </trkpt>
      <trkpt lat="44.6135" lon="-0.29727">
        <ele>44.36</ele>
        <time>2019-05-25T08:17:47Z</time>
      </trkpt>
      <trkpt lat="44.61355" lon="-0.2972">
        <ele>44.84</ele>
        <time>2019-05-25T08:17:55Z</time>
      </trkpt>
      <trkpt lat="44.6136" lon="-0.29715">
        <ele>46.28</ele>
        <time>2019-05-25T08:18:03Z</time>
      </trkpt>
      <trkpt lat="44.61363" lon="-0.29713">
        <ele>46.28</ele>
        <time>2019-05-25T08:18:06Z</time>
      </trkpt>
      <trkpt lat="44.61384" lon="-0.29698">
        <ele>46.76</ele>
        <time>2019-05-25T08:18:25Z</time>
      </trkpt>
      <trkpt lat="44.61389" lon="-0.29695">
        <ele>44.84</ele>
        <time>2019-05-25T08:18:29Z</time>
      </trkpt>
      <trkpt lat="44.61404" lon="-0.29687">
        <ele>44.36</ele>
        <time>2019-05-25T08:18:44Z</time>
      </trkpt>
      <trkpt lat="44.61411" lon="-0.29684">
        <ele>43.88</ele>
        <time>2019-05-25T08:18:52Z</time>
      </trkpt>
      <trkpt lat="44.61416" lon="-0.29671">
        <ele>45.32</ele>
        <time>2019-05-25T08:19:06Z</time>
      </trkpt>
      <trkpt lat="44.61414" lon="-0.29666">
        <ele>47.24</ele>
        <time>2019-05-25T08:19:13Z</time>
      </trkpt>
      <trkpt lat="44.61407" lon="-0.29651">
        <ele>47.72</ele>
        <time>2019-05-25T08:19:29Z</time>
      </trkpt>
      <trkpt lat="44.6141" lon="-0.2964">
        <ele>45.8</ele>
        <time>2019-05-25T08:19:38Z</time>
      </trkpt>
      <trkpt lat="44.61416" lon="-0.29624">
        <ele>44.36</ele>
        <time>2019-05-25T08:19:53Z</time>
      </trkpt>
      <trkpt lat="44.6142" lon="-0.29615">
        <ele>43.4</ele>
        <time>2019-05-25T08:20:08Z</time>
      </trkpt>
      <trkpt lat="44.6142" lon="-0.29615">
        <ele>43.4</ele>
        <time>2019-05-25T08:20:09Z</time>
      </trkpt>
      <trkpt lat="44.61425" lon="-0.29607">
        <ele>42.44</ele>
        <time>2019-05-25T08:20:18Z</time>
      </trkpt>
      <trkpt lat="44.61428" lon="-0.296">
        <ele>41.95</ele>
        <time>2019-05-25T08:20:24Z</time>
      </trkpt>
      <trkpt lat="44.61435" lon="-0.296">
        <ele>39.55</ele>
        <time>2019-05-25T08:20:37Z</time>
      </trkpt>
      <trkpt lat="44.61444" lon="-0.29596">
        <ele>38.11</ele>
        <time>2019-05-25T08:20:50Z</time>
      </trkpt>
      <trkpt lat="44.61457" lon="-0.29598">
        <ele>36.19</ele>
        <time>2019-05-25T08:21:05Z</time>
      </trkpt>
      <trkpt lat="44.6146" lon="-0.29598">
        <ele>35.71</ele>
        <time>2019-05-25T08:21:25Z</time>
      </trkpt>
      <trkpt lat="44.61471" lon="-0.29595">
        <ele>34.26</ele>
        <time>2019-05-25T08:21:39Z</time>
      </trkpt>
      <trkpt lat="44.61472" lon="-0.29594">
        <ele>33.3</ele>
        <time>2019-05-25T08:21:41Z</time>
      </trkpt>
      <trkpt lat="44.61477" lon="-0.29591">
        <ele>32.82</ele>
        <time>2019-05-25T08:21:46Z</time>
      </trkpt>
      <trkpt lat="44.61481" lon="-0.29588">
        <ele>32.34</ele>
        <time>2019-05-25T08:21:50Z</time>
      </trkpt>
      <trkpt lat="44.61488" lon="-0.29578">
        <ele>30.9</ele>
        <time>2019-05-25T08:22:02Z</time>
      </trkpt>
      <trkpt lat="44.61491" lon="-0.29573">
        <ele>30.42</ele>
        <time>2019-05-25T08:22:08Z</time>
      </trkpt>
      <trkpt lat="44.61493" lon="-0.29569">
        <ele>29.46</ele>
        <time>2019-05-25T08:22:11Z</time>
      </trkpt>
      <trkpt lat="44.61503" lon="-0.29552">
        <ele>28.98</ele>
        <time>2019-05-25T08:22:25Z</time>
      </trkpt>
      <trkpt lat="44.61507" lon="-0.29542">
        <ele>28.98</ele>
        <time>2019-05-25T08:22:32Z</time>
      </trkpt>
      <trkpt lat="44.61524" lon="-0.29535">
        <ele>27.53</ele>
        <time>2019-05-25T08:22:46Z</time>
      </trkpt>
      <trkpt lat="44.61541" lon="-0.29537">
        <ele>26.57</ele>
        <time>2019-05-25T08:23:00Z</time>
      </trkpt>
      <trkpt lat="44.6156" lon="-0.29536">
        <ele>25.61</ele>
        <time>2019-05-25T08:23:16Z</time>
      </trkpt>
      <trkpt lat="44.61575" lon="-0.29532">
        <ele>25.13</ele>
        <time>2019-05-25T08:23:29Z</time>
      </trkpt>
      <trkpt lat="44.61591" lon="-0.29531">
        <ele>23.69</ele>
        <time>2019-05-25T08:23:42Z</time>
      </trkpt>
      <trkpt lat="44.61597" lon="-0.2953">
        <ele>23.69</ele>
        <time>2019-05-25T08:23:46Z</time>
      </trkpt>
      <trkpt lat="44.61601" lon="-0.29529">
        <ele>24.65</ele>
        <time>2019-05-25T08:23:49Z</time>
      </trkpt>
      <trkpt lat="44.61603" lon="-0.29529">
        <ele>23.69</ele>
        <time>2019-05-25T08:23:51Z</time>
      </trkpt>
      <trkpt lat="44.61613" lon="-0.29526">
        <ele>23.69</ele>
        <time>2019-05-25T08:23:59Z</time>
      </trkpt>
      <trkpt lat="44.61628" lon="-0.29525">
        <ele>22.73</ele>
        <time>2019-05-25T08:24:11Z</time>
      </trkpt>
      <trkpt lat="44.61631" lon="-0.29525">
        <ele>22.25</ele>
        <time>2019-05-25T08:24:13Z</time>
      </trkpt>
      <trkpt lat="44.61642" lon="-0.29524">
        <ele>22.25</ele>
        <time>2019-05-25T08:24:23Z</time>
      </trkpt>
      <trkpt lat="44.61656" lon="-0.29525">
        <ele>20.81</ele>
        <time>2019-05-25T08:24:33Z</time>
      </trkpt>
      <trkpt lat="44.6166" lon="-0.29525">
        <ele>21.77</ele>
        <time>2019-05-25T08:24:36Z</time>
      </trkpt>
      <trkpt lat="44.61662" lon="-0.29524">
        <ele>21.77</ele>
        <time>2019-05-25T08:24:38Z</time>
      </trkpt>
      <trkpt lat="44.61674" lon="-0.29523">
        <ele>19.84</ele>
        <time>2019-05-25T08:24:47Z</time>
      </trkpt>
      <trkpt lat="44.61679" lon="-0.29522">
        <ele>19.36</ele>
        <time>2019-05-25T08:24:52Z</time>
      </trkpt>
      <trkpt lat="44.61691" lon="-0.29524">
        <ele>19.36</ele>
        <time>2019-05-25T08:25:01Z</time>
      </trkpt>
      <trkpt lat="44.61707" lon="-0.29527">
        <ele>18.4</ele>
        <time>2019-05-25T08:25:14Z</time>
      </trkpt>
      <trkpt lat="44.61708" lon="-0.29528">
        <ele>18.4</ele>
        <time>2019-05-25T08:25:15Z</time>
      </trkpt>
      <trkpt lat="44.61723" lon="-0.29528">
        <ele>17.44</ele>
        <time>2019-05-25T08:25:28Z</time>
      </trkpt>
      <trkpt lat="44.61737" lon="-0.29526">
        <ele>16.96</ele>
        <time>2019-05-25T08:25:40Z</time>
      </trkpt>
      <trkpt lat="44.61749" lon="-0.29527">
        <ele>17.44</ele>
        <time>2019-05-25T08:25:51Z</time>
      </trkpt>
      <trkpt lat="44.6175" lon="-0.29528">
        <ele>17.44</ele>
        <time>2019-05-25T08:25:52Z</time>
      </trkpt>
      <trkpt lat="44.61762" lon="-0.29532">
        <ele>16.96</ele>
        <time>2019-05-25T08:26:04Z</time>
      </trkpt>
      <trkpt lat="44.61764" lon="-0.29534">
        <ele>15.52</ele>
        <time>2019-05-25T08:26:06Z</time>
      </trkpt>
      <trkpt lat="44.6178" lon="-0.29547">
        <ele>14.56</ele>
        <time>2019-05-25T08:26:22Z</time>
      </trkpt>
      <trkpt lat="44.61794" lon="-0.29563">
        <ele>13.12</ele>
        <time>2019-05-25T08:26:39Z</time>
      </trkpt>
      <trkpt lat="44.61808" lon="-0.29579">
        <ele>12.15</ele>
        <time>2019-05-25T08:26:55Z</time>
      </trkpt>
      <trkpt lat="44.61818" lon="-0.29588">
        <ele>11.19</ele>
        <time>2019-05-25T08:27:08Z</time>
      </trkpt>
      <trkpt lat="44.61841" lon="-0.29599">
        <ele>9.75</ele>
        <time>2019-05-25T08:27:25Z</time>
      </trkpt>
      <trkpt lat="44.61843" lon="-0.29598">
        <ele>9.75</ele>
        <time>2019-05-25T08:27:32Z</time>
      </trkpt>
      <trkpt lat="44.61854" lon="-0.2958">
        <ele>10.71</ele>
        <time>2019-05-25T08:27:48Z</time>
      </trkpt>
      <trkpt lat="44.61856" lon="-0.29575">
        <ele>10.71</ele>
        <time>2019-05-25T08:27:51Z</time>
      </trkpt>
      <trkpt lat="44.61868" lon="-0.29566">
        <ele>10.71</ele>
        <time>2019-05-25T08:28:04Z</time>
      </trkpt>
      <trkpt lat="44.61873" lon="-0.29561">
        <ele>10.71</ele>
        <time>2019-05-25T08:28:10Z</time>
      </trkpt>
      <trkpt lat="44.61884" lon="-0.29543">
        <ele>9.27</ele>
        <time>2019-05-25T08:28:25Z</time>
      </trkpt>
      <trkpt lat="44.61894" lon="-0.29522">
        <ele>8.79</ele>
        <time>2019-05-25T08:28:42Z</time>
      </trkpt>
      <trkpt lat="44.61883" lon="-0.29504">
        <ele>9.75</ele>
        <time>2019-05-25T08:29:02Z</time>
      </trkpt>
      <trkpt lat="44.61879" lon="-0.29506">
        <ele>11.19</ele>
        <time>2019-05-25T08:29:18Z</time>
      </trkpt>
      <trkpt lat="44.61878" lon="-0.29494">
        <ele>11.19</ele>
        <time>2019-05-25T08:29:31Z</time>
      </trkpt>
      <trkpt lat="44.61883" lon="-0.29466">
        <ele>11.67</ele>
        <time>2019-05-25T08:29:49Z</time>
      </trkpt>
      <trkpt lat="44.61884" lon="-0.29457">
        <ele>13.12</ele>
        <time>2019-05-25T08:29:54Z</time>
      </trkpt>
      <trkpt lat="44.61888" lon="-0.29447">
        <ele>12.15</ele>
        <time>2019-05-25T08:30:00Z</time>
      </trkpt>
      <trkpt lat="44.61889" lon="-0.29438">
        <ele>14.08</ele>
        <time>2019-05-25T08:30:06Z</time>
      </trkpt>
      <trkpt lat="44.6189" lon="-0.29432">
        <ele>12.63</ele>
        <time>2019-05-25T08:30:09Z</time>
      </trkpt>
      <trkpt lat="44.61891" lon="-0.29429">
        <ele>14.08</ele>
        <time>2019-05-25T08:30:11Z</time>
      </trkpt>
      <trkpt lat="44.61891" lon="-0.29424">
        <ele>15.04</ele>
        <time>2019-05-25T08:30:14Z</time>
      </trkpt>
      <trkpt lat="44.61892" lon="-0.29419">
        <ele>14.08</ele>
        <time>2019-05-25T08:30:17Z</time>
      </trkpt>
      <trkpt lat="44.61897" lon="-0.29391">
        <ele>16</ele>
        <time>2019-05-25T08:30:33Z</time>
      </trkpt>
      <trkpt lat="44.61902" lon="-0.29362">
        <ele>16</ele>
        <time>2019-05-25T08:30:48Z</time>
      </trkpt>
      <trkpt lat="44.61903" lon="-0.29349">
        <ele>16.48</ele>
        <time>2019-05-25T08:30:56Z</time>
      </trkpt>
      <trkpt lat="44.61894" lon="-0.29313">
        <ele>17.44</ele>
        <time>2019-05-25T08:31:16Z</time>
      </trkpt>
      <trkpt lat="44.61876" lon="-0.29295">
        <ele>18.4</ele>
        <time>2019-05-25T08:31:30Z</time>
      </trkpt>
      <trkpt lat="44.61861" lon="-0.29276">
        <ele>18.88</ele>
        <time>2019-05-25T08:31:46Z</time>
      </trkpt>
      <trkpt lat="44.61862" lon="-0.29272">
        <ele>18.4</ele>
        <time>2019-05-25T08:32:02Z</time>
      </trkpt>
      <trkpt lat="44.61868" lon="-0.29277">
        <ele>18.88</ele>
        <time>2019-05-25T08:32:29Z</time>
      </trkpt>
      <trkpt lat="44.61871" lon="-0.29282">
        <ele>18.88</ele>
        <time>2019-05-25T08:32:46Z</time>
      </trkpt>
      <trkpt lat="44.61876" lon="-0.29288">
        <ele>18.88</ele>
        <time>2019-05-25T08:33:09Z</time>
      </trkpt>
      <trkpt lat="44.6189" lon="-0.29299">
        <ele>17.44</ele>
        <time>2019-05-25T08:33:23Z</time>
      </trkpt>
      <trkpt lat="44.61898" lon="-0.29314">
        <ele>16.96</ele>
        <time>2019-05-25T08:33:36Z</time>
      </trkpt>
      <trkpt lat="44.61903" lon="-0.29329">
        <ele>16.48</ele>
        <time>2019-05-25T08:33:47Z</time>
      </trkpt>
      <trkpt lat="44.61903" lon="-0.29336">
        <ele>16.48</ele>
        <time>2019-05-25T08:33:51Z</time>
      </trkpt>
      <trkpt lat="44.61906" lon="-0.29342">
        <ele>15.52</ele>
        <time>2019-05-25T08:33:58Z</time>
      </trkpt>
      <trkpt lat="44.61907" lon="-0.2934">
        <ele>15.52</ele>
        <time>2019-05-25T08:34:00Z</time>
      </trkpt>
      <trkpt lat="44.61907" lon="-0.29316">
        <ele>13.6</ele>
        <time>2019-05-25T08:34:17Z</time>
      </trkpt>
      <trkpt lat="44.61907" lon="-0.29301">
        <ele>12.63</ele>
        <time>2019-05-25T08:34:33Z</time>
      </trkpt>
      <trkpt lat="44.61907" lon="-0.29286">
        <ele>12.15</ele>
        <time>2019-05-25T08:34:44Z</time>
      </trkpt>
      <trkpt lat="44.61912" lon="-0.29274">
        <ele>11.19</ele>
        <time>2019-05-25T08:34:59Z</time>
      </trkpt>
      <trkpt lat="44.6192" lon="-0.29268">
        <ele>10.71</ele>
        <time>2019-05-25T08:35:14Z</time>
      </trkpt>
      <trkpt lat="44.61927" lon="-0.2926">
        <ele>9.75</ele>
        <time>2019-05-25T08:35:21Z</time>
      </trkpt>
      <trkpt lat="44.61954" lon="-0.29247">
        <ele>9.27</ele>
        <time>2019-05-25T08:35:42Z</time>
      </trkpt>
      <trkpt lat="44.61955" lon="-0.29246">
        <ele>9.27</ele>
        <time>2019-05-25T08:35:43Z</time>
      </trkpt>
      <trkpt lat="44.6196" lon="-0.29231">
        <ele>9.75</ele>
        <time>2019-05-25T08:35:52Z</time>
      </trkpt>
      <trkpt lat="44.61954" lon="-0.29217">
        <ele>9.75</ele>
        <time>2019-05-25T08:36:01Z</time>
      </trkpt>
      <trkpt lat="44.61954" lon="-0.292">
        <ele>9.75</ele>
        <time>2019-05-25T08:36:15Z</time>
      </trkpt>
      <trkpt lat="44.61956" lon="-0.29198">
        <ele>10.23</ele>
        <time>2019-05-25T08:36:18Z</time>
      </trkpt>
      <trkpt lat="44.61958" lon="-0.29197">
        <ele>9.75</ele>
        <time>2019-05-25T08:36:20Z</time>
      </trkpt>
      <trkpt lat="44.61965" lon="-0.29191">
        <ele>9.75</ele>
        <time>2019-05-25T08:36:30Z</time>
      </trkpt>
      <trkpt lat="44.61967" lon="-0.2919">
        <ele>9.75</ele>
        <time>2019-05-25T08:36:32Z</time>
      </trkpt>
      <trkpt lat="44.61985" lon="-0.29185">
        <ele>10.23</ele>
        <time>2019-05-25T08:36:48Z</time>
      </trkpt>
      <trkpt lat="44.62005" lon="-0.29183">
        <ele>11.67</ele>
        <time>2019-05-25T08:37:05Z</time>
      </trkpt>
      <trkpt lat="44.6203" lon="-0.29177">
        <ele>13.6</ele>
        <time>2019-05-25T08:37:25Z</time>
      </trkpt>
      <trkpt lat="44.62046" lon="-0.29173">
        <ele>15.04</ele>
        <time>2019-05-25T08:37:38Z</time>
      </trkpt>
      <trkpt lat="44.62062" lon="-0.29169">
        <ele>16.96</ele>
        <time>2019-05-25T08:37:53Z</time>
      </trkpt>
      <trkpt lat="44.62077" lon="-0.29166">
        <ele>19.36</ele>
        <time>2019-05-25T08:38:07Z</time>
      </trkpt>
      <trkpt lat="44.62087" lon="-0.29165">
        <ele>21.77</ele>
        <time>2019-05-25T08:38:17Z</time>
      </trkpt>
      <trkpt lat="44.62101" lon="-0.2916">
        <ele>22.25</ele>
        <time>2019-05-25T08:38:30Z</time>
      </trkpt>
      <trkpt lat="44.62121" lon="-0.29161">
        <ele>24.65</ele>
        <time>2019-05-25T08:38:49Z</time>
      </trkpt>
      <trkpt lat="44.62129" lon="-0.29156">
        <ele>24.65</ele>
        <time>2019-05-25T08:39:06Z</time>
      </trkpt>
      <trkpt lat="44.62128" lon="-0.29147">
        <ele>26.57</ele>
        <time>2019-05-25T08:39:20Z</time>
      </trkpt>
      <trkpt lat="44.62128" lon="-0.29145">
        <ele>25.13</ele>
        <time>2019-05-25T08:39:32Z</time>
      </trkpt>
      <trkpt lat="44.62126" lon="-0.29139">
        <ele>25.13</ele>
        <time>2019-05-25T08:39:38Z</time>
      </trkpt>
      <trkpt lat="44.62124" lon="-0.29109">
        <ele>25.13</ele>
        <time>2019-05-25T08:39:54Z</time>
      </trkpt>
      <trkpt lat="44.62123" lon="-0.29083">
        <ele>25.13</ele>
        <time>2019-05-25T08:40:08Z</time>
      </trkpt>
      <trkpt lat="44.62123" lon="-0.29059">
        <ele>24.65</ele>
        <time>2019-05-25T08:40:22Z</time>
      </trkpt>
      <trkpt lat="44.62124" lon="-0.29032">
        <ele>24.65</ele>
        <time>2019-05-25T08:40:37Z</time>
      </trkpt>
      <trkpt lat="44.62125" lon="-0.29006">
        <ele>26.09</ele>
        <time>2019-05-25T08:40:52Z</time>
      </trkpt>
      <trkpt lat="44.62125" lon="-0.28979">
        <ele>26.57</ele>
        <time>2019-05-25T08:41:08Z</time>
      </trkpt>
      <trkpt lat="44.62125" lon="-0.28957">
        <ele>26.09</ele>
        <time>2019-05-25T08:41:21Z</time>
      </trkpt>
      <trkpt lat="44.62126" lon="-0.28943">
        <ele>25.61</ele>
        <time>2019-05-25T08:41:28Z</time>
      </trkpt>
      <trkpt lat="44.62125" lon="-0.28939">
        <ele>27.05</ele>
        <time>2019-05-25T08:41:30Z</time>
      </trkpt>
      <trkpt lat="44.62127" lon="-0.28912">
        <ele>25.61</ele>
        <time>2019-05-25T08:41:44Z</time>
      </trkpt>
      <trkpt lat="44.62128" lon="-0.28887">
        <ele>25.61</ele>
        <time>2019-05-25T08:41:57Z</time>
      </trkpt>
      <trkpt lat="44.62127" lon="-0.28866">
        <ele>24.65</ele>
        <time>2019-05-25T08:42:11Z</time>
      </trkpt>
      <trkpt lat="44.62126" lon="-0.28853">
        <ele>24.65</ele>
        <time>2019-05-25T08:42:18Z</time>
      </trkpt>
      <trkpt lat="44.62125" lon="-0.28842">
        <ele>24.17</ele>
        <time>2019-05-25T08:42:26Z</time>
      </trkpt>
      <trkpt lat="44.62126" lon="-0.28837">
        <ele>24.17</ele>
        <time>2019-05-25T08:42:29Z</time>
      </trkpt>
      <trkpt lat="44.62126" lon="-0.28826">
        <ele>24.17</ele>
        <time>2019-05-25T08:42:35Z</time>
      </trkpt>
      <trkpt lat="44.62133" lon="-0.2882">
        <ele>25.61</ele>
        <time>2019-05-25T08:42:47Z</time>
      </trkpt>
      <trkpt lat="44.62135" lon="-0.2882">
        <ele>25.61</ele>
        <time>2019-05-25T08:42:49Z</time>
      </trkpt>
      <trkpt lat="44.62148" lon="-0.28818">
        <ele>27.05</ele>
        <time>2019-05-25T08:42:59Z</time>
      </trkpt>
      <trkpt lat="44.62153" lon="-0.28818">
        <ele>28.5</ele>
        <time>2019-05-25T08:43:04Z</time>
      </trkpt>
      <trkpt lat="44.62157" lon="-0.28818">
        <ele>27.53</ele>
        <time>2019-05-25T08:43:08Z</time>
      </trkpt>
      <trkpt lat="44.62163" lon="-0.28806">
        <ele>28.02</ele>
        <time>2019-05-25T08:43:23Z</time>
      </trkpt>
      <trkpt lat="44.62163" lon="-0.28805">
        <ele>28.02</ele>
        <time>2019-05-25T08:43:24Z</time>
      </trkpt>
      <trkpt lat="44.62164" lon="-0.28797">
        <ele>28.98</ele>
        <time>2019-05-25T08:43:31Z</time>
      </trkpt>
      <trkpt lat="44.62168" lon="-0.28795">
        <ele>28.5</ele>
        <time>2019-05-25T08:43:36Z</time>
      </trkpt>
      <trkpt lat="44.6217" lon="-0.28796">
        <ele>29.94</ele>
        <time>2019-05-25T08:43:39Z</time>
      </trkpt>
      <trkpt lat="44.62174" lon="-0.28796">
        <ele>31.38</ele>
        <time>2019-05-25T08:43:44Z</time>
      </trkpt>
      <trkpt lat="44.62177" lon="-0.28798">
        <ele>32.34</ele>
        <time>2019-05-25T08:43:47Z</time>
      </trkpt>
      <trkpt lat="44.62183" lon="-0.28798">
        <ele>32.82</ele>
        <time>2019-05-25T08:43:52Z</time>
      </trkpt>
      <trkpt lat="44.62186" lon="-0.28798">
        <ele>31.38</ele>
        <time>2019-05-25T08:43:54Z</time>
      </trkpt>
      <trkpt lat="44.622" lon="-0.28799">
        <ele>34.26</ele>
        <time>2019-05-25T08:44:07Z</time>
      </trkpt>
      <trkpt lat="44.62204" lon="-0.28799">
        <ele>34.26</ele>
        <time>2019-05-25T08:44:10Z</time>
      </trkpt>
      <trkpt lat="44.62206" lon="-0.28799">
        <ele>35.71</ele>
        <time>2019-05-25T08:44:12Z</time>
      </trkpt>
      <trkpt lat="44.62221" lon="-0.28798">
        <ele>36.67</ele>
        <time>2019-05-25T08:44:26Z</time>
      </trkpt>
      <trkpt lat="44.62225" lon="-0.28799">
        <ele>38.59</ele>
        <time>2019-05-25T08:44:30Z</time>
      </trkpt>
      <trkpt lat="44.62229" lon="-0.28796">
        <ele>39.07</ele>
        <time>2019-05-25T08:44:36Z</time>
      </trkpt>
      <trkpt lat="44.6223" lon="-0.28786">
        <ele>37.63</ele>
        <time>2019-05-25T08:44:42Z</time>
      </trkpt>
      <trkpt lat="44.62228" lon="-0.2876">
        <ele>36.19</ele>
        <time>2019-05-25T08:44:57Z</time>
      </trkpt>
      <trkpt lat="44.62229" lon="-0.2874">
        <ele>37.63</ele>
        <time>2019-05-25T08:45:08Z</time>
      </trkpt>
      <trkpt lat="44.6223" lon="-0.28737">
        <ele>36.67</ele>
        <time>2019-05-25T08:45:10Z</time>
      </trkpt>
      <trkpt lat="44.6223" lon="-0.28712">
        <ele>37.15</ele>
        <time>2019-05-25T08:45:24Z</time>
      </trkpt>
      <trkpt lat="44.62231" lon="-0.28706">
        <ele>37.15</ele>
        <time>2019-05-25T08:45:28Z</time>
      </trkpt>
      <trkpt lat="44.62232" lon="-0.28694">
        <ele>36.67</ele>
        <time>2019-05-25T08:45:43Z</time>
      </trkpt>
      <trkpt lat="44.62228" lon="-0.28691">
        <ele>36.19</ele>
        <time>2019-05-25T08:45:59Z</time>
      </trkpt>
      <trkpt lat="44.62219" lon="-0.28682">
        <ele>36.19</ele>
        <time>2019-05-25T08:46:16Z</time>
      </trkpt>
      <trkpt lat="44.62213" lon="-0.28679">
        <ele>35.71</ele>
        <time>2019-05-25T08:46:22Z</time>
      </trkpt>
      <trkpt lat="44.62199" lon="-0.28664">
        <ele>34.26</ele>
        <time>2019-05-25T08:46:39Z</time>
      </trkpt>
      <trkpt lat="44.62192" lon="-0.28657">
        <ele>32.82</ele>
        <time>2019-05-25T08:46:47Z</time>
      </trkpt>
      <trkpt lat="44.6219" lon="-0.28655">
        <ele>32.82</ele>
        <time>2019-05-25T08:46:49Z</time>
      </trkpt>
      <trkpt lat="44.62185" lon="-0.28649">
        <ele>31.86</ele>
        <time>2019-05-25T08:46:55Z</time>
      </trkpt>
      <trkpt lat="44.62183" lon="-0.28644">
        <ele>31.86</ele>
        <time>2019-05-25T08:46:59Z</time>
      </trkpt>
      <trkpt lat="44.62182" lon="-0.28641">
        <ele>31.38</ele>
        <time>2019-05-25T08:47:01Z</time>
      </trkpt>
      <trkpt lat="44.62179" lon="-0.2862">
        <ele>28.98</ele>
        <time>2019-05-25T08:47:15Z</time>
      </trkpt>
      <trkpt lat="44.62179" lon="-0.28613">
        <ele>28.02</ele>
        <time>2019-05-25T08:47:20Z</time>
      </trkpt>
      <trkpt lat="44.62179" lon="-0.28598">
        <ele>25.61</ele>
        <time>2019-05-25T08:47:30Z</time>
      </trkpt>
      <trkpt lat="44.62173" lon="-0.2858">
        <ele>24.65</ele>
        <time>2019-05-25T08:47:45Z</time>
      </trkpt>
      <trkpt lat="44.62172" lon="-0.28571">
        <ele>23.69</ele>
        <time>2019-05-25T08:47:51Z</time>
      </trkpt>
      <trkpt lat="44.62167" lon="-0.28552">
        <ele>23.21</ele>
        <time>2019-05-25T08:48:05Z</time>
      </trkpt>
      <trkpt lat="44.62164" lon="-0.28547">
        <ele>23.21</ele>
        <time>2019-05-25T08:48:09Z</time>
      </trkpt>
      <trkpt lat="44.62159" lon="-0.28543">
        <ele>22.25</ele>
        <time>2019-05-25T08:48:14Z</time>
      </trkpt>
      <trkpt lat="44.62151" lon="-0.28534">
        <ele>21.77</ele>
        <time>2019-05-25T08:48:23Z</time>
      </trkpt>
      <trkpt lat="44.62143" lon="-0.2852">
        <ele>21.77</ele>
        <time>2019-05-25T08:48:38Z</time>
      </trkpt>
      <trkpt lat="44.62144" lon="-0.28511">
        <ele>23.21</ele>
        <time>2019-05-25T08:48:44Z</time>
      </trkpt>
      <trkpt lat="44.62145" lon="-0.28506">
        <ele>23.21</ele>
        <time>2019-05-25T08:48:47Z</time>
      </trkpt>
      <trkpt lat="44.62145" lon="-0.28487">
        <ele>23.69</ele>
        <time>2019-05-25T08:49:01Z</time>
      </trkpt>
      <trkpt lat="44.62145" lon="-0.28482">
        <ele>23.21</ele>
        <time>2019-05-25T08:49:05Z</time>
      </trkpt>
      <trkpt lat="44.62132" lon="-0.28466">
        <ele>23.69</ele>
        <time>2019-05-25T08:49:21Z</time>
      </trkpt>
      <trkpt lat="44.6213" lon="-0.28463">
        <ele>22.25</ele>
        <time>2019-05-25T08:49:24Z</time>
      </trkpt>
      <trkpt lat="44.62125" lon="-0.28443">
        <ele>23.69</ele>
        <time>2019-05-25T08:49:38Z</time>
      </trkpt>
      <trkpt lat="44.62126" lon="-0.28439">
        <ele>23.69</ele>
        <time>2019-05-25T08:49:59Z</time>
      </trkpt>
      <trkpt lat="44.62129" lon="-0.28435">
        <ele>24.17</ele>
        <time>2019-05-25T08:50:20Z</time>
      </trkpt>
      <trkpt lat="44.6213" lon="-0.28434">
        <ele>24.17</ele>
        <time>2019-05-25T08:50:46Z</time>
      </trkpt>
      <trkpt lat="44.62126" lon="-0.28437">
        <ele>24.17</ele>
        <time>2019-05-25T08:51:11Z</time>
      </trkpt>
      <trkpt lat="44.62126" lon="-0.28436">
        <ele>22.73</ele>
        <time>2019-05-25T08:51:35Z</time>
      </trkpt>
      <trkpt lat="44.62124" lon="-0.2844">
        <ele>22.73</ele>
        <time>2019-05-25T08:51:53Z</time>
      </trkpt>
      <trkpt lat="44.62127" lon="-0.2844">
        <ele>23.69</ele>
        <time>2019-05-25T08:52:06Z</time>
      </trkpt>
      <trkpt lat="44.62125" lon="-0.28435">
        <ele>23.69</ele>
        <time>2019-05-25T08:52:24Z</time>
      </trkpt>
      <trkpt lat="44.62126" lon="-0.28435">
        <ele>23.69</ele>
        <time>2019-05-25T08:52:57Z</time>
      </trkpt>
      <trkpt lat="44.62125" lon="-0.28436">
        <ele>23.69</ele>
        <time>2019-05-25T08:53:29Z</time>
      </trkpt>
      <trkpt lat="44.62126" lon="-0.28436">
        <ele>23.69</ele>
        <time>2019-05-25T08:53:43Z</time>
      </trkpt>
      <trkpt lat="44.62128" lon="-0.28441">
        <ele>23.69</ele>
        <time>2019-05-25T08:54:12Z</time>
      </trkpt>
      <trkpt lat="44.62127" lon="-0.2844">
        <ele>23.69</ele>
        <time>2019-05-25T08:54:43Z</time>
      </trkpt>
      <trkpt lat="44.62126" lon="-0.28439">
        <ele>23.69</ele>
        <time>2019-05-25T08:55:17Z</time>
      </trkpt>
      <trkpt lat="44.62127" lon="-0.28441">
        <ele>23.69</ele>
        <time>2019-05-25T08:55:57Z</time>
      </trkpt>
      <trkpt lat="44.62127" lon="-0.2844">
        <ele>23.69</ele>
        <time>2019-05-25T08:56:23Z</time>
      </trkpt>
      <trkpt lat="44.62128" lon="-0.28439">
        <ele>23.69</ele>
        <time>2019-05-25T08:56:55Z</time>
      </trkpt>
      <trkpt lat="44.62129" lon="-0.28439">
        <ele>22.73</ele>
        <time>2019-05-25T08:56:57Z</time>
      </trkpt>
      <trkpt lat="44.62132" lon="-0.2844">
        <ele>23.69</ele>
        <time>2019-05-25T08:57:23Z</time>
      </trkpt>
      <trkpt lat="44.62133" lon="-0.2844">
        <ele>22.73</ele>
        <time>2019-05-25T08:57:49Z</time>
      </trkpt>
      <trkpt lat="44.62133" lon="-0.28442">
        <ele>22.73</ele>
        <time>2019-05-25T08:58:28Z</time>
      </trkpt>
      <trkpt lat="44.62133" lon="-0.28441">
        <ele>22.73</ele>
        <time>2019-05-25T08:59:00Z</time>
      </trkpt>
      <trkpt lat="44.6213" lon="-0.28439">
        <ele>23.69</ele>
        <time>2019-05-25T08:59:15Z</time>
      </trkpt>
      <trkpt lat="44.62132" lon="-0.2844">
        <ele>23.69</ele>
        <time>2019-05-25T08:59:44Z</time>
      </trkpt>
      <trkpt lat="44.62133" lon="-0.28438">
        <ele>23.69</ele>
        <time>2019-05-25T09:00:09Z</time>
      </trkpt>
      <trkpt lat="44.62131" lon="-0.28437">
        <ele>23.69</ele>
        <time>2019-05-25T09:00:35Z</time>
      </trkpt>
      <trkpt lat="44.62135" lon="-0.28438">
        <ele>23.69</ele>
        <time>2019-05-25T09:01:01Z</time>
      </trkpt>
      <trkpt lat="44.62138" lon="-0.28438">
        <ele>24.65</ele>
        <time>2019-05-25T09:01:07Z</time>
      </trkpt>
      <trkpt lat="44.62146" lon="-0.28437">
        <ele>26.09</ele>
        <time>2019-05-25T09:01:16Z</time>
      </trkpt>
      <trkpt lat="44.62148" lon="-0.28438">
        <ele>26.09</ele>
        <time>2019-05-25T09:01:17Z</time>
      </trkpt>
      <trkpt lat="44.62151" lon="-0.28438">
        <ele>26.09</ele>
        <time>2019-05-25T09:01:20Z</time>
      </trkpt>
      <trkpt lat="44.62154" lon="-0.28438">
        <ele>26.09</ele>
        <time>2019-05-25T09:01:23Z</time>
      </trkpt>
      <trkpt lat="44.62163" lon="-0.28439">
        <ele>26.09</ele>
        <time>2019-05-25T09:01:32Z</time>
      </trkpt>
      <trkpt lat="44.62167" lon="-0.28439">
        <ele>28.02</ele>
        <time>2019-05-25T09:01:37Z</time>
      </trkpt>
      <trkpt lat="44.62177" lon="-0.28438">
        <ele>27.53</ele>
        <time>2019-05-25T09:01:47Z</time>
      </trkpt>
      <trkpt lat="44.62181" lon="-0.28438">
        <ele>28.98</ele>
        <time>2019-05-25T09:01:50Z</time>
      </trkpt>
      <trkpt lat="44.62188" lon="-0.28438">
        <ele>30.9</ele>
        <time>2019-05-25T09:01:57Z</time>
      </trkpt>
      <trkpt lat="44.62196" lon="-0.28432">
        <ele>31.86</ele>
        <time>2019-05-25T09:02:09Z</time>
      </trkpt>
      <trkpt lat="44.62196" lon="-0.28426">
        <ele>32.82</ele>
        <time>2019-05-25T09:02:14Z</time>
      </trkpt>
      <trkpt lat="44.62197" lon="-0.28413">
        <ele>35.23</ele>
        <time>2019-05-25T09:02:27Z</time>
      </trkpt>
      <trkpt lat="44.62197" lon="-0.28409">
        <ele>34.74</ele>
        <time>2019-05-25T09:02:31Z</time>
      </trkpt>
      <trkpt lat="44.62198" lon="-0.28405">
        <ele>36.19</ele>
        <time>2019-05-25T09:02:34Z</time>
      </trkpt>
      <trkpt lat="44.62198" lon="-0.28399">
        <ele>36.19</ele>
        <time>2019-05-25T09:02:38Z</time>
      </trkpt>
      <trkpt lat="44.62198" lon="-0.28373">
        <ele>39.55</ele>
        <time>2019-05-25T09:02:54Z</time>
      </trkpt>
      <trkpt lat="44.62199" lon="-0.28352">
        <ele>40.99</ele>
        <time>2019-05-25T09:03:08Z</time>
      </trkpt>
      <trkpt lat="44.62199" lon="-0.28334">
        <ele>41.95</ele>
        <time>2019-05-25T09:03:23Z</time>
      </trkpt>
      <trkpt lat="44.622" lon="-0.28326">
        <ele>42.92</ele>
        <time>2019-05-25T09:03:29Z</time>
      </trkpt>
      <trkpt lat="44.62201" lon="-0.28301">
        <ele>43.4</ele>
        <time>2019-05-25T09:03:44Z</time>
      </trkpt>
      <trkpt lat="44.62201" lon="-0.28295">
        <ele>43.4</ele>
        <time>2019-05-25T09:03:48Z</time>
      </trkpt>
      <trkpt lat="44.62201" lon="-0.28291">
        <ele>42.92</ele>
        <time>2019-05-25T09:03:51Z</time>
      </trkpt>
      <trkpt lat="44.62201" lon="-0.28285">
        <ele>42.92</ele>
        <time>2019-05-25T09:03:55Z</time>
      </trkpt>
      <trkpt lat="44.622" lon="-0.28256">
        <ele>44.36</ele>
        <time>2019-05-25T09:04:12Z</time>
      </trkpt>
      <trkpt lat="44.622" lon="-0.28251">
        <ele>44.36</ele>
        <time>2019-05-25T09:04:15Z</time>
      </trkpt>
      <trkpt lat="44.622" lon="-0.28228">
        <ele>44.36</ele>
        <time>2019-05-25T09:04:29Z</time>
      </trkpt>
      <trkpt lat="44.62199" lon="-0.28205">
        <ele>44.36</ele>
        <time>2019-05-25T09:04:43Z</time>
      </trkpt>
      <trkpt lat="44.62198" lon="-0.28179">
        <ele>42.44</ele>
        <time>2019-05-25T09:04:59Z</time>
      </trkpt>
      <trkpt lat="44.62197" lon="-0.28167">
        <ele>42.44</ele>
        <time>2019-05-25T09:05:14Z</time>
      </trkpt>
      <trkpt lat="44.62195" lon="-0.28164">
        <ele>41.95</ele>
        <time>2019-05-25T09:05:33Z</time>
      </trkpt>
      <trkpt lat="44.62195" lon="-0.28151">
        <ele>40.99</ele>
        <time>2019-05-25T09:05:46Z</time>
      </trkpt>
      <trkpt lat="44.62197" lon="-0.28141">
        <ele>40.51</ele>
        <time>2019-05-25T09:06:02Z</time>
      </trkpt>
      <trkpt lat="44.62198" lon="-0.28127">
        <ele>40.03</ele>
        <time>2019-05-25T09:06:15Z</time>
      </trkpt>
      <trkpt lat="44.62202" lon="-0.28105">
        <ele>40.03</ele>
        <time>2019-05-25T09:06:31Z</time>
      </trkpt>
      <trkpt lat="44.62206" lon="-0.28083">
        <ele>39.55</ele>
        <time>2019-05-25T09:06:45Z</time>
      </trkpt>
      <trkpt lat="44.6221" lon="-0.28056">
        <ele>40.51</ele>
        <time>2019-05-25T09:07:01Z</time>
      </trkpt>
      <trkpt lat="44.62212" lon="-0.28048">
        <ele>38.59</ele>
        <time>2019-05-25T09:07:06Z</time>
      </trkpt>
      <trkpt lat="44.62214" lon="-0.28031">
        <ele>40.03</ele>
        <time>2019-05-25T09:07:16Z</time>
      </trkpt>
      <trkpt lat="44.62215" lon="-0.28023">
        <ele>38.59</ele>
        <time>2019-05-25T09:07:25Z</time>
      </trkpt>
      <trkpt lat="44.62215" lon="-0.28005">
        <ele>38.11</ele>
        <time>2019-05-25T09:07:37Z</time>
      </trkpt>
      <trkpt lat="44.62215" lon="-0.27985">
        <ele>36.67</ele>
        <time>2019-05-25T09:07:51Z</time>
      </trkpt>
      <trkpt lat="44.62201" lon="-0.27981">
        <ele>35.71</ele>
        <time>2019-05-25T09:08:04Z</time>
      </trkpt>
      <trkpt lat="44.62185" lon="-0.2798">
        <ele>33.78</ele>
        <time>2019-05-25T09:08:19Z</time>
      </trkpt>
      <trkpt lat="44.62176" lon="-0.27979">
        <ele>31.38</ele>
        <time>2019-05-25T09:08:26Z</time>
      </trkpt>
      <trkpt lat="44.62156" lon="-0.27978">
        <ele>28.5</ele>
        <time>2019-05-25T09:08:41Z</time>
      </trkpt>
      <trkpt lat="44.62138" lon="-0.27977">
        <ele>25.61</ele>
        <time>2019-05-25T09:08:54Z</time>
      </trkpt>
      <trkpt lat="44.62124" lon="-0.27975">
        <ele>24.17</ele>
        <time>2019-05-25T09:09:06Z</time>
      </trkpt>
      <trkpt lat="44.62124" lon="-0.27964">
        <ele>23.69</ele>
        <time>2019-05-25T09:09:15Z</time>
      </trkpt>
      <trkpt lat="44.62126" lon="-0.27958">
        <ele>23.69</ele>
        <time>2019-05-25T09:09:19Z</time>
      </trkpt>
      <trkpt lat="44.6213" lon="-0.27928">
        <ele>23.69</ele>
        <time>2019-05-25T09:09:37Z</time>
      </trkpt>
      <trkpt lat="44.62134" lon="-0.27908">
        <ele>24.65</ele>
        <time>2019-05-25T09:09:50Z</time>
      </trkpt>
      <trkpt lat="44.62137" lon="-0.27885">
        <ele>22.73</ele>
        <time>2019-05-25T09:10:03Z</time>
      </trkpt>
      <trkpt lat="44.62138" lon="-0.27882">
        <ele>24.17</ele>
        <time>2019-05-25T09:10:05Z</time>
      </trkpt>
      <trkpt lat="44.62142" lon="-0.27868">
        <ele>22.25</ele>
        <time>2019-05-25T09:10:22Z</time>
      </trkpt>
      <trkpt lat="44.62145" lon="-0.27859">
        <ele>20.81</ele>
        <time>2019-05-25T09:10:35Z</time>
      </trkpt>
      <trkpt lat="44.62149" lon="-0.27848">
        <ele>22.25</ele>
        <time>2019-05-25T09:10:46Z</time>
      </trkpt>
      <trkpt lat="44.62156" lon="-0.27817">
        <ele>23.21</ele>
        <time>2019-05-25T09:11:02Z</time>
      </trkpt>
      <trkpt lat="44.62161" lon="-0.27794">
        <ele>22.73</ele>
        <time>2019-05-25T09:11:16Z</time>
      </trkpt>
      <trkpt lat="44.62162" lon="-0.27793">
        <ele>24.17</ele>
        <time>2019-05-25T09:11:18Z</time>
      </trkpt>
      <trkpt lat="44.62167" lon="-0.27781">
        <ele>24.17</ele>
        <time>2019-05-25T09:11:26Z</time>
      </trkpt>
      <trkpt lat="44.62181" lon="-0.2779">
        <ele>24.65</ele>
        <time>2019-05-25T09:11:40Z</time>
      </trkpt>
      <trkpt lat="44.62182" lon="-0.27791">
        <ele>23.21</ele>
        <time>2019-05-25T09:11:47Z</time>
      </trkpt>
      <trkpt lat="44.6219" lon="-0.27802">
        <ele>24.65</ele>
        <time>2019-05-25T09:11:57Z</time>
      </trkpt>
      <trkpt lat="44.62199" lon="-0.27809">
        <ele>25.13</ele>
        <time>2019-05-25T09:12:14Z</time>
      </trkpt>
      <trkpt lat="44.62204" lon="-0.27809">
        <ele>26.09</ele>
        <time>2019-05-25T09:12:21Z</time>
      </trkpt>
      <trkpt lat="44.6221" lon="-0.27797">
        <ele>28.02</ele>
        <time>2019-05-25T09:12:36Z</time>
      </trkpt>
      <trkpt lat="44.62216" lon="-0.27793">
        <ele>29.46</ele>
        <time>2019-05-25T09:12:41Z</time>
      </trkpt>
      <trkpt lat="44.62228" lon="-0.27782">
        <ele>29.46</ele>
        <time>2019-05-25T09:12:53Z</time>
      </trkpt>
      <trkpt lat="44.62238" lon="-0.27777">
        <ele>31.86</ele>
        <time>2019-05-25T09:13:02Z</time>
      </trkpt>
      <trkpt lat="44.62247" lon="-0.27773">
        <ele>30.9</ele>
        <time>2019-05-25T09:13:17Z</time>
      </trkpt>
      <trkpt lat="44.62253" lon="-0.2777">
        <ele>33.3</ele>
        <time>2019-05-25T09:13:25Z</time>
      </trkpt>
      <trkpt lat="44.62269" lon="-0.27769">
        <ele>35.71</ele>
        <time>2019-05-25T09:13:42Z</time>
      </trkpt>
      <trkpt lat="44.62292" lon="-0.27764">
        <ele>38.59</ele>
        <time>2019-05-25T09:14:02Z</time>
      </trkpt>
      <trkpt lat="44.62302" lon="-0.27761">
        <ele>40.03</ele>
        <time>2019-05-25T09:14:19Z</time>
      </trkpt>
      <trkpt lat="44.62318" lon="-0.27761">
        <ele>43.4</ele>
        <time>2019-05-25T09:14:34Z</time>
      </trkpt>
      <trkpt lat="44.62326" lon="-0.27758">
        <ele>45.8</ele>
        <time>2019-05-25T09:14:44Z</time>
      </trkpt>
      <trkpt lat="44.62328" lon="-0.27757">
        <ele>44.36</ele>
        <time>2019-05-25T09:14:46Z</time>
      </trkpt>
      <trkpt lat="44.6233" lon="-0.27756">
        <ele>45.8</ele>
        <time>2019-05-25T09:14:48Z</time>
      </trkpt>
      <trkpt lat="44.62351" lon="-0.27753">
        <ele>49.65</ele>
        <time>2019-05-25T09:15:04Z</time>
      </trkpt>
      <trkpt lat="44.62361" lon="-0.27746">
        <ele>50.61</ele>
        <time>2019-05-25T09:15:18Z</time>
      </trkpt>
      <trkpt lat="44.62367" lon="-0.27748">
        <ele>52.05</ele>
        <time>2019-05-25T09:15:33Z</time>
      </trkpt>
      <trkpt lat="44.62361" lon="-0.27735">
        <ele>52.05</ele>
        <time>2019-05-25T09:15:49Z</time>
      </trkpt>
      <trkpt lat="44.62373" lon="-0.27725">
        <ele>53.49</ele>
        <time>2019-05-25T09:16:03Z</time>
      </trkpt>
      <trkpt lat="44.62379" lon="-0.2772">
        <ele>54.45</ele>
        <time>2019-05-25T09:16:11Z</time>
      </trkpt>
      <trkpt lat="44.62387" lon="-0.27708">
        <ele>55.41</ele>
        <time>2019-05-25T09:16:23Z</time>
      </trkpt>
      <trkpt lat="44.62388" lon="-0.27706">
        <ele>55.89</ele>
        <time>2019-05-25T09:16:25Z</time>
      </trkpt>
      <trkpt lat="44.62396" lon="-0.27687">
        <ele>58.78</ele>
        <time>2019-05-25T09:16:42Z</time>
      </trkpt>
      <trkpt lat="44.624" lon="-0.27674">
        <ele>61.66</ele>
        <time>2019-05-25T09:16:55Z</time>
      </trkpt>
      <trkpt lat="44.624" lon="-0.27673">
        <ele>61.66</ele>
        <time>2019-05-25T09:16:56Z</time>
      </trkpt>
      <trkpt lat="44.62408" lon="-0.27658">
        <ele>62.14</ele>
        <time>2019-05-25T09:17:12Z</time>
      </trkpt>
      <trkpt lat="44.62408" lon="-0.27656">
        <ele>65.51</ele>
        <time>2019-05-25T09:17:13Z</time>
      </trkpt>
      <trkpt lat="44.62412" lon="-0.2765">
        <ele>65.03</ele>
        <time>2019-05-25T09:17:19Z</time>
      </trkpt>
      <trkpt lat="44.62416" lon="-0.27642">
        <ele>65.51</ele>
        <time>2019-05-25T09:17:26Z</time>
      </trkpt>
      <trkpt lat="44.62426" lon="-0.27619">
        <ele>66.95</ele>
        <time>2019-05-25T09:17:43Z</time>
      </trkpt>
      <trkpt lat="44.6243" lon="-0.27601">
        <ele>67.91</ele>
        <time>2019-05-25T09:17:57Z</time>
      </trkpt>
      <trkpt lat="44.62435" lon="-0.27575">
        <ele>69.83</ele>
        <time>2019-05-25T09:18:14Z</time>
      </trkpt>
      <trkpt lat="44.62439" lon="-0.27549">
        <ele>71.76</ele>
        <time>2019-05-25T09:18:32Z</time>
      </trkpt>
      <trkpt lat="44.6244" lon="-0.27545">
        <ele>71.76</ele>
        <time>2019-05-25T09:18:35Z</time>
      </trkpt>
      <trkpt lat="44.62442" lon="-0.27534">
        <ele>73.68</ele>
        <time>2019-05-25T09:18:43Z</time>
      </trkpt>
      <trkpt lat="44.62443" lon="-0.27506">
        <ele>77.04</ele>
        <time>2019-05-25T09:19:00Z</time>
      </trkpt>
      <trkpt lat="44.62445" lon="-0.27498">
        <ele>76.08</ele>
        <time>2019-05-25T09:19:06Z</time>
      </trkpt>
      <trkpt lat="44.62445" lon="-0.27477">
        <ele>81.85</ele>
        <time>2019-05-25T09:19:21Z</time>
      </trkpt>
      <trkpt lat="44.62445" lon="-0.27476">
        <ele>81.85</ele>
        <time>2019-05-25T09:19:22Z</time>
      </trkpt>
      <trkpt lat="44.62444" lon="-0.27472">
        <ele>83.29</ele>
        <time>2019-05-25T09:19:26Z</time>
      </trkpt>
      <trkpt lat="44.6244" lon="-0.2745">
        <ele>85.21</ele>
        <time>2019-05-25T09:19:43Z</time>
      </trkpt>
      <trkpt lat="44.62439" lon="-0.27447">
        <ele>87.14</ele>
        <time>2019-05-25T09:19:46Z</time>
      </trkpt>
      <trkpt lat="44.62437" lon="-0.27432">
        <ele>88.1</ele>
        <time>2019-05-25T09:20:00Z</time>
      </trkpt>
      <trkpt lat="44.62447" lon="-0.27408">
        <ele>88.1</ele>
        <time>2019-05-25T09:20:16Z</time>
      </trkpt>
      <trkpt lat="44.62452" lon="-0.27391">
        <ele>90.02</ele>
        <time>2019-05-25T09:20:29Z</time>
      </trkpt>
      <trkpt lat="44.62457" lon="-0.27356">
        <ele>90.02</ele>
        <time>2019-05-25T09:20:48Z</time>
      </trkpt>
      <trkpt lat="44.62461" lon="-0.27329">
        <ele>90.98</ele>
        <time>2019-05-25T09:21:05Z</time>
      </trkpt>
      <trkpt lat="44.62464" lon="-0.27306">
        <ele>91.94</ele>
        <time>2019-05-25T09:21:20Z</time>
      </trkpt>
      <trkpt lat="44.62465" lon="-0.27305">
        <ele>91.94</ele>
        <time>2019-05-25T09:21:21Z</time>
      </trkpt>
      <trkpt lat="44.62469" lon="-0.27293">
        <ele>91.94</ele>
        <time>2019-05-25T09:21:35Z</time>
      </trkpt>
      <trkpt lat="44.62472" lon="-0.27294">
        <ele>91.94</ele>
        <time>2019-05-25T09:22:08Z</time>
      </trkpt>
      <trkpt lat="44.62472" lon="-0.27289">
        <ele>91.94</ele>
        <time>2019-05-25T09:22:38Z</time>
      </trkpt>
      <trkpt lat="44.6247" lon="-0.27278">
        <ele>92.42</ele>
        <time>2019-05-25T09:22:51Z</time>
      </trkpt>
      <trkpt lat="44.62465" lon="-0.27271">
        <ele>92.42</ele>
        <time>2019-05-25T09:23:03Z</time>
      </trkpt>
      <trkpt lat="44.62463" lon="-0.27254">
        <ele>92.9</ele>
        <time>2019-05-25T09:23:18Z</time>
      </trkpt>
      <trkpt lat="44.62459" lon="-0.27239">
        <ele>93.39</ele>
        <time>2019-05-25T09:23:32Z</time>
      </trkpt>
      <trkpt lat="44.62459" lon="-0.27238">
        <ele>93.39</ele>
        <time>2019-05-25T09:23:33Z</time>
      </trkpt>
      <trkpt lat="44.62457" lon="-0.27234">
        <ele>93.39</ele>
        <time>2019-05-25T09:23:36Z</time>
      </trkpt>
      <trkpt lat="44.62456" lon="-0.27221">
        <ele>93.39</ele>
        <time>2019-05-25T09:23:47Z</time>
      </trkpt>
      <trkpt lat="44.62458" lon="-0.27205">
        <ele>93.87</ele>
        <time>2019-05-25T09:24:02Z</time>
      </trkpt>
      <trkpt lat="44.62458" lon="-0.27184">
        <ele>92.9</ele>
        <time>2019-05-25T09:24:24Z</time>
      </trkpt>
      <trkpt lat="44.62456" lon="-0.27169">
        <ele>91.94</ele>
        <time>2019-05-25T09:24:42Z</time>
      </trkpt>
      <trkpt lat="44.62458" lon="-0.27156">
        <ele>91.46</ele>
        <time>2019-05-25T09:24:56Z</time>
      </trkpt>
      <trkpt lat="44.6246" lon="-0.27142">
        <ele>90.5</ele>
        <time>2019-05-25T09:25:12Z</time>
      </trkpt>
      <trkpt lat="44.6246" lon="-0.27131">
        <ele>89.54</ele>
        <time>2019-05-25T09:25:26Z</time>
      </trkpt>
      <trkpt lat="44.62457" lon="-0.27118">
        <ele>87.14</ele>
        <time>2019-05-25T09:25:42Z</time>
      </trkpt>
      <trkpt lat="44.62456" lon="-0.27115">
        <ele>86.66</ele>
        <time>2019-05-25T09:25:44Z</time>
      </trkpt>
      <trkpt lat="44.62456" lon="-0.27113">
        <ele>86.66</ele>
        <time>2019-05-25T09:25:46Z</time>
      </trkpt>
      <trkpt lat="44.62456" lon="-0.27108">
        <ele>85.69</ele>
        <time>2019-05-25T09:25:49Z</time>
      </trkpt>
      <trkpt lat="44.62456" lon="-0.27102">
        <ele>85.21</ele>
        <time>2019-05-25T09:25:53Z</time>
      </trkpt>
      <trkpt lat="44.62459" lon="-0.27086">
        <ele>84.73</ele>
        <time>2019-05-25T09:26:05Z</time>
      </trkpt>
      <trkpt lat="44.62464" lon="-0.27062">
        <ele>83.29</ele>
        <time>2019-05-25T09:26:19Z</time>
      </trkpt>
      <trkpt lat="44.62469" lon="-0.27042">
        <ele>82.81</ele>
        <time>2019-05-25T09:26:31Z</time>
      </trkpt>
      <trkpt lat="44.62472" lon="-0.27035">
        <ele>82.33</ele>
        <time>2019-05-25T09:26:36Z</time>
      </trkpt>
      <trkpt lat="44.62478" lon="-0.27021">
        <ele>82.33</ele>
        <time>2019-05-25T09:26:49Z</time>
      </trkpt>
      <trkpt lat="44.62487" lon="-0.27003">
        <ele>81.37</ele>
        <time>2019-05-25T09:27:03Z</time>
      </trkpt>
      <trkpt lat="44.62496" lon="-0.26984">
        <ele>81.85</ele>
        <time>2019-05-25T09:27:18Z</time>
      </trkpt>
      <trkpt lat="44.62498" lon="-0.2698">
        <ele>80.41</ele>
        <time>2019-05-25T09:27:21Z</time>
      </trkpt>
      <trkpt lat="44.62496" lon="-0.26971">
        <ele>79.45</ele>
        <time>2019-05-25T09:27:30Z</time>
      </trkpt>
      <trkpt lat="44.62486" lon="-0.26962">
        <ele>76.08</ele>
        <time>2019-05-25T09:27:41Z</time>
      </trkpt>
      <trkpt lat="44.62483" lon="-0.2696">
        <ele>75.12</ele>
        <time>2019-05-25T09:27:44Z</time>
      </trkpt>
      <trkpt lat="44.62469" lon="-0.26946">
        <ele>72.72</ele>
        <time>2019-05-25T09:27:58Z</time>
      </trkpt>
      <trkpt lat="44.62458" lon="-0.26935">
        <ele>70.79</ele>
        <time>2019-05-25T09:28:10Z</time>
      </trkpt>
      <trkpt lat="44.62452" lon="-0.26915">
        <ele>68.39</ele>
        <time>2019-05-25T09:28:23Z</time>
      </trkpt>
      <trkpt lat="44.62453" lon="-0.26914">
        <ele>68.39</ele>
        <time>2019-05-25T09:28:24Z</time>
      </trkpt>
      <trkpt lat="44.62468" lon="-0.26902">
        <ele>70.79</ele>
        <time>2019-05-25T09:28:38Z</time>
      </trkpt>
      <trkpt lat="44.62472" lon="-0.26898">
        <ele>70.31</ele>
        <time>2019-05-25T09:28:42Z</time>
      </trkpt>
      <trkpt lat="44.62476" lon="-0.26896">
        <ele>71.76</ele>
        <time>2019-05-25T09:28:46Z</time>
      </trkpt>
      <trkpt lat="44.62486" lon="-0.26889">
        <ele>74.16</ele>
        <time>2019-05-25T09:28:58Z</time>
      </trkpt>
      <trkpt lat="44.62492" lon="-0.26885">
        <ele>75.6</ele>
        <time>2019-05-25T09:29:07Z</time>
      </trkpt>
      <trkpt lat="44.62494" lon="-0.26871">
        <ele>77.04</ele>
        <time>2019-05-25T09:29:19Z</time>
      </trkpt>
      <trkpt lat="44.6248" lon="-0.26865">
        <ele>74.64</ele>
        <time>2019-05-25T09:29:33Z</time>
      </trkpt>
      <trkpt lat="44.62477" lon="-0.26862">
        <ele>73.68</ele>
        <time>2019-05-25T09:29:37Z</time>
      </trkpt>
      <trkpt lat="44.62473" lon="-0.26857">
        <ele>73.68</ele>
        <time>2019-05-25T09:29:44Z</time>
      </trkpt>
      <trkpt lat="44.6247" lon="-0.26855">
        <ele>72.24</ele>
        <time>2019-05-25T09:29:48Z</time>
      </trkpt>
      <trkpt lat="44.62455" lon="-0.26837">
        <ele>70.79</ele>
        <time>2019-05-25T09:30:03Z</time>
      </trkpt>
      <trkpt lat="44.62454" lon="-0.26836">
        <ele>70.79</ele>
        <time>2019-05-25T09:30:05Z</time>
      </trkpt>
      <trkpt lat="44.62442" lon="-0.26819">
        <ele>69.83</ele>
        <time>2019-05-25T09:30:19Z</time>
      </trkpt>
      <trkpt lat="44.62426" lon="-0.26808">
        <ele>68.39</ele>
        <time>2019-05-25T09:30:33Z</time>
      </trkpt>
      <trkpt lat="44.62411" lon="-0.26803">
        <ele>68.39</ele>
        <time>2019-05-25T09:30:46Z</time>
      </trkpt>
      <trkpt lat="44.62399" lon="-0.26796">
        <ele>67.43</ele>
        <time>2019-05-25T09:30:57Z</time>
      </trkpt>
      <trkpt lat="44.62388" lon="-0.26789">
        <ele>66.47</ele>
        <time>2019-05-25T09:31:08Z</time>
      </trkpt>
      <trkpt lat="44.62382" lon="-0.26787">
        <ele>65.51</ele>
        <time>2019-05-25T09:31:20Z</time>
      </trkpt>
      <trkpt lat="44.62369" lon="-0.26779">
        <ele>64.07</ele>
        <time>2019-05-25T09:31:32Z</time>
      </trkpt>
      <trkpt lat="44.62361" lon="-0.26761">
        <ele>63.1</ele>
        <time>2019-05-25T09:31:43Z</time>
      </trkpt>
      <trkpt lat="44.62362" lon="-0.26748">
        <ele>65.03</ele>
        <time>2019-05-25T09:31:50Z</time>
      </trkpt>
      <trkpt lat="44.62363" lon="-0.26742">
        <ele>64.55</ele>
        <time>2019-05-25T09:31:54Z</time>
      </trkpt>
      <trkpt lat="44.62369" lon="-0.26715">
        <ele>65.51</ele>
        <time>2019-05-25T09:32:10Z</time>
      </trkpt>
      <trkpt lat="44.6237" lon="-0.26704">
        <ele>65.99</ele>
        <time>2019-05-25T09:32:17Z</time>
      </trkpt>
      <trkpt lat="44.62366" lon="-0.26688">
        <ele>65.51</ele>
        <time>2019-05-25T09:32:26Z</time>
      </trkpt>
      <trkpt lat="44.62363" lon="-0.26681">
        <ele>64.55</ele>
        <time>2019-05-25T09:32:31Z</time>
      </trkpt>
      <trkpt lat="44.62362" lon="-0.26671">
        <ele>65.03</ele>
        <time>2019-05-25T09:32:37Z</time>
      </trkpt>
      <trkpt lat="44.62365" lon="-0.26649">
        <ele>62.62</ele>
        <time>2019-05-25T09:32:50Z</time>
      </trkpt>
      <trkpt lat="44.62371" lon="-0.2663">
        <ele>60.7</ele>
        <time>2019-05-25T09:33:01Z</time>
      </trkpt>
      <trkpt lat="44.62379" lon="-0.26608">
        <ele>58.78</ele>
        <time>2019-05-25T09:33:15Z</time>
      </trkpt>
      <trkpt lat="44.62387" lon="-0.26588">
        <ele>57.82</ele>
        <time>2019-05-25T09:33:28Z</time>
      </trkpt>
      <trkpt lat="44.62385" lon="-0.26564">
        <ele>56.86</ele>
        <time>2019-05-25T09:33:43Z</time>
      </trkpt>
      <trkpt lat="44.62374" lon="-0.26551">
        <ele>56.86</ele>
        <time>2019-05-25T09:33:56Z</time>
      </trkpt>
      <trkpt lat="44.62366" lon="-0.26546">
        <ele>55.89</ele>
        <time>2019-05-25T09:34:04Z</time>
      </trkpt>
      <trkpt lat="44.62362" lon="-0.2654">
        <ele>55.89</ele>
        <time>2019-05-25T09:34:10Z</time>
      </trkpt>
      <trkpt lat="44.62362" lon="-0.26537">
        <ele>57.34</ele>
        <time>2019-05-25T09:34:12Z</time>
      </trkpt>
      <trkpt lat="44.62362" lon="-0.26532">
        <ele>57.34</ele>
        <time>2019-05-25T09:34:15Z</time>
      </trkpt>
      <trkpt lat="44.62362" lon="-0.26506">
        <ele>58.78</ele>
        <time>2019-05-25T09:34:29Z</time>
      </trkpt>
      <trkpt lat="44.62364" lon="-0.26493">
        <ele>59.74</ele>
        <time>2019-05-25T09:34:38Z</time>
      </trkpt>
      <trkpt lat="44.62368" lon="-0.26471">
        <ele>61.66</ele>
        <time>2019-05-25T09:34:52Z</time>
      </trkpt>
      <trkpt lat="44.62375" lon="-0.26455">
        <ele>62.62</ele>
        <time>2019-05-25T09:35:04Z</time>
      </trkpt>
      <trkpt lat="44.62378" lon="-0.26445">
        <ele>63.58</ele>
        <time>2019-05-25T09:35:11Z</time>
      </trkpt>
      <trkpt lat="44.62379" lon="-0.26442">
        <ele>62.14</ele>
        <time>2019-05-25T09:35:13Z</time>
      </trkpt>
      <trkpt lat="44.62381" lon="-0.26438">
        <ele>63.58</ele>
        <time>2019-05-25T09:35:15Z</time>
      </trkpt>
      <trkpt lat="44.62381" lon="-0.26437">
        <ele>61.66</ele>
        <time>2019-05-25T09:35:16Z</time>
      </trkpt>
      <trkpt lat="44.62389" lon="-0.26419">
        <ele>65.03</ele>
        <time>2019-05-25T09:35:28Z</time>
      </trkpt>
      <trkpt lat="44.62394" lon="-0.26407">
        <ele>65.51</ele>
        <time>2019-05-25T09:35:40Z</time>
      </trkpt>
      <trkpt lat="44.62396" lon="-0.26398">
        <ele>66.95</ele>
        <time>2019-05-25T09:35:52Z</time>
      </trkpt>
      <trkpt lat="44.62399" lon="-0.2639">
        <ele>67.43</ele>
        <time>2019-05-25T09:35:59Z</time>
      </trkpt>
      <trkpt lat="44.62402" lon="-0.26385">
        <ele>66.47</ele>
        <time>2019-05-25T09:36:03Z</time>
      </trkpt>
      <trkpt lat="44.62404" lon="-0.26377">
        <ele>66.47</ele>
        <time>2019-05-25T09:36:09Z</time>
      </trkpt>
      <trkpt lat="44.62406" lon="-0.26373">
        <ele>66.47</ele>
        <time>2019-05-25T09:36:13Z</time>
      </trkpt>
      <trkpt lat="44.62407" lon="-0.2637">
        <ele>67.91</ele>
        <time>2019-05-25T09:36:15Z</time>
      </trkpt>
      <trkpt lat="44.62407" lon="-0.26369">
        <ele>67.91</ele>
        <time>2019-05-25T09:36:16Z</time>
      </trkpt>
      <trkpt lat="44.62414" lon="-0.26354">
        <ele>66.95</ele>
        <time>2019-05-25T09:36:28Z</time>
      </trkpt>
      <trkpt lat="44.62415" lon="-0.26351">
        <ele>67.91</ele>
        <time>2019-05-25T09:36:30Z</time>
      </trkpt>
      <trkpt lat="44.6242" lon="-0.26337">
        <ele>67.91</ele>
        <time>2019-05-25T09:36:41Z</time>
      </trkpt>
      <trkpt lat="44.62423" lon="-0.26329">
        <ele>69.35</ele>
        <time>2019-05-25T09:36:46Z</time>
      </trkpt>
      <trkpt lat="44.62423" lon="-0.26327">
        <ele>69.83</ele>
        <time>2019-05-25T09:36:48Z</time>
      </trkpt>
      <trkpt lat="44.62427" lon="-0.2632">
        <ele>68.39</ele>
        <time>2019-05-25T09:36:53Z</time>
      </trkpt>
      <trkpt lat="44.62428" lon="-0.26315">
        <ele>68.87</ele>
        <time>2019-05-25T09:36:56Z</time>
      </trkpt>
      <trkpt lat="44.62431" lon="-0.26309">
        <ele>67.91</ele>
        <time>2019-05-25T09:37:00Z</time>
      </trkpt>
      <trkpt lat="44.62432" lon="-0.26306">
        <ele>70.31</ele>
        <time>2019-05-25T09:37:02Z</time>
      </trkpt>
      <trkpt lat="44.62433" lon="-0.26304">
        <ele>68.87</ele>
        <time>2019-05-25T09:37:04Z</time>
      </trkpt>
      <trkpt lat="44.62436" lon="-0.26298">
        <ele>70.31</ele>
        <time>2019-05-25T09:37:08Z</time>
      </trkpt>
      <trkpt lat="44.62438" lon="-0.26293">
        <ele>70.31</ele>
        <time>2019-05-25T09:37:12Z</time>
      </trkpt>
      <trkpt lat="44.62446" lon="-0.26276">
        <ele>69.83</ele>
        <time>2019-05-25T09:37:25Z</time>
      </trkpt>
      <trkpt lat="44.62448" lon="-0.26271">
        <ele>70.31</ele>
        <time>2019-05-25T09:37:29Z</time>
      </trkpt>
      <trkpt lat="44.62451" lon="-0.26262">
        <ele>71.76</ele>
        <time>2019-05-25T09:37:35Z</time>
      </trkpt>
      <trkpt lat="44.62455" lon="-0.26254">
        <ele>72.24</ele>
        <time>2019-05-25T09:37:41Z</time>
      </trkpt>
      <trkpt lat="44.6246" lon="-0.26241">
        <ele>71.76</ele>
        <time>2019-05-25T09:37:50Z</time>
      </trkpt>
      <trkpt lat="44.62461" lon="-0.26239">
        <ele>71.76</ele>
        <time>2019-05-25T09:37:51Z</time>
      </trkpt>
      <trkpt lat="44.62461" lon="-0.26233">
        <ele>71.76</ele>
        <time>2019-05-25T09:37:54Z</time>
      </trkpt>
      <trkpt lat="44.62462" lon="-0.2623">
        <ele>73.2</ele>
        <time>2019-05-25T09:37:56Z</time>
      </trkpt>
      <trkpt lat="44.62462" lon="-0.26226">
        <ele>73.68</ele>
        <time>2019-05-25T09:37:59Z</time>
      </trkpt>
      <trkpt lat="44.62466" lon="-0.26221">
        <ele>73.68</ele>
        <time>2019-05-25T09:38:03Z</time>
      </trkpt>
      <trkpt lat="44.62471" lon="-0.26207">
        <ele>73.2</ele>
        <time>2019-05-25T09:38:12Z</time>
      </trkpt>
      <trkpt lat="44.62482" lon="-0.26188">
        <ele>73.68</ele>
        <time>2019-05-25T09:38:28Z</time>
      </trkpt>
      <trkpt lat="44.62487" lon="-0.26177">
        <ele>73.2</ele>
        <time>2019-05-25T09:38:35Z</time>
      </trkpt>
      <trkpt lat="44.62488" lon="-0.26173">
        <ele>73.2</ele>
        <time>2019-05-25T09:38:38Z</time>
      </trkpt>
      <trkpt lat="44.62491" lon="-0.26163">
        <ele>73.2</ele>
        <time>2019-05-25T09:38:44Z</time>
      </trkpt>
      <trkpt lat="44.62495" lon="-0.2615">
        <ele>72.72</ele>
        <time>2019-05-25T09:38:52Z</time>
      </trkpt>
      <trkpt lat="44.62498" lon="-0.26145">
        <ele>72.72</ele>
        <time>2019-05-25T09:38:56Z</time>
      </trkpt>
      <trkpt lat="44.62504" lon="-0.26129">
        <ele>71.27</ele>
        <time>2019-05-25T09:39:09Z</time>
      </trkpt>
      <trkpt lat="44.62508" lon="-0.26115">
        <ele>70.31</ele>
        <time>2019-05-25T09:39:19Z</time>
      </trkpt>
      <trkpt lat="44.62513" lon="-0.26089">
        <ele>68.87</ele>
        <time>2019-05-25T09:39:35Z</time>
      </trkpt>
      <trkpt lat="44.62514" lon="-0.26079">
        <ele>68.87</ele>
        <time>2019-05-25T09:39:41Z</time>
      </trkpt>
      <trkpt lat="44.62515" lon="-0.26074">
        <ele>69.35</ele>
        <time>2019-05-25T09:39:45Z</time>
      </trkpt>
      <trkpt lat="44.62516" lon="-0.26059">
        <ele>69.83</ele>
        <time>2019-05-25T09:39:54Z</time>
      </trkpt>
      <trkpt lat="44.62516" lon="-0.26056">
        <ele>71.27</ele>
        <time>2019-05-25T09:39:56Z</time>
      </trkpt>
      <trkpt lat="44.6252" lon="-0.26031">
        <ele>71.27</ele>
        <time>2019-05-25T09:40:11Z</time>
      </trkpt>
      <trkpt lat="44.62522" lon="-0.26008">
        <ele>69.83</ele>
        <time>2019-05-25T09:40:25Z</time>
      </trkpt>
      <trkpt lat="44.62522" lon="-0.26007">
        <ele>69.83</ele>
        <time>2019-05-25T09:40:26Z</time>
      </trkpt>
      <trkpt lat="44.62526" lon="-0.25981">
        <ele>69.35</ele>
        <time>2019-05-25T09:40:41Z</time>
      </trkpt>
      <trkpt lat="44.62531" lon="-0.25961">
        <ele>67.91</ele>
        <time>2019-05-25T09:40:53Z</time>
      </trkpt>
      <trkpt lat="44.62532" lon="-0.25954">
        <ele>67.43</ele>
        <time>2019-05-25T09:40:57Z</time>
      </trkpt>
      <trkpt lat="44.62534" lon="-0.25945">
        <ele>67.43</ele>
        <time>2019-05-25T09:41:02Z</time>
      </trkpt>
      <trkpt lat="44.62535" lon="-0.25934">
        <ele>66.47</ele>
        <time>2019-05-25T09:41:08Z</time>
      </trkpt>
      <trkpt lat="44.62541" lon="-0.25913">
        <ele>67.43</ele>
        <time>2019-05-25T09:41:21Z</time>
      </trkpt>
      <trkpt lat="44.62542" lon="-0.25907">
        <ele>65.99</ele>
        <time>2019-05-25T09:41:26Z</time>
      </trkpt>
      <trkpt lat="44.62545" lon="-0.25903">
        <ele>66.95</ele>
        <time>2019-05-25T09:41:29Z</time>
      </trkpt>
      <trkpt lat="44.62551" lon="-0.25894">
        <ele>67.43</ele>
        <time>2019-05-25T09:41:36Z</time>
      </trkpt>
      <trkpt lat="44.62555" lon="-0.25866">
        <ele>68.87</ele>
        <time>2019-05-25T09:41:51Z</time>
      </trkpt>
      <trkpt lat="44.62558" lon="-0.25852">
        <ele>68.87</ele>
        <time>2019-05-25T09:41:58Z</time>
      </trkpt>
      <trkpt lat="44.62559" lon="-0.25847">
        <ele>67.91</ele>
        <time>2019-05-25T09:42:00Z</time>
      </trkpt>
      <trkpt lat="44.62562" lon="-0.25843">
        <ele>69.83</ele>
        <time>2019-05-25T09:42:03Z</time>
      </trkpt>
      <trkpt lat="44.62568" lon="-0.25828">
        <ele>67.91</ele>
        <time>2019-05-25T09:42:13Z</time>
      </trkpt>
      <trkpt lat="44.6257" lon="-0.25823">
        <ele>69.83</ele>
        <time>2019-05-25T09:42:16Z</time>
      </trkpt>
      <trkpt lat="44.62575" lon="-0.25816">
        <ele>69.35</ele>
        <time>2019-05-25T09:42:26Z</time>
      </trkpt>
      <trkpt lat="44.62576" lon="-0.25816">
        <ele>68.39</ele>
        <time>2019-05-25T09:42:30Z</time>
      </trkpt>
      <trkpt lat="44.62581" lon="-0.2581">
        <ele>67.91</ele>
        <time>2019-05-25T09:42:35Z</time>
      </trkpt>
      <trkpt lat="44.62583" lon="-0.25805">
        <ele>69.83</ele>
        <time>2019-05-25T09:42:38Z</time>
      </trkpt>
      <trkpt lat="44.62584" lon="-0.25804">
        <ele>69.83</ele>
        <time>2019-05-25T09:42:39Z</time>
      </trkpt>
      <trkpt lat="44.62589" lon="-0.25799">
        <ele>69.83</ele>
        <time>2019-05-25T09:42:43Z</time>
      </trkpt>
      <trkpt lat="44.62599" lon="-0.25785">
        <ele>68.39</ele>
        <time>2019-05-25T09:42:58Z</time>
      </trkpt>
      <trkpt lat="44.62616" lon="-0.25776">
        <ele>67.91</ele>
        <time>2019-05-25T09:43:12Z</time>
      </trkpt>
      <trkpt lat="44.62626" lon="-0.25773">
        <ele>69.35</ele>
        <time>2019-05-25T09:43:20Z</time>
      </trkpt>
      <trkpt lat="44.62645" lon="-0.25773">
        <ele>69.83</ele>
        <time>2019-05-25T09:43:37Z</time>
      </trkpt>
      <trkpt lat="44.62653" lon="-0.25772">
        <ele>69.35</ele>
        <time>2019-05-25T09:43:48Z</time>
      </trkpt>
      <trkpt lat="44.62654" lon="-0.2577">
        <ele>69.35</ele>
        <time>2019-05-25T09:43:50Z</time>
      </trkpt>
      <trkpt lat="44.62656" lon="-0.25767">
        <ele>71.27</ele>
        <time>2019-05-25T09:43:52Z</time>
      </trkpt>
      <trkpt lat="44.62656" lon="-0.25765">
        <ele>69.83</ele>
        <time>2019-05-25T09:43:54Z</time>
      </trkpt>
      <trkpt lat="44.62657" lon="-0.25761">
        <ele>69.83</ele>
        <time>2019-05-25T09:43:57Z</time>
      </trkpt>
      <trkpt lat="44.62663" lon="-0.25751">
        <ele>70.79</ele>
        <time>2019-05-25T09:44:04Z</time>
      </trkpt>
      <trkpt lat="44.62672" lon="-0.25732">
        <ele>71.27</ele>
        <time>2019-05-25T09:44:17Z</time>
      </trkpt>
      <trkpt lat="44.62679" lon="-0.25709">
        <ele>73.2</ele>
        <time>2019-05-25T09:44:31Z</time>
      </trkpt>
      <trkpt lat="44.62681" lon="-0.25687">
        <ele>72.72</ele>
        <time>2019-05-25T09:44:43Z</time>
      </trkpt>
      <trkpt lat="44.62681" lon="-0.25681">
        <ele>72.72</ele>
        <time>2019-05-25T09:44:47Z</time>
      </trkpt>
      <trkpt lat="44.62688" lon="-0.25662">
        <ele>72.72</ele>
        <time>2019-05-25T09:44:59Z</time>
      </trkpt>
      <trkpt lat="44.62692" lon="-0.25655">
        <ele>72.72</ele>
        <time>2019-05-25T09:45:03Z</time>
      </trkpt>
      <trkpt lat="44.62698" lon="-0.25635">
        <ele>71.76</ele>
        <time>2019-05-25T09:45:15Z</time>
      </trkpt>
      <trkpt lat="44.62699" lon="-0.25631">
        <ele>72.72</ele>
        <time>2019-05-25T09:45:17Z</time>
      </trkpt>
      <trkpt lat="44.62701" lon="-0.25625">
        <ele>71.76</ele>
        <time>2019-05-25T09:45:21Z</time>
      </trkpt>
      <trkpt lat="44.62703" lon="-0.25614">
        <ele>73.2</ele>
        <time>2019-05-25T09:45:27Z</time>
      </trkpt>
      <trkpt lat="44.62708" lon="-0.25595">
        <ele>71.27</ele>
        <time>2019-05-25T09:45:38Z</time>
      </trkpt>
      <trkpt lat="44.62709" lon="-0.25591">
        <ele>72.72</ele>
        <time>2019-05-25T09:45:40Z</time>
      </trkpt>
      <trkpt lat="44.62715" lon="-0.25576">
        <ele>72.24</ele>
        <time>2019-05-25T09:45:50Z</time>
      </trkpt>
      <trkpt lat="44.62719" lon="-0.25567">
        <ele>72.72</ele>
        <time>2019-05-25T09:45:57Z</time>
      </trkpt>
      <trkpt lat="44.62728" lon="-0.25551">
        <ele>74.16</ele>
        <time>2019-05-25T09:46:10Z</time>
      </trkpt>
      <trkpt lat="44.62736" lon="-0.25543">
        <ele>75.12</ele>
        <time>2019-05-25T09:46:19Z</time>
      </trkpt>
      <trkpt lat="44.62745" lon="-0.2553">
        <ele>73.2</ele>
        <time>2019-05-25T09:46:32Z</time>
      </trkpt>
      <trkpt lat="44.62749" lon="-0.25521">
        <ele>72.72</ele>
        <time>2019-05-25T09:46:40Z</time>
      </trkpt>
      <trkpt lat="44.62754" lon="-0.25509">
        <ele>71.76</ele>
        <time>2019-05-25T09:46:53Z</time>
      </trkpt>
      <trkpt lat="44.6276" lon="-0.25498">
        <ele>71.27</ele>
        <time>2019-05-25T09:47:07Z</time>
      </trkpt>
      <trkpt lat="44.6276" lon="-0.25498">
        <ele>71.27</ele>
        <time>2019-05-25T09:47:12Z</time>
      </trkpt>
      <trkpt lat="44.62758" lon="-0.25496">
        <ele>70.31</ele>
        <time>2019-05-25T09:47:14Z</time>
      </trkpt>
      <trkpt lat="44.62755" lon="-0.25496">
        <ele>70.31</ele>
        <time>2019-05-25T09:47:17Z</time>
      </trkpt>
      <trkpt lat="44.62742" lon="-0.25496">
        <ele>69.35</ele>
        <time>2019-05-25T09:47:29Z</time>
      </trkpt>
      <trkpt lat="44.62736" lon="-0.25485">
        <ele>69.83</ele>
        <time>2019-05-25T09:47:42Z</time>
      </trkpt>
      <trkpt lat="44.6272" lon="-0.25478">
        <ele>67.91</ele>
        <time>2019-05-25T09:48:00Z</time>
      </trkpt>
      <trkpt lat="44.62713" lon="-0.25476">
        <ele>67.43</ele>
        <time>2019-05-25T09:48:11Z</time>
      </trkpt>
      <trkpt lat="44.62703" lon="-0.25474">
        <ele>67.43</ele>
        <time>2019-05-25T09:48:29Z</time>
      </trkpt>
      <trkpt lat="44.62697" lon="-0.25469">
        <ele>68.87</ele>
        <time>2019-05-25T09:48:49Z</time>
      </trkpt>
      <trkpt lat="44.62697" lon="-0.25466">
        <ele>67.43</ele>
        <time>2019-05-25T09:48:52Z</time>
      </trkpt>
      <trkpt lat="44.62686" lon="-0.25459">
        <ele>69.83</ele>
        <time>2019-05-25T09:49:12Z</time>
      </trkpt>
      <trkpt lat="44.62677" lon="-0.25445">
        <ele>70.79</ele>
        <time>2019-05-25T09:49:34Z</time>
      </trkpt>
      <trkpt lat="44.62676" lon="-0.25448">
        <ele>70.79</ele>
        <time>2019-05-25T09:49:38Z</time>
      </trkpt>
      <trkpt lat="44.62676" lon="-0.2545">
        <ele>72.24</ele>
        <time>2019-05-25T09:49:40Z</time>
      </trkpt>
      <trkpt lat="44.62675" lon="-0.25451">
        <ele>70.79</ele>
        <time>2019-05-25T09:49:43Z</time>
      </trkpt>
      <trkpt lat="44.62674" lon="-0.25452">
        <ele>72.72</ele>
        <time>2019-05-25T09:49:45Z</time>
      </trkpt>
      <trkpt lat="44.62668" lon="-0.25453">
        <ele>72.72</ele>
        <time>2019-05-25T09:49:57Z</time>
      </trkpt>
      <trkpt lat="44.62665" lon="-0.25452">
        <ele>74.64</ele>
        <time>2019-05-25T09:50:00Z</time>
      </trkpt>
      <trkpt lat="44.62658" lon="-0.25456">
        <ele>77.04</ele>
        <time>2019-05-25T09:50:20Z</time>
      </trkpt>
      <trkpt lat="44.62647" lon="-0.2546">
        <ele>77.52</ele>
        <time>2019-05-25T09:50:43Z</time>
      </trkpt>
      <trkpt lat="44.62631" lon="-0.25469">
        <ele>81.37</ele>
        <time>2019-05-25T09:51:00Z</time>
      </trkpt>
      <trkpt lat="44.62622" lon="-0.25461">
        <ele>82.81</ele>
        <time>2019-05-25T09:51:08Z</time>
      </trkpt>
      <trkpt lat="44.62621" lon="-0.2546">
        <ele>79.93</ele>
        <time>2019-05-25T09:51:09Z</time>
      </trkpt>
      <trkpt lat="44.62621" lon="-0.25458">
        <ele>83.77</ele>
        <time>2019-05-25T09:51:10Z</time>
      </trkpt>
      <trkpt lat="44.62613" lon="-0.25448">
        <ele>84.73</ele>
        <time>2019-05-25T09:51:18Z</time>
      </trkpt>
      <trkpt lat="44.62603" lon="-0.25429">
        <ele>86.66</ele>
        <time>2019-05-25T09:51:36Z</time>
      </trkpt>
      <trkpt lat="44.62602" lon="-0.25428">
        <ele>86.66</ele>
        <time>2019-05-25T09:51:37Z</time>
      </trkpt>
      <trkpt lat="44.62602" lon="-0.25417">
        <ele>87.62</ele>
        <time>2019-05-25T09:51:56Z</time>
      </trkpt>
      <trkpt lat="44.62599" lon="-0.25416">
        <ele>86.18</ele>
        <time>2019-05-25T09:52:06Z</time>
      </trkpt>
      <trkpt lat="44.62595" lon="-0.254">
        <ele>88.58</ele>
        <time>2019-05-25T09:52:31Z</time>
      </trkpt>
      <trkpt lat="44.62591" lon="-0.25382">
        <ele>90.5</ele>
        <time>2019-05-25T09:52:45Z</time>
      </trkpt>
      <trkpt lat="44.62586" lon="-0.25363">
        <ele>91.46</ele>
        <time>2019-05-25T09:53:03Z</time>
      </trkpt>
      <trkpt lat="44.62585" lon="-0.2534">
        <ele>92.42</ele>
        <time>2019-05-25T09:53:20Z</time>
      </trkpt>
      <trkpt lat="44.62586" lon="-0.25333">
        <ele>90.98</ele>
        <time>2019-05-25T09:53:24Z</time>
      </trkpt>
      <trkpt lat="44.62591" lon="-0.25313">
        <ele>90.5</ele>
        <time>2019-05-25T09:53:42Z</time>
      </trkpt>
      <trkpt lat="44.62588" lon="-0.25297">
        <ele>90.98</ele>
        <time>2019-05-25T09:54:02Z</time>
      </trkpt>
      <trkpt lat="44.62579" lon="-0.25288">
        <ele>92.9</ele>
        <time>2019-05-25T09:54:20Z</time>
      </trkpt>
      <trkpt lat="44.62567" lon="-0.25272">
        <ele>92.42</ele>
        <time>2019-05-25T09:54:38Z</time>
      </trkpt>
      <trkpt lat="44.62567" lon="-0.25272">
        <ele>94.83</ele>
        <time>2019-05-25T09:54:39Z</time>
      </trkpt>
      <trkpt lat="44.62559" lon="-0.25259">
        <ele>96.75</ele>
        <time>2019-05-25T09:54:51Z</time>
      </trkpt>
      <trkpt lat="44.62559" lon="-0.25258">
        <ele>96.75</ele>
        <time>2019-05-25T09:54:52Z</time>
      </trkpt>
      <trkpt lat="44.62547" lon="-0.25248">
        <ele>97.23</ele>
        <time>2019-05-25T09:55:13Z</time>
      </trkpt>
      <trkpt lat="44.62547" lon="-0.25248">
        <ele>100.6</ele>
        <time>2019-05-25T09:55:14Z</time>
      </trkpt>
      <trkpt lat="44.62547" lon="-0.25248">
        <ele>100.6</ele>
        <time>2019-05-25T09:55:15Z</time>
      </trkpt>
      <trkpt lat="44.62529" lon="-0.25244">
        <ele>103</ele>
        <time>2019-05-25T09:55:35Z</time>
      </trkpt>
      <trkpt lat="44.62521" lon="-0.25242">
        <ele>102.52</ele>
        <time>2019-05-25T09:55:44Z</time>
      </trkpt>
      <trkpt lat="44.62509" lon="-0.25234">
        <ele>103.48</ele>
        <time>2019-05-25T09:56:00Z</time>
      </trkpt>
      <trkpt lat="44.62502" lon="-0.25228">
        <ele>104.92</ele>
        <time>2019-05-25T09:56:09Z</time>
      </trkpt>
      <trkpt lat="44.62494" lon="-0.25221">
        <ele>105.88</ele>
        <time>2019-05-25T09:56:23Z</time>
      </trkpt>
      <trkpt lat="44.62494" lon="-0.2522">
        <ele>104.92</ele>
        <time>2019-05-25T09:56:34Z</time>
      </trkpt>
      <trkpt lat="44.62492" lon="-0.2522">
        <ele>106.36</ele>
        <time>2019-05-25T09:56:36Z</time>
      </trkpt>
      <trkpt lat="44.62487" lon="-0.2522">
        <ele>106.36</ele>
        <time>2019-05-25T09:56:41Z</time>
      </trkpt>
      <trkpt lat="44.62476" lon="-0.25213">
        <ele>106.36</ele>
        <time>2019-05-25T09:56:53Z</time>
      </trkpt>
      <trkpt lat="44.62468" lon="-0.25204">
        <ele>105.4</ele>
        <time>2019-05-25T09:57:01Z</time>
      </trkpt>
      <trkpt lat="44.62466" lon="-0.25202">
        <ele>106.84</ele>
        <time>2019-05-25T09:57:03Z</time>
      </trkpt>
      <trkpt lat="44.62459" lon="-0.25197">
        <ele>107.32</ele>
        <time>2019-05-25T09:57:10Z</time>
      </trkpt>
      <trkpt lat="44.62457" lon="-0.25195">
        <ele>105.88</ele>
        <time>2019-05-25T09:57:12Z</time>
      </trkpt>
      <trkpt lat="44.62445" lon="-0.25185">
        <ele>106.36</ele>
        <time>2019-05-25T09:57:24Z</time>
      </trkpt>
      <trkpt lat="44.62444" lon="-0.25184">
        <ele>106.84</ele>
        <time>2019-05-25T09:57:25Z</time>
      </trkpt>
      <trkpt lat="44.6244" lon="-0.25182">
        <ele>107.32</ele>
        <time>2019-05-25T09:57:29Z</time>
      </trkpt>
      <trkpt lat="44.62428" lon="-0.25165">
        <ele>107.81</ele>
        <time>2019-05-25T09:57:43Z</time>
      </trkpt>
      <trkpt lat="44.62425" lon="-0.25164">
        <ele>107.32</ele>
        <time>2019-05-25T09:57:46Z</time>
      </trkpt>
      <trkpt lat="44.62421" lon="-0.25161">
        <ele>107.32</ele>
        <time>2019-05-25T09:57:50Z</time>
      </trkpt>
      <trkpt lat="44.62417" lon="-0.25151">
        <ele>107.32</ele>
        <time>2019-05-25T09:57:57Z</time>
      </trkpt>
      <trkpt lat="44.6241" lon="-0.25141">
        <ele>107.81</ele>
        <time>2019-05-25T09:58:05Z</time>
      </trkpt>
      <trkpt lat="44.62407" lon="-0.25137">
        <ele>107.81</ele>
        <time>2019-05-25T09:58:09Z</time>
      </trkpt>
      <trkpt lat="44.624" lon="-0.25128">
        <ele>109.25</ele>
        <time>2019-05-25T09:58:21Z</time>
      </trkpt>
      <trkpt lat="44.62402" lon="-0.25117">
        <ele>108.29</ele>
        <time>2019-05-25T09:58:37Z</time>
      </trkpt>
      <trkpt lat="44.62405" lon="-0.2511">
        <ele>109.25</ele>
        <time>2019-05-25T09:58:43Z</time>
      </trkpt>
      <trkpt lat="44.62411" lon="-0.25105">
        <ele>107.81</ele>
        <time>2019-05-25T09:58:52Z</time>
      </trkpt>
      <trkpt lat="44.62426" lon="-0.2509">
        <ele>107.81</ele>
        <time>2019-05-25T09:59:08Z</time>
      </trkpt>
      <trkpt lat="44.62435" lon="-0.25081">
        <ele>107.81</ele>
        <time>2019-05-25T09:59:18Z</time>
      </trkpt>
      <trkpt lat="44.6244" lon="-0.25075">
        <ele>107.81</ele>
        <time>2019-05-25T09:59:23Z</time>
      </trkpt>
      <trkpt lat="44.62458" lon="-0.25061">
        <ele>107.81</ele>
        <time>2019-05-25T09:59:39Z</time>
      </trkpt>
      <trkpt lat="44.62473" lon="-0.25048">
        <ele>107.81</ele>
        <time>2019-05-25T09:59:54Z</time>
      </trkpt>
      <trkpt lat="44.6249" lon="-0.25034">
        <ele>107.81</ele>
        <time>2019-05-25T10:00:10Z</time>
      </trkpt>
      <trkpt lat="44.62494" lon="-0.25027">
        <ele>107.81</ele>
        <time>2019-05-25T10:00:16Z</time>
      </trkpt>
      <trkpt lat="44.625" lon="-0.25007">
        <ele>107.81</ele>
        <time>2019-05-25T10:00:32Z</time>
      </trkpt>
      <trkpt lat="44.62502" lon="-0.25006">
        <ele>107.81</ele>
        <time>2019-05-25T10:00:34Z</time>
      </trkpt>
      <trkpt lat="44.62508" lon="-0.25004">
        <ele>107.81</ele>
        <time>2019-05-25T10:00:40Z</time>
      </trkpt>
      <trkpt lat="44.62526" lon="-0.24993">
        <ele>107.81</ele>
        <time>2019-05-25T10:00:56Z</time>
      </trkpt>
      <trkpt lat="44.6254" lon="-0.24984">
        <ele>107.32</ele>
        <time>2019-05-25T10:01:08Z</time>
      </trkpt>
      <trkpt lat="44.62542" lon="-0.2497">
        <ele>107.32</ele>
        <time>2019-05-25T10:01:21Z</time>
      </trkpt>
      <trkpt lat="44.6254" lon="-0.24966">
        <ele>108.77</ele>
        <time>2019-05-25T10:01:24Z</time>
      </trkpt>
      <trkpt lat="44.62539" lon="-0.24963">
        <ele>107.81</ele>
        <time>2019-05-25T10:01:26Z</time>
      </trkpt>
      <trkpt lat="44.62534" lon="-0.24941">
        <ele>106.84</ele>
        <time>2019-05-25T10:01:40Z</time>
      </trkpt>
      <trkpt lat="44.62529" lon="-0.24924">
        <ele>108.29</ele>
        <time>2019-05-25T10:01:52Z</time>
      </trkpt>
      <trkpt lat="44.62524" lon="-0.24904">
        <ele>108.29</ele>
        <time>2019-05-25T10:02:05Z</time>
      </trkpt>
      <trkpt lat="44.62524" lon="-0.24901">
        <ele>106.84</ele>
        <time>2019-05-25T10:02:07Z</time>
      </trkpt>
      <trkpt lat="44.62516" lon="-0.24878">
        <ele>106.36</ele>
        <time>2019-05-25T10:02:21Z</time>
      </trkpt>
      <trkpt lat="44.62509" lon="-0.24861">
        <ele>105.88</ele>
        <time>2019-05-25T10:02:32Z</time>
      </trkpt>
      <trkpt lat="44.62499" lon="-0.24857">
        <ele>104.92</ele>
        <time>2019-05-25T10:02:47Z</time>
      </trkpt>
      <trkpt lat="44.62494" lon="-0.24861">
        <ele>104.92</ele>
        <time>2019-05-25T10:02:52Z</time>
      </trkpt>
      <trkpt lat="44.62484" lon="-0.24869">
        <ele>104.92</ele>
        <time>2019-05-25T10:03:03Z</time>
      </trkpt>
      <trkpt lat="44.62472" lon="-0.24871">
        <ele>104.44</ele>
        <time>2019-05-25T10:03:12Z</time>
      </trkpt>
      <trkpt lat="44.6247" lon="-0.2487">
        <ele>105.88</ele>
        <time>2019-05-25T10:03:14Z</time>
      </trkpt>
      <trkpt lat="44.62467" lon="-0.24869">
        <ele>106.36</ele>
        <time>2019-05-25T10:03:17Z</time>
      </trkpt>
      <trkpt lat="44.62459" lon="-0.24865">
        <ele>105.4</ele>
        <time>2019-05-25T10:03:23Z</time>
      </trkpt>
      <trkpt lat="44.62456" lon="-0.24865">
        <ele>106.84</ele>
        <time>2019-05-25T10:03:25Z</time>
      </trkpt>
      <trkpt lat="44.62442" lon="-0.24862">
        <ele>105.88</ele>
        <time>2019-05-25T10:03:36Z</time>
      </trkpt>
      <trkpt lat="44.62424" lon="-0.24857">
        <ele>107.32</ele>
        <time>2019-05-25T10:03:50Z</time>
      </trkpt>
      <trkpt lat="44.62416" lon="-0.24855">
        <ele>107.32</ele>
        <time>2019-05-25T10:03:57Z</time>
      </trkpt>
      <trkpt lat="44.62412" lon="-0.24853">
        <ele>107.32</ele>
        <time>2019-05-25T10:04:00Z</time>
      </trkpt>
      <trkpt lat="44.62399" lon="-0.24848">
        <ele>107.81</ele>
        <time>2019-05-25T10:04:11Z</time>
      </trkpt>
      <trkpt lat="44.62385" lon="-0.24843">
        <ele>107.81</ele>
        <time>2019-05-25T10:04:23Z</time>
      </trkpt>
      <trkpt lat="44.62383" lon="-0.24842">
        <ele>107.81</ele>
        <time>2019-05-25T10:04:25Z</time>
      </trkpt>
      <trkpt lat="44.62373" lon="-0.24838">
        <ele>107.81</ele>
        <time>2019-05-25T10:04:33Z</time>
      </trkpt>
      <trkpt lat="44.62368" lon="-0.24833">
        <ele>107.81</ele>
        <time>2019-05-25T10:04:38Z</time>
      </trkpt>
      <trkpt lat="44.62365" lon="-0.24828">
        <ele>107.81</ele>
        <time>2019-05-25T10:04:42Z</time>
      </trkpt>
      <trkpt lat="44.62364" lon="-0.24825">
        <ele>106.84</ele>
        <time>2019-05-25T10:04:44Z</time>
      </trkpt>
      <trkpt lat="44.62363" lon="-0.24821">
        <ele>106.84</ele>
        <time>2019-05-25T10:04:46Z</time>
      </trkpt>
      <trkpt lat="44.62365" lon="-0.24815">
        <ele>107.32</ele>
        <time>2019-05-25T10:04:50Z</time>
      </trkpt>
      <trkpt lat="44.62366" lon="-0.24812">
        <ele>107.32</ele>
        <time>2019-05-25T10:04:52Z</time>
      </trkpt>
      <trkpt lat="44.62373" lon="-0.24792">
        <ele>106.36</ele>
        <time>2019-05-25T10:05:04Z</time>
      </trkpt>
      <trkpt lat="44.62381" lon="-0.24767">
        <ele>106.84</ele>
        <time>2019-05-25T10:05:20Z</time>
      </trkpt>
      <trkpt lat="44.62384" lon="-0.24754">
        <ele>105.4</ele>
        <time>2019-05-25T10:05:28Z</time>
      </trkpt>
      <trkpt lat="44.62385" lon="-0.24751">
        <ele>106.36</ele>
        <time>2019-05-25T10:05:30Z</time>
      </trkpt>
      <trkpt lat="44.62391" lon="-0.24731">
        <ele>104.92</ele>
        <time>2019-05-25T10:05:44Z</time>
      </trkpt>
      <trkpt lat="44.62392" lon="-0.24722">
        <ele>103.96</ele>
        <time>2019-05-25T10:05:50Z</time>
      </trkpt>
      <trkpt lat="44.62392" lon="-0.24721">
        <ele>105.4</ele>
        <time>2019-05-25T10:05:52Z</time>
      </trkpt>
      <trkpt lat="44.62391" lon="-0.24719">
        <ele>103.96</ele>
        <time>2019-05-25T10:05:54Z</time>
      </trkpt>
      <trkpt lat="44.6239" lon="-0.24718">
        <ele>103.96</ele>
        <time>2019-05-25T10:05:55Z</time>
      </trkpt>
      <trkpt lat="44.62385" lon="-0.24716">
        <ele>103.96</ele>
        <time>2019-05-25T10:06:01Z</time>
      </trkpt>
      <trkpt lat="44.62377" lon="-0.24712">
        <ele>103</ele>
        <time>2019-05-25T10:06:08Z</time>
      </trkpt>
      <trkpt lat="44.6237" lon="-0.24706">
        <ele>104.44</ele>
        <time>2019-05-25T10:06:17Z</time>
      </trkpt>
      <trkpt lat="44.62358" lon="-0.24698">
        <ele>102.52</ele>
        <time>2019-05-25T10:06:29Z</time>
      </trkpt>
      <trkpt lat="44.62346" lon="-0.2469">
        <ele>101.56</ele>
        <time>2019-05-25T10:06:42Z</time>
      </trkpt>
      <trkpt lat="44.62345" lon="-0.24689">
        <ele>103</ele>
        <time>2019-05-25T10:06:43Z</time>
      </trkpt>
      <trkpt lat="44.62338" lon="-0.24682">
        <ele>103</ele>
        <time>2019-05-25T10:06:50Z</time>
      </trkpt>
      <trkpt lat="44.62335" lon="-0.24682">
        <ele>101.08</ele>
        <time>2019-05-25T10:06:54Z</time>
      </trkpt>
      <trkpt lat="44.62333" lon="-0.24681">
        <ele>103.48</ele>
        <time>2019-05-25T10:06:56Z</time>
      </trkpt>
      <trkpt lat="44.62331" lon="-0.24681">
        <ele>103</ele>
        <time>2019-05-25T10:06:58Z</time>
      </trkpt>
      <trkpt lat="44.62325" lon="-0.24676">
        <ele>101.56</ele>
        <time>2019-05-25T10:07:05Z</time>
      </trkpt>
      <trkpt lat="44.62324" lon="-0.24677">
        <ele>103</ele>
        <time>2019-05-25T10:07:08Z</time>
      </trkpt>
      <trkpt lat="44.62322" lon="-0.24676">
        <ele>101.56</ele>
        <time>2019-05-25T10:07:10Z</time>
      </trkpt>
      <trkpt lat="44.62316" lon="-0.24674">
        <ele>101.08</ele>
        <time>2019-05-25T10:07:17Z</time>
      </trkpt>
      <trkpt lat="44.62301" lon="-0.24672">
        <ele>101.08</ele>
        <time>2019-05-25T10:07:32Z</time>
      </trkpt>
      <trkpt lat="44.62293" lon="-0.2467">
        <ele>100.11</ele>
        <time>2019-05-25T10:07:40Z</time>
      </trkpt>
      <trkpt lat="44.62289" lon="-0.24669">
        <ele>100.11</ele>
        <time>2019-05-25T10:07:45Z</time>
      </trkpt>
      <trkpt lat="44.62287" lon="-0.24668">
        <ele>101.08</ele>
        <time>2019-05-25T10:07:47Z</time>
      </trkpt>
      <trkpt lat="44.6228" lon="-0.24667">
        <ele>100.11</ele>
        <time>2019-05-25T10:07:54Z</time>
      </trkpt>
      <trkpt lat="44.62277" lon="-0.24668">
        <ele>99.63</ele>
        <time>2019-05-25T10:07:58Z</time>
      </trkpt>
      <trkpt lat="44.62273" lon="-0.24669">
        <ele>99.63</ele>
        <time>2019-05-25T10:08:01Z</time>
      </trkpt>
      <trkpt lat="44.62269" lon="-0.24671">
        <ele>101.08</ele>
        <time>2019-05-25T10:08:06Z</time>
      </trkpt>
      <trkpt lat="44.62263" lon="-0.24673">
        <ele>101.08</ele>
        <time>2019-05-25T10:08:12Z</time>
      </trkpt>
      <trkpt lat="44.62256" lon="-0.24672">
        <ele>101.08</ele>
        <time>2019-05-25T10:08:21Z</time>
      </trkpt>
      <trkpt lat="44.62253" lon="-0.24671">
        <ele>101.08</ele>
        <time>2019-05-25T10:08:24Z</time>
      </trkpt>
      <trkpt lat="44.6225" lon="-0.24669">
        <ele>99.63</ele>
        <time>2019-05-25T10:08:27Z</time>
      </trkpt>
      <trkpt lat="44.62246" lon="-0.24669">
        <ele>100.6</ele>
        <time>2019-05-25T10:08:31Z</time>
      </trkpt>
      <trkpt lat="44.62237" lon="-0.24667">
        <ele>100.6</ele>
        <time>2019-05-25T10:08:40Z</time>
      </trkpt>
      <trkpt lat="44.62234" lon="-0.24668">
        <ele>100.6</ele>
        <time>2019-05-25T10:08:43Z</time>
      </trkpt>
      <trkpt lat="44.62228" lon="-0.24666">
        <ele>100.6</ele>
        <time>2019-05-25T10:08:48Z</time>
      </trkpt>
      <trkpt lat="44.62227" lon="-0.24666">
        <ele>102.52</ele>
        <time>2019-05-25T10:08:50Z</time>
      </trkpt>
      <trkpt lat="44.62225" lon="-0.24665">
        <ele>101.08</ele>
        <time>2019-05-25T10:08:52Z</time>
      </trkpt>
      <trkpt lat="44.62214" lon="-0.24662">
        <ele>100.6</ele>
        <time>2019-05-25T10:09:04Z</time>
      </trkpt>
      <trkpt lat="44.6221" lon="-0.24662">
        <ele>99.63</ele>
        <time>2019-05-25T10:09:17Z</time>
      </trkpt>
      <trkpt lat="44.6221" lon="-0.24663">
        <ele>100.6</ele>
        <time>2019-05-25T10:09:23Z</time>
      </trkpt>
      <trkpt lat="44.62206" lon="-0.24667">
        <ele>101.56</ele>
        <time>2019-05-25T10:09:37Z</time>
      </trkpt>
      <trkpt lat="44.62205" lon="-0.24673">
        <ele>99.63</ele>
        <time>2019-05-25T10:09:52Z</time>
      </trkpt>
      <trkpt lat="44.62206" lon="-0.24675">
        <ele>100.11</ele>
        <time>2019-05-25T10:09:54Z</time>
      </trkpt>
      <trkpt lat="44.62207" lon="-0.24686">
        <ele>101.56</ele>
        <time>2019-05-25T10:10:08Z</time>
      </trkpt>
      <trkpt lat="44.62199" lon="-0.24689">
        <ele>100.11</ele>
        <time>2019-05-25T10:10:18Z</time>
      </trkpt>
      <trkpt lat="44.62195" lon="-0.24688">
        <ele>99.63</ele>
        <time>2019-05-25T10:10:38Z</time>
      </trkpt>
      <trkpt lat="44.62195" lon="-0.24686">
        <ele>100.11</ele>
        <time>2019-05-25T10:10:53Z</time>
      </trkpt>
      <trkpt lat="44.62193" lon="-0.24683">
        <ele>99.63</ele>
        <time>2019-05-25T10:11:11Z</time>
      </trkpt>
      <trkpt lat="44.62188" lon="-0.24682">
        <ele>99.63</ele>
        <time>2019-05-25T10:11:39Z</time>
      </trkpt>
      <trkpt lat="44.62185" lon="-0.24683">
        <ele>95.79</ele>
        <time>2019-05-25T10:11:53Z</time>
      </trkpt>
      <trkpt lat="44.62184" lon="-0.24683">
        <ele>100.6</ele>
        <time>2019-05-25T10:11:54Z</time>
      </trkpt>
      <trkpt lat="44.62184" lon="-0.24682">
        <ele>100.6</ele>
        <time>2019-05-25T10:11:55Z</time>
      </trkpt>
      <trkpt lat="44.62184" lon="-0.24681">
        <ele>98.19</ele>
        <time>2019-05-25T10:11:57Z</time>
      </trkpt>
      <trkpt lat="44.62182" lon="-0.24674">
        <ele>97.71</ele>
        <time>2019-05-25T10:12:15Z</time>
      </trkpt>
      <trkpt lat="44.62181" lon="-0.24677">
        <ele>96.75</ele>
        <time>2019-05-25T10:12:38Z</time>
      </trkpt>
      <trkpt lat="44.62176" lon="-0.24665">
        <ele>96.75</ele>
        <time>2019-05-25T10:12:58Z</time>
      </trkpt>
      <trkpt lat="44.62173" lon="-0.24656">
        <ele>96.75</ele>
        <time>2019-05-25T10:13:19Z</time>
      </trkpt>
      <trkpt lat="44.6217" lon="-0.24654">
        <ele>95.79</ele>
        <time>2019-05-25T10:13:25Z</time>
      </trkpt>
      <trkpt lat="44.62163" lon="-0.24657">
        <ele>95.31</ele>
        <time>2019-05-25T10:13:43Z</time>
      </trkpt>
      <trkpt lat="44.62153" lon="-0.24657">
        <ele>95.31</ele>
        <time>2019-05-25T10:14:01Z</time>
      </trkpt>
      <trkpt lat="44.62155" lon="-0.24669">
        <ele>97.23</ele>
        <time>2019-05-25T10:14:19Z</time>
      </trkpt>
      <trkpt lat="44.62155" lon="-0.2468">
        <ele>99.15</ele>
        <time>2019-05-25T10:14:29Z</time>
      </trkpt>
      <trkpt lat="44.62155" lon="-0.24702">
        <ele>101.08</ele>
        <time>2019-05-25T10:14:44Z</time>
      </trkpt>
      <trkpt lat="44.62152" lon="-0.24711">
        <ele>100.6</ele>
        <time>2019-05-25T10:14:52Z</time>
      </trkpt>
      <trkpt lat="44.62151" lon="-0.24719">
        <ele>100.6</ele>
        <time>2019-05-25T10:14:58Z</time>
      </trkpt>
      <trkpt lat="44.62149" lon="-0.24732">
        <ele>102.52</ele>
        <time>2019-05-25T10:15:08Z</time>
      </trkpt>
      <trkpt lat="44.62148" lon="-0.24738">
        <ele>103</ele>
        <time>2019-05-25T10:15:13Z</time>
      </trkpt>
      <trkpt lat="44.62148" lon="-0.24744">
        <ele>101.56</ele>
        <time>2019-05-25T10:15:17Z</time>
      </trkpt>
      <trkpt lat="44.62146" lon="-0.24752">
        <ele>104.44</ele>
        <time>2019-05-25T10:15:36Z</time>
      </trkpt>
      <trkpt lat="44.62144" lon="-0.24755">
        <ele>103</ele>
        <time>2019-05-25T10:15:44Z</time>
      </trkpt>
      <trkpt lat="44.62143" lon="-0.24755">
        <ele>103</ele>
        <time>2019-05-25T10:15:46Z</time>
      </trkpt>
      <trkpt lat="44.62141" lon="-0.24754">
        <ele>104.92</ele>
        <time>2019-05-25T10:15:48Z</time>
      </trkpt>
      <trkpt lat="44.62138" lon="-0.24752">
        <ele>103.48</ele>
        <time>2019-05-25T10:15:50Z</time>
      </trkpt>
      <trkpt lat="44.62135" lon="-0.24751">
        <ele>102.52</ele>
        <time>2019-05-25T10:15:52Z</time>
      </trkpt>
      <trkpt lat="44.62128" lon="-0.24744">
        <ele>103.96</ele>
        <time>2019-05-25T10:16:00Z</time>
      </trkpt>
      <trkpt lat="44.62126" lon="-0.24743">
        <ele>103.48</ele>
        <time>2019-05-25T10:16:02Z</time>
      </trkpt>
      <trkpt lat="44.62125" lon="-0.24741">
        <ele>105.4</ele>
        <time>2019-05-25T10:16:04Z</time>
      </trkpt>
      <trkpt lat="44.62112" lon="-0.24736">
        <ele>106.36</ele>
        <time>2019-05-25T10:16:16Z</time>
      </trkpt>
      <trkpt lat="44.62102" lon="-0.24729">
        <ele>106.36</ele>
        <time>2019-05-25T10:16:26Z</time>
      </trkpt>
      <trkpt lat="44.62097" lon="-0.24726">
        <ele>104.92</ele>
        <time>2019-05-25T10:16:31Z</time>
      </trkpt>
      <trkpt lat="44.62096" lon="-0.24725">
        <ele>104.92</ele>
        <time>2019-05-25T10:16:33Z</time>
      </trkpt>
      <trkpt lat="44.62089" lon="-0.2472">
        <ele>103.96</ele>
        <time>2019-05-25T10:16:40Z</time>
      </trkpt>
      <trkpt lat="44.6208" lon="-0.24712">
        <ele>103</ele>
        <time>2019-05-25T10:16:51Z</time>
      </trkpt>
      <trkpt lat="44.62076" lon="-0.2471">
        <ele>102.52</ele>
        <time>2019-05-25T10:16:55Z</time>
      </trkpt>
      <trkpt lat="44.62073" lon="-0.24709">
        <ele>101.56</ele>
        <time>2019-05-25T10:16:58Z</time>
      </trkpt>
      <trkpt lat="44.6207" lon="-0.24709">
        <ele>101.08</ele>
        <time>2019-05-25T10:17:00Z</time>
      </trkpt>
      <trkpt lat="44.62066" lon="-0.24704">
        <ele>100.6</ele>
        <time>2019-05-25T10:17:05Z</time>
      </trkpt>
      <trkpt lat="44.62061" lon="-0.24702">
        <ele>99.63</ele>
        <time>2019-05-25T10:17:09Z</time>
      </trkpt>
      <trkpt lat="44.62054" lon="-0.24701">
        <ele>99.63</ele>
        <time>2019-05-25T10:17:15Z</time>
      </trkpt>
      <trkpt lat="44.62041" lon="-0.24705">
        <ele>99.15</ele>
        <time>2019-05-25T10:17:26Z</time>
      </trkpt>
      <trkpt lat="44.62039" lon="-0.24706">
        <ele>99.15</ele>
        <time>2019-05-25T10:17:29Z</time>
      </trkpt>
      <trkpt lat="44.62034" lon="-0.24713">
        <ele>99.63</ele>
        <time>2019-05-25T10:17:36Z</time>
      </trkpt>
      <trkpt lat="44.62029" lon="-0.24723">
        <ele>103</ele>
        <time>2019-05-25T10:17:44Z</time>
      </trkpt>
      <trkpt lat="44.62027" lon="-0.24732">
        <ele>103</ele>
        <time>2019-05-25T10:17:50Z</time>
      </trkpt>
      <trkpt lat="44.62026" lon="-0.24738">
        <ele>101.56</ele>
        <time>2019-05-25T10:17:54Z</time>
      </trkpt>
      <trkpt lat="44.62023" lon="-0.24747">
        <ele>103</ele>
        <time>2019-05-25T10:18:01Z</time>
      </trkpt>
      <trkpt lat="44.6202" lon="-0.24761">
        <ele>106.84</ele>
        <time>2019-05-25T10:18:11Z</time>
      </trkpt>
      <trkpt lat="44.62019" lon="-0.24766">
        <ele>106.84</ele>
        <time>2019-05-25T10:18:17Z</time>
      </trkpt>
      <trkpt lat="44.62018" lon="-0.24771">
        <ele>106.84</ele>
        <time>2019-05-25T10:18:20Z</time>
      </trkpt>
      <trkpt lat="44.62013" lon="-0.24776">
        <ele>107.81</ele>
        <time>2019-05-25T10:18:27Z</time>
      </trkpt>
      <trkpt lat="44.62009" lon="-0.24778">
        <ele>107.81</ele>
        <time>2019-05-25T10:18:31Z</time>
      </trkpt>
      <trkpt lat="44.62007" lon="-0.24779">
        <ele>107.81</ele>
        <time>2019-05-25T10:18:33Z</time>
      </trkpt>
      <trkpt lat="44.61997" lon="-0.24797">
        <ele>108.29</ele>
        <time>2019-05-25T10:18:49Z</time>
      </trkpt>
      <trkpt lat="44.61995" lon="-0.248">
        <ele>108.77</ele>
        <time>2019-05-25T10:18:52Z</time>
      </trkpt>
      <trkpt lat="44.61993" lon="-0.24804">
        <ele>108.77</ele>
        <time>2019-05-25T10:18:55Z</time>
      </trkpt>
      <trkpt lat="44.61983" lon="-0.24822">
        <ele>109.73</ele>
        <time>2019-05-25T10:19:10Z</time>
      </trkpt>
      <trkpt lat="44.61983" lon="-0.24823">
        <ele>108.77</ele>
        <time>2019-05-25T10:19:11Z</time>
      </trkpt>
      <trkpt lat="44.6198" lon="-0.24828">
        <ele>108.77</ele>
        <time>2019-05-25T10:19:15Z</time>
      </trkpt>
      <trkpt lat="44.61968" lon="-0.24849">
        <ele>109.73</ele>
        <time>2019-05-25T10:19:32Z</time>
      </trkpt>
      <trkpt lat="44.61966" lon="-0.2485">
        <ele>109.73</ele>
        <time>2019-05-25T10:19:36Z</time>
      </trkpt>
      <trkpt lat="44.61963" lon="-0.24848">
        <ele>109.73</ele>
        <time>2019-05-25T10:19:39Z</time>
      </trkpt>
      <trkpt lat="44.6195" lon="-0.2484">
        <ele>109.73</ele>
        <time>2019-05-25T10:19:52Z</time>
      </trkpt>
      <trkpt lat="44.61945" lon="-0.24836">
        <ele>111.17</ele>
        <time>2019-05-25T10:19:57Z</time>
      </trkpt>
      <trkpt lat="44.61942" lon="-0.24833">
        <ele>111.17</ele>
        <time>2019-05-25T10:20:00Z</time>
      </trkpt>
      <trkpt lat="44.61936" lon="-0.24828">
        <ele>109.73</ele>
        <time>2019-05-25T10:20:07Z</time>
      </trkpt>
      <trkpt lat="44.61929" lon="-0.24823">
        <ele>111.17</ele>
        <time>2019-05-25T10:20:13Z</time>
      </trkpt>
      <trkpt lat="44.61921" lon="-0.24823">
        <ele>110.21</ele>
        <time>2019-05-25T10:20:21Z</time>
      </trkpt>
      <trkpt lat="44.61921" lon="-0.24824">
        <ele>111.65</ele>
        <time>2019-05-25T10:20:22Z</time>
      </trkpt>
      <trkpt lat="44.61912" lon="-0.24839">
        <ele>111.65</ele>
        <time>2019-05-25T10:20:34Z</time>
      </trkpt>
      <trkpt lat="44.61905" lon="-0.2485">
        <ele>109.73</ele>
        <time>2019-05-25T10:20:43Z</time>
      </trkpt>
      <trkpt lat="44.61895" lon="-0.24863">
        <ele>110.69</ele>
        <time>2019-05-25T10:20:55Z</time>
      </trkpt>
      <trkpt lat="44.61894" lon="-0.24864">
        <ele>110.69</ele>
        <time>2019-05-25T10:20:56Z</time>
      </trkpt>
      <trkpt lat="44.61891" lon="-0.24869">
        <ele>109.73</ele>
        <time>2019-05-25T10:21:00Z</time>
      </trkpt>
      <trkpt lat="44.61885" lon="-0.24876">
        <ele>109.25</ele>
        <time>2019-05-25T10:21:07Z</time>
      </trkpt>
      <trkpt lat="44.61883" lon="-0.24876">
        <ele>109.25</ele>
        <time>2019-05-25T10:21:09Z</time>
      </trkpt>
      <trkpt lat="44.6188" lon="-0.24874">
        <ele>110.69</ele>
        <time>2019-05-25T10:21:12Z</time>
      </trkpt>
      <trkpt lat="44.61875" lon="-0.2487">
        <ele>110.69</ele>
        <time>2019-05-25T10:21:16Z</time>
      </trkpt>
      <trkpt lat="44.61867" lon="-0.24862">
        <ele>110.21</ele>
        <time>2019-05-25T10:21:24Z</time>
      </trkpt>
      <trkpt lat="44.61862" lon="-0.24858">
        <ele>111.65</ele>
        <time>2019-05-25T10:21:29Z</time>
      </trkpt>
      <trkpt lat="44.61857" lon="-0.24853">
        <ele>110.21</ele>
        <time>2019-05-25T10:21:34Z</time>
      </trkpt>
      <trkpt lat="44.61846" lon="-0.24841">
        <ele>111.65</ele>
        <time>2019-05-25T10:21:48Z</time>
      </trkpt>
      <trkpt lat="44.61845" lon="-0.24837">
        <ele>112.13</ele>
        <time>2019-05-25T10:21:50Z</time>
      </trkpt>
      <trkpt lat="44.61847" lon="-0.24822">
        <ele>112.61</ele>
        <time>2019-05-25T10:22:01Z</time>
      </trkpt>
      <trkpt lat="44.61831" lon="-0.24823">
        <ele>111.65</ele>
        <time>2019-05-25T10:22:16Z</time>
      </trkpt>
      <trkpt lat="44.61824" lon="-0.24816">
        <ele>113.57</ele>
        <time>2019-05-25T10:22:22Z</time>
      </trkpt>
      <trkpt lat="44.61814" lon="-0.24803">
        <ele>112.61</ele>
        <time>2019-05-25T10:22:34Z</time>
      </trkpt>
      <trkpt lat="44.61812" lon="-0.24799">
        <ele>113.57</ele>
        <time>2019-05-25T10:22:39Z</time>
      </trkpt>
      <trkpt lat="44.61806" lon="-0.24791">
        <ele>114.05</ele>
        <time>2019-05-25T10:22:52Z</time>
      </trkpt>
      <trkpt lat="44.61805" lon="-0.2479">
        <ele>114.05</ele>
        <time>2019-05-25T10:22:54Z</time>
      </trkpt>
      <trkpt lat="44.61801" lon="-0.24785">
        <ele>113.57</ele>
        <time>2019-05-25T10:22:58Z</time>
      </trkpt>
      <trkpt lat="44.61798" lon="-0.24784">
        <ele>113.57</ele>
        <time>2019-05-25T10:23:00Z</time>
      </trkpt>
      <trkpt lat="44.61792" lon="-0.24778">
        <ele>113.57</ele>
        <time>2019-05-25T10:23:08Z</time>
      </trkpt>
      <trkpt lat="44.6178" lon="-0.24764">
        <ele>114.05</ele>
        <time>2019-05-25T10:23:21Z</time>
      </trkpt>
      <trkpt lat="44.61779" lon="-0.24762">
        <ele>113.09</ele>
        <time>2019-05-25T10:23:23Z</time>
      </trkpt>
      <trkpt lat="44.61777" lon="-0.2476">
        <ele>114.05</ele>
        <time>2019-05-25T10:23:25Z</time>
      </trkpt>
      <trkpt lat="44.61776" lon="-0.24757">
        <ele>112.61</ele>
        <time>2019-05-25T10:23:27Z</time>
      </trkpt>
      <trkpt lat="44.61773" lon="-0.24752">
        <ele>112.61</ele>
        <time>2019-05-25T10:23:32Z</time>
      </trkpt>
      <trkpt lat="44.61771" lon="-0.24748">
        <ele>115.01</ele>
        <time>2019-05-25T10:23:34Z</time>
      </trkpt>
      <trkpt lat="44.6177" lon="-0.24747">
        <ele>115.01</ele>
        <time>2019-05-25T10:23:35Z</time>
      </trkpt>
      <trkpt lat="44.61764" lon="-0.24738">
        <ele>114.53</ele>
        <time>2019-05-25T10:23:43Z</time>
      </trkpt>
      <trkpt lat="44.61761" lon="-0.24736">
        <ele>114.53</ele>
        <time>2019-05-25T10:23:46Z</time>
      </trkpt>
      <trkpt lat="44.61753" lon="-0.24722">
        <ele>114.53</ele>
        <time>2019-05-25T10:23:58Z</time>
      </trkpt>
      <trkpt lat="44.61747" lon="-0.24705">
        <ele>115.98</ele>
        <time>2019-05-25T10:24:11Z</time>
      </trkpt>
      <trkpt lat="44.61744" lon="-0.24699">
        <ele>115.5</ele>
        <time>2019-05-25T10:24:16Z</time>
      </trkpt>
      <trkpt lat="44.61742" lon="-0.24697">
        <ele>115.5</ele>
        <time>2019-05-25T10:24:18Z</time>
      </trkpt>
      <trkpt lat="44.6174" lon="-0.24693">
        <ele>116.46</ele>
        <time>2019-05-25T10:24:22Z</time>
      </trkpt>
      <trkpt lat="44.61739" lon="-0.2469">
        <ele>115.98</ele>
        <time>2019-05-25T10:24:25Z</time>
      </trkpt>
      <trkpt lat="44.61727" lon="-0.24673">
        <ele>115.98</ele>
        <time>2019-05-25T10:24:40Z</time>
      </trkpt>
      <trkpt lat="44.61724" lon="-0.24669">
        <ele>115.98</ele>
        <time>2019-05-25T10:24:44Z</time>
      </trkpt>
      <trkpt lat="44.61716" lon="-0.2467">
        <ele>114.05</ele>
        <time>2019-05-25T10:24:54Z</time>
      </trkpt>
      <trkpt lat="44.61707" lon="-0.2467">
        <ele>115.01</ele>
        <time>2019-05-25T10:25:10Z</time>
      </trkpt>
      <trkpt lat="44.61704" lon="-0.24663">
        <ele>115.01</ele>
        <time>2019-05-25T10:25:23Z</time>
      </trkpt>
      <trkpt lat="44.61699" lon="-0.24654">
        <ele>115.01</ele>
        <time>2019-05-25T10:25:42Z</time>
      </trkpt>
      <trkpt lat="44.617" lon="-0.24642">
        <ele>115.5</ele>
        <time>2019-05-25T10:25:53Z</time>
      </trkpt>
      <trkpt lat="44.617" lon="-0.24637">
        <ele>115.5</ele>
        <time>2019-05-25T10:25:56Z</time>
      </trkpt>
      <trkpt lat="44.61702" lon="-0.24611">
        <ele>116.46</ele>
        <time>2019-05-25T10:26:11Z</time>
      </trkpt>
      <trkpt lat="44.61703" lon="-0.24601">
        <ele>115.5</ele>
        <time>2019-05-25T10:26:17Z</time>
      </trkpt>
      <trkpt lat="44.61704" lon="-0.24596">
        <ele>116.46</ele>
        <time>2019-05-25T10:26:20Z</time>
      </trkpt>
      <trkpt lat="44.61707" lon="-0.24574">
        <ele>116.46</ele>
        <time>2019-05-25T10:26:32Z</time>
      </trkpt>
      <trkpt lat="44.61711" lon="-0.24555">
        <ele>116.46</ele>
        <time>2019-05-25T10:26:43Z</time>
      </trkpt>
      <trkpt lat="44.61712" lon="-0.24551">
        <ele>116.46</ele>
        <time>2019-05-25T10:26:46Z</time>
      </trkpt>
      <trkpt lat="44.61713" lon="-0.24546">
        <ele>115.01</ele>
        <time>2019-05-25T10:26:49Z</time>
      </trkpt>
      <trkpt lat="44.61715" lon="-0.24524">
        <ele>115.01</ele>
        <time>2019-05-25T10:27:02Z</time>
      </trkpt>
      <trkpt lat="44.61719" lon="-0.24499">
        <ele>114.05</ele>
        <time>2019-05-25T10:27:16Z</time>
      </trkpt>
      <trkpt lat="44.61725" lon="-0.24475">
        <ele>112.61</ele>
        <time>2019-05-25T10:27:29Z</time>
      </trkpt>
      <trkpt lat="44.61732" lon="-0.24454">
        <ele>111.17</ele>
        <time>2019-05-25T10:27:43Z</time>
      </trkpt>
      <trkpt lat="44.61735" lon="-0.24447">
        <ele>111.65</ele>
        <time>2019-05-25T10:27:47Z</time>
      </trkpt>
      <trkpt lat="44.61743" lon="-0.24425">
        <ele>111.17</ele>
        <time>2019-05-25T10:28:01Z</time>
      </trkpt>
      <trkpt lat="44.6175" lon="-0.24409">
        <ele>112.13</ele>
        <time>2019-05-25T10:28:11Z</time>
      </trkpt>
      <trkpt lat="44.61751" lon="-0.24404">
        <ele>110.69</ele>
        <time>2019-05-25T10:28:14Z</time>
      </trkpt>
      <trkpt lat="44.61752" lon="-0.244">
        <ele>110.69</ele>
        <time>2019-05-25T10:28:16Z</time>
      </trkpt>
      <trkpt lat="44.61758" lon="-0.24383">
        <ele>110.69</ele>
        <time>2019-05-25T10:28:27Z</time>
      </trkpt>
      <trkpt lat="44.6176" lon="-0.24378">
        <ele>109.25</ele>
        <time>2019-05-25T10:28:30Z</time>
      </trkpt>
      <trkpt lat="44.61766" lon="-0.24356">
        <ele>108.77</ele>
        <time>2019-05-25T10:28:43Z</time>
      </trkpt>
      <trkpt lat="44.61776" lon="-0.24336">
        <ele>108.77</ele>
        <time>2019-05-25T10:28:56Z</time>
      </trkpt>
      <trkpt lat="44.61783" lon="-0.24316">
        <ele>108.29</ele>
        <time>2019-05-25T10:29:08Z</time>
      </trkpt>
      <trkpt lat="44.61785" lon="-0.24312">
        <ele>109.25</ele>
        <time>2019-05-25T10:29:10Z</time>
      </trkpt>
      <trkpt lat="44.61793" lon="-0.24292">
        <ele>109.25</ele>
        <time>2019-05-25T10:29:23Z</time>
      </trkpt>
      <trkpt lat="44.61789" lon="-0.24281">
        <ele>108.77</ele>
        <time>2019-05-25T10:29:37Z</time>
      </trkpt>
      <trkpt lat="44.61789" lon="-0.2428">
        <ele>108.77</ele>
        <time>2019-05-25T10:29:43Z</time>
      </trkpt>
      <trkpt lat="44.61786" lon="-0.24277">
        <ele>109.25</ele>
        <time>2019-05-25T10:29:47Z</time>
      </trkpt>
      <trkpt lat="44.61784" lon="-0.24275">
        <ele>109.73</ele>
        <time>2019-05-25T10:29:49Z</time>
      </trkpt>
      <trkpt lat="44.61777" lon="-0.24271">
        <ele>108.29</ele>
        <time>2019-05-25T10:29:55Z</time>
      </trkpt>
      <trkpt lat="44.61775" lon="-0.24269">
        <ele>109.73</ele>
        <time>2019-05-25T10:29:57Z</time>
      </trkpt>
      <trkpt lat="44.61772" lon="-0.24267">
        <ele>107.81</ele>
        <time>2019-05-25T10:30:00Z</time>
      </trkpt>
      <trkpt lat="44.61758" lon="-0.24255">
        <ele>106.84</ele>
        <time>2019-05-25T10:30:12Z</time>
      </trkpt>
      <trkpt lat="44.61748" lon="-0.24246">
        <ele>106.36</ele>
        <time>2019-05-25T10:30:22Z</time>
      </trkpt>
      <trkpt lat="44.61739" lon="-0.24241">
        <ele>105.88</ele>
        <time>2019-05-25T10:30:31Z</time>
      </trkpt>
      <trkpt lat="44.61734" lon="-0.24239">
        <ele>106.36</ele>
        <time>2019-05-25T10:30:37Z</time>
      </trkpt>
      <trkpt lat="44.6173" lon="-0.24233">
        <ele>105.4</ele>
        <time>2019-05-25T10:30:42Z</time>
      </trkpt>
      <trkpt lat="44.61717" lon="-0.24218">
        <ele>103.48</ele>
        <time>2019-05-25T10:30:55Z</time>
      </trkpt>
      <trkpt lat="44.617" lon="-0.24201">
        <ele>101.56</ele>
        <time>2019-05-25T10:31:11Z</time>
      </trkpt>
      <trkpt lat="44.61693" lon="-0.24194">
        <ele>99.15</ele>
        <time>2019-05-25T10:31:19Z</time>
      </trkpt>
      <trkpt lat="44.61689" lon="-0.24191">
        <ele>100.6</ele>
        <time>2019-05-25T10:31:23Z</time>
      </trkpt>
      <trkpt lat="44.61685" lon="-0.24188">
        <ele>98.67</ele>
        <time>2019-05-25T10:31:27Z</time>
      </trkpt>
      <trkpt lat="44.6167" lon="-0.24172">
        <ele>95.79</ele>
        <time>2019-05-25T10:31:43Z</time>
      </trkpt>
      <trkpt lat="44.61658" lon="-0.24162">
        <ele>93.39</ele>
        <time>2019-05-25T10:31:56Z</time>
      </trkpt>
      <trkpt lat="44.61654" lon="-0.24156">
        <ele>92.42</ele>
        <time>2019-05-25T10:32:01Z</time>
      </trkpt>
      <trkpt lat="44.6165" lon="-0.24149">
        <ele>91.94</ele>
        <time>2019-05-25T10:32:06Z</time>
      </trkpt>
      <trkpt lat="44.61649" lon="-0.24148">
        <ele>91.94</ele>
        <time>2019-05-25T10:32:07Z</time>
      </trkpt>
      <trkpt lat="44.61631" lon="-0.24136">
        <ele>88.58</ele>
        <time>2019-05-25T10:32:22Z</time>
      </trkpt>
      <trkpt lat="44.61617" lon="-0.24128">
        <ele>87.14</ele>
        <time>2019-05-25T10:32:35Z</time>
      </trkpt>
      <trkpt lat="44.61608" lon="-0.2412">
        <ele>85.69</ele>
        <time>2019-05-25T10:32:47Z</time>
      </trkpt>
      <trkpt lat="44.61602" lon="-0.24116">
        <ele>84.73</ele>
        <time>2019-05-25T10:32:53Z</time>
      </trkpt>
      <trkpt lat="44.616" lon="-0.24118">
        <ele>83.77</ele>
        <time>2019-05-25T10:32:56Z</time>
      </trkpt>
      <trkpt lat="44.61597" lon="-0.2412">
        <ele>82.81</ele>
        <time>2019-05-25T10:33:02Z</time>
      </trkpt>
      <trkpt lat="44.61589" lon="-0.24119">
        <ele>82.33</ele>
        <time>2019-05-25T10:33:10Z</time>
      </trkpt>
      <trkpt lat="44.61586" lon="-0.24121">
        <ele>82.33</ele>
        <time>2019-05-25T10:33:19Z</time>
      </trkpt>
      <trkpt lat="44.61583" lon="-0.24139">
        <ele>84.73</ele>
        <time>2019-05-25T10:33:33Z</time>
      </trkpt>
      <trkpt lat="44.61583" lon="-0.24143">
        <ele>85.69</ele>
        <time>2019-05-25T10:33:36Z</time>
      </trkpt>
      <trkpt lat="44.61583" lon="-0.24155">
        <ele>86.66</ele>
        <time>2019-05-25T10:33:44Z</time>
      </trkpt>
      <trkpt lat="44.61582" lon="-0.24161">
        <ele>87.62</ele>
        <time>2019-05-25T10:33:48Z</time>
      </trkpt>
      <trkpt lat="44.61582" lon="-0.24167">
        <ele>88.1</ele>
        <time>2019-05-25T10:33:52Z</time>
      </trkpt>
      <trkpt lat="44.61583" lon="-0.2418">
        <ele>88.58</ele>
        <time>2019-05-25T10:34:00Z</time>
      </trkpt>
      <trkpt lat="44.61581" lon="-0.24185">
        <ele>89.54</ele>
        <time>2019-05-25T10:34:04Z</time>
      </trkpt>
      <trkpt lat="44.6158" lon="-0.24191">
        <ele>88.1</ele>
        <time>2019-05-25T10:34:08Z</time>
      </trkpt>
      <trkpt lat="44.61578" lon="-0.24217">
        <ele>91.94</ele>
        <time>2019-05-25T10:34:23Z</time>
      </trkpt>
      <trkpt lat="44.61578" lon="-0.24227">
        <ele>91.94</ele>
        <time>2019-05-25T10:34:30Z</time>
      </trkpt>
      <trkpt lat="44.61578" lon="-0.24236">
        <ele>94.83</ele>
        <time>2019-05-25T10:34:36Z</time>
      </trkpt>
      <trkpt lat="44.61578" lon="-0.24245">
        <ele>96.27</ele>
        <time>2019-05-25T10:34:42Z</time>
      </trkpt>
      <trkpt lat="44.61579" lon="-0.24252">
        <ele>97.23</ele>
        <time>2019-05-25T10:34:46Z</time>
      </trkpt>
      <trkpt lat="44.61578" lon="-0.24259">
        <ele>96.75</ele>
        <time>2019-05-25T10:34:50Z</time>
      </trkpt>
      <trkpt lat="44.61576" lon="-0.24265">
        <ele>97.71</ele>
        <time>2019-05-25T10:34:54Z</time>
      </trkpt>
      <trkpt lat="44.61576" lon="-0.24266">
        <ele>95.31</ele>
        <time>2019-05-25T10:34:55Z</time>
      </trkpt>
      <trkpt lat="44.61576" lon="-0.24272">
        <ele>96.27</ele>
        <time>2019-05-25T10:34:59Z</time>
      </trkpt>
      <trkpt lat="44.61576" lon="-0.24276">
        <ele>99.15</ele>
        <time>2019-05-25T10:35:01Z</time>
      </trkpt>
      <trkpt lat="44.61576" lon="-0.24279">
        <ele>97.71</ele>
        <time>2019-05-25T10:35:03Z</time>
      </trkpt>
      <trkpt lat="44.61577" lon="-0.24281">
        <ele>99.15</ele>
        <time>2019-05-25T10:35:05Z</time>
      </trkpt>
      <trkpt lat="44.61576" lon="-0.24292">
        <ele>100.11</ele>
        <time>2019-05-25T10:35:13Z</time>
      </trkpt>
      <trkpt lat="44.61574" lon="-0.24303">
        <ele>101.56</ele>
        <time>2019-05-25T10:35:26Z</time>
      </trkpt>
      <trkpt lat="44.61569" lon="-0.24302">
        <ele>100.6</ele>
        <time>2019-05-25T10:35:43Z</time>
      </trkpt>
      <trkpt lat="44.61567" lon="-0.24301">
        <ele>101.08</ele>
        <time>2019-05-25T10:35:47Z</time>
      </trkpt>
      <trkpt lat="44.61566" lon="-0.24301">
        <ele>102.04</ele>
        <time>2019-05-25T10:36:09Z</time>
      </trkpt>
      <trkpt lat="44.61563" lon="-0.24298">
        <ele>102.04</ele>
        <time>2019-05-25T10:36:25Z</time>
      </trkpt>
      <trkpt lat="44.61557" lon="-0.24294">
        <ele>102.52</ele>
        <time>2019-05-25T10:36:31Z</time>
      </trkpt>
      <trkpt lat="44.61552" lon="-0.24288">
        <ele>100.6</ele>
        <time>2019-05-25T10:36:39Z</time>
      </trkpt>
      <trkpt lat="44.61547" lon="-0.24285">
        <ele>101.08</ele>
        <time>2019-05-25T10:36:44Z</time>
      </trkpt>
      <trkpt lat="44.61534" lon="-0.24277">
        <ele>100.11</ele>
        <time>2019-05-25T10:36:57Z</time>
      </trkpt>
      <trkpt lat="44.61531" lon="-0.24275">
        <ele>101.56</ele>
        <time>2019-05-25T10:37:02Z</time>
      </trkpt>
      <trkpt lat="44.61528" lon="-0.24273">
        <ele>101.08</ele>
        <time>2019-05-25T10:37:05Z</time>
      </trkpt>
      <trkpt lat="44.61524" lon="-0.2427">
        <ele>101.08</ele>
        <time>2019-05-25T10:37:10Z</time>
      </trkpt>
      <trkpt lat="44.61521" lon="-0.24267">
        <ele>99.63</ele>
        <time>2019-05-25T10:37:12Z</time>
      </trkpt>
      <trkpt lat="44.61516" lon="-0.24263">
        <ele>101.56</ele>
        <time>2019-05-25T10:37:17Z</time>
      </trkpt>
      <trkpt lat="44.61503" lon="-0.24253">
        <ele>99.15</ele>
        <time>2019-05-25T10:37:30Z</time>
      </trkpt>
      <trkpt lat="44.6149" lon="-0.24243">
        <ele>99.15</ele>
        <time>2019-05-25T10:37:43Z</time>
      </trkpt>
      <trkpt lat="44.61489" lon="-0.24243">
        <ele>99.15</ele>
        <time>2019-05-25T10:37:44Z</time>
      </trkpt>
      <trkpt lat="44.61472" lon="-0.2423">
        <ele>98.19</ele>
        <time>2019-05-25T10:38:00Z</time>
      </trkpt>
      <trkpt lat="44.61462" lon="-0.24213">
        <ele>96.27</ele>
        <time>2019-05-25T10:38:13Z</time>
      </trkpt>
      <trkpt lat="44.61462" lon="-0.24208">
        <ele>97.71</ele>
        <time>2019-05-25T10:38:16Z</time>
      </trkpt>
      <trkpt lat="44.61462" lon="-0.24205">
        <ele>96.27</ele>
        <time>2019-05-25T10:38:18Z</time>
      </trkpt>
      <trkpt lat="44.61464" lon="-0.24186">
        <ele>95.31</ele>
        <time>2019-05-25T10:38:30Z</time>
      </trkpt>
      <trkpt lat="44.61468" lon="-0.24164">
        <ele>93.87</ele>
        <time>2019-05-25T10:38:43Z</time>
      </trkpt>
      <trkpt lat="44.61471" lon="-0.24149">
        <ele>92.42</ele>
        <time>2019-05-25T10:38:52Z</time>
      </trkpt>
      <trkpt lat="44.61476" lon="-0.24129">
        <ele>90.98</ele>
        <time>2019-05-25T10:39:05Z</time>
      </trkpt>
      <trkpt lat="44.61479" lon="-0.24108">
        <ele>89.06</ele>
        <time>2019-05-25T10:39:17Z</time>
      </trkpt>
      <trkpt lat="44.61482" lon="-0.24099">
        <ele>89.06</ele>
        <time>2019-05-25T10:39:23Z</time>
      </trkpt>
      <trkpt lat="44.61486" lon="-0.24076">
        <ele>86.66</ele>
        <time>2019-05-25T10:39:37Z</time>
      </trkpt>
      <trkpt lat="44.61489" lon="-0.24057">
        <ele>85.21</ele>
        <time>2019-05-25T10:39:49Z</time>
      </trkpt>
      <trkpt lat="44.61491" lon="-0.24043">
        <ele>83.29</ele>
        <time>2019-05-25T10:39:58Z</time>
      </trkpt>
      <trkpt lat="44.61497" lon="-0.24026">
        <ele>82.81</ele>
        <time>2019-05-25T10:40:11Z</time>
      </trkpt>
      <trkpt lat="44.61498" lon="-0.24022">
        <ele>82.33</ele>
        <time>2019-05-25T10:40:15Z</time>
      </trkpt>
      <trkpt lat="44.615" lon="-0.24017">
        <ele>82.33</ele>
        <time>2019-05-25T10:40:20Z</time>
      </trkpt>
      <trkpt lat="44.61506" lon="-0.23996">
        <ele>80.89</ele>
        <time>2019-05-25T10:40:37Z</time>
      </trkpt>
      <trkpt lat="44.61502" lon="-0.23985">
        <ele>78.97</ele>
        <time>2019-05-25T10:40:53Z</time>
      </trkpt>
      <trkpt lat="44.61494" lon="-0.23983">
        <ele>79.93</ele>
        <time>2019-05-25T10:41:01Z</time>
      </trkpt>
      <trkpt lat="44.61484" lon="-0.2398">
        <ele>78.97</ele>
        <time>2019-05-25T10:41:09Z</time>
      </trkpt>
      <trkpt lat="44.61473" lon="-0.23976">
        <ele>80.89</ele>
        <time>2019-05-25T10:41:21Z</time>
      </trkpt>
      <trkpt lat="44.61463" lon="-0.23972">
        <ele>82.33</ele>
        <time>2019-05-25T10:41:32Z</time>
      </trkpt>
      <trkpt lat="44.6146" lon="-0.2397">
        <ele>82.33</ele>
        <time>2019-05-25T10:41:35Z</time>
      </trkpt>
      <trkpt lat="44.6145" lon="-0.23968">
        <ele>84.25</ele>
        <time>2019-05-25T10:41:51Z</time>
      </trkpt>
      <trkpt lat="44.61448" lon="-0.23963">
        <ele>84.25</ele>
        <time>2019-05-25T10:41:57Z</time>
      </trkpt>
      <trkpt lat="44.61449" lon="-0.23955">
        <ele>83.29</ele>
        <time>2019-05-25T10:42:03Z</time>
      </trkpt>
      <trkpt lat="44.61452" lon="-0.23948">
        <ele>83.77</ele>
        <time>2019-05-25T10:42:08Z</time>
      </trkpt>
      <trkpt lat="44.61454" lon="-0.23938">
        <ele>81.85</ele>
        <time>2019-05-25T10:42:14Z</time>
      </trkpt>
      <trkpt lat="44.61453" lon="-0.23925">
        <ele>82.81</ele>
        <time>2019-05-25T10:42:23Z</time>
      </trkpt>
      <trkpt lat="44.61453" lon="-0.23917">
        <ele>81.85</ele>
        <time>2019-05-25T10:42:29Z</time>
      </trkpt>
      <trkpt lat="44.61447" lon="-0.23915">
        <ele>84.25</ele>
        <time>2019-05-25T10:42:37Z</time>
      </trkpt>
      <trkpt lat="44.61431" lon="-0.23918">
        <ele>84.25</ele>
        <time>2019-05-25T10:42:55Z</time>
      </trkpt>
      <trkpt lat="44.61427" lon="-0.2391">
        <ele>84.73</ele>
        <time>2019-05-25T10:43:09Z</time>
      </trkpt>
      <trkpt lat="44.61427" lon="-0.239">
        <ele>84.73</ele>
        <time>2019-05-25T10:43:24Z</time>
      </trkpt>
      <trkpt lat="44.61421" lon="-0.23887">
        <ele>87.14</ele>
        <time>2019-05-25T10:43:38Z</time>
      </trkpt>
      <trkpt lat="44.61418" lon="-0.23882">
        <ele>86.18</ele>
        <time>2019-05-25T10:43:43Z</time>
      </trkpt>
      <trkpt lat="44.61416" lon="-0.2388">
        <ele>87.62</ele>
        <time>2019-05-25T10:43:45Z</time>
      </trkpt>
      <trkpt lat="44.61411" lon="-0.23859">
        <ele>87.14</ele>
        <time>2019-05-25T10:43:58Z</time>
      </trkpt>
      <trkpt lat="44.61411" lon="-0.23855">
        <ele>89.06</ele>
        <time>2019-05-25T10:44:01Z</time>
      </trkpt>
      <trkpt lat="44.61408" lon="-0.23839">
        <ele>90.5</ele>
        <time>2019-05-25T10:44:14Z</time>
      </trkpt>
      <trkpt lat="44.61402" lon="-0.2383">
        <ele>91.94</ele>
        <time>2019-05-25T10:44:30Z</time>
      </trkpt>
      <trkpt lat="44.61402" lon="-0.23831">
        <ele>90.98</ele>
        <time>2019-05-25T10:44:33Z</time>
      </trkpt>
      <trkpt lat="44.614" lon="-0.23833">
        <ele>92.9</ele>
        <time>2019-05-25T10:44:35Z</time>
      </trkpt>
      <trkpt lat="44.61393" lon="-0.23831">
        <ele>94.35</ele>
        <time>2019-05-25T10:44:46Z</time>
      </trkpt>
      <trkpt lat="44.61389" lon="-0.23822">
        <ele>94.35</ele>
        <time>2019-05-25T10:44:53Z</time>
      </trkpt>
      <trkpt lat="44.61383" lon="-0.23804">
        <ele>95.31</ele>
        <time>2019-05-25T10:45:06Z</time>
      </trkpt>
      <trkpt lat="44.61381" lon="-0.23797">
        <ele>95.31</ele>
        <time>2019-05-25T10:45:12Z</time>
      </trkpt>
      <trkpt lat="44.61381" lon="-0.23792">
        <ele>94.35</ele>
        <time>2019-05-25T10:45:16Z</time>
      </trkpt>
      <trkpt lat="44.61374" lon="-0.23772">
        <ele>95.79</ele>
        <time>2019-05-25T10:45:30Z</time>
      </trkpt>
      <trkpt lat="44.61368" lon="-0.23755">
        <ele>96.27</ele>
        <time>2019-05-25T10:45:43Z</time>
      </trkpt>
      <trkpt lat="44.61361" lon="-0.23745">
        <ele>95.79</ele>
        <time>2019-05-25T10:45:53Z</time>
      </trkpt>
      <trkpt lat="44.61359" lon="-0.23745">
        <ele>97.23</ele>
        <time>2019-05-25T10:45:55Z</time>
      </trkpt>
      <trkpt lat="44.61346" lon="-0.2375">
        <ele>97.23</ele>
        <time>2019-05-25T10:46:05Z</time>
      </trkpt>
      <trkpt lat="44.61333" lon="-0.23749">
        <ele>97.23</ele>
        <time>2019-05-25T10:46:18Z</time>
      </trkpt>
      <trkpt lat="44.61326" lon="-0.23735">
        <ele>97.23</ele>
        <time>2019-05-25T10:46:32Z</time>
      </trkpt>
      <trkpt lat="44.61313" lon="-0.23727">
        <ele>96.27</ele>
        <time>2019-05-25T10:46:51Z</time>
      </trkpt>
      <trkpt lat="44.61312" lon="-0.23731">
        <ele>95.79</ele>
        <time>2019-05-25T10:47:00Z</time>
      </trkpt>
      <trkpt lat="44.61311" lon="-0.23733">
        <ele>95.79</ele>
        <time>2019-05-25T10:47:02Z</time>
      </trkpt>
      <trkpt lat="44.61308" lon="-0.23736">
        <ele>95.79</ele>
        <time>2019-05-25T10:47:05Z</time>
      </trkpt>
      <trkpt lat="44.61307" lon="-0.23738">
        <ele>96.75</ele>
        <time>2019-05-25T10:47:07Z</time>
      </trkpt>
      <trkpt lat="44.61305" lon="-0.2374">
        <ele>95.79</ele>
        <time>2019-05-25T10:47:09Z</time>
      </trkpt>
      <trkpt lat="44.61302" lon="-0.23743">
        <ele>97.23</ele>
        <time>2019-05-25T10:47:14Z</time>
      </trkpt>
      <trkpt lat="44.61302" lon="-0.23747">
        <ele>97.23</ele>
        <time>2019-05-25T10:47:18Z</time>
      </trkpt>
      <trkpt lat="44.61304" lon="-0.23751">
        <ele>97.23</ele>
        <time>2019-05-25T10:47:32Z</time>
      </trkpt>
      <trkpt lat="44.61304" lon="-0.23752">
        <ele>97.23</ele>
        <time>2019-05-25T10:47:45Z</time>
      </trkpt>
      <trkpt lat="44.61305" lon="-0.23749">
        <ele>95.79</ele>
        <time>2019-05-25T10:48:02Z</time>
      </trkpt>
      <trkpt lat="44.61304" lon="-0.23748">
        <ele>95.79</ele>
        <time>2019-05-25T10:48:03Z</time>
      </trkpt>
      <trkpt lat="44.61303" lon="-0.23742">
        <ele>96.75</ele>
        <time>2019-05-25T10:48:09Z</time>
      </trkpt>
      <trkpt lat="44.61307" lon="-0.23734">
        <ele>96.75</ele>
        <time>2019-05-25T10:48:24Z</time>
      </trkpt>
      <trkpt lat="44.61309" lon="-0.23735">
        <ele>96.75</ele>
        <time>2019-05-25T10:48:37Z</time>
      </trkpt>
      <trkpt lat="44.61309" lon="-0.23735">
        <ele>95.79</ele>
        <time>2019-05-25T10:48:39Z</time>
      </trkpt>
      <trkpt lat="44.61312" lon="-0.23733">
        <ele>95.79</ele>
        <time>2019-05-25T10:49:08Z</time>
      </trkpt>
      <trkpt lat="44.61315" lon="-0.2374">
        <ele>95.79</ele>
        <time>2019-05-25T10:49:32Z</time>
      </trkpt>
      <trkpt lat="44.61325" lon="-0.23741">
        <ele>95.31</ele>
        <time>2019-05-25T10:49:57Z</time>
      </trkpt>
      <trkpt lat="44.61326" lon="-0.23747">
        <ele>95.31</ele>
        <time>2019-05-25T10:50:24Z</time>
      </trkpt>
      <trkpt lat="44.61321" lon="-0.23744">
        <ele>95.31</ele>
        <time>2019-05-25T10:50:59Z</time>
      </trkpt>
      <trkpt lat="44.61321" lon="-0.23744">
        <ele>95.31</ele>
        <time>2019-05-25T10:51:13Z</time>
      </trkpt>
      <trkpt lat="44.61336" lon="-0.23756">
        <ele>95.31</ele>
        <time>2019-05-25T10:51:39Z</time>
      </trkpt>
      <trkpt lat="44.61331" lon="-0.2375">
        <ele>95.31</ele>
        <time>2019-05-25T10:52:07Z</time>
      </trkpt>
      <trkpt lat="44.6133" lon="-0.23751">
        <ele>95.31</ele>
        <time>2019-05-25T10:52:39Z</time>
      </trkpt>
      <trkpt lat="44.61325" lon="-0.23759">
        <ele>95.31</ele>
        <time>2019-05-25T10:53:07Z</time>
      </trkpt>
      <trkpt lat="44.61331" lon="-0.23756">
        <ele>95.31</ele>
        <time>2019-05-25T10:53:38Z</time>
      </trkpt>
      <trkpt lat="44.61329" lon="-0.23752">
        <ele>95.31</ele>
        <time>2019-05-25T10:54:06Z</time>
      </trkpt>
      <trkpt lat="44.61323" lon="-0.23746">
        <ele>95.31</ele>
        <time>2019-05-25T10:54:30Z</time>
      </trkpt>
      <trkpt lat="44.61313" lon="-0.23739">
        <ele>95.31</ele>
        <time>2019-05-25T10:54:54Z</time>
      </trkpt>
      <trkpt lat="44.61306" lon="-0.23729">
        <ele>95.31</ele>
        <time>2019-05-25T10:55:23Z</time>
      </trkpt>
      <trkpt lat="44.61308" lon="-0.23729">
        <ele>96.27</ele>
        <time>2019-05-25T10:55:31Z</time>
      </trkpt>
      <trkpt lat="44.61305" lon="-0.23722">
        <ele>96.27</ele>
        <time>2019-05-25T10:56:01Z</time>
      </trkpt>
      <trkpt lat="44.61305" lon="-0.23717">
        <ele>96.27</ele>
        <time>2019-05-25T10:56:28Z</time>
      </trkpt>
      <trkpt lat="44.61302" lon="-0.2371">
        <ele>95.31</ele>
        <time>2019-05-25T10:57:00Z</time>
      </trkpt>
      <trkpt lat="44.61311" lon="-0.23731">
        <ele>95.31</ele>
        <time>2019-05-25T10:57:32Z</time>
      </trkpt>
      <trkpt lat="44.61311" lon="-0.23733">
        <ele>95.79</ele>
        <time>2019-05-25T10:57:48Z</time>
      </trkpt>
      <trkpt lat="44.61309" lon="-0.23732">
        <ele>94.35</ele>
        <time>2019-05-25T10:58:17Z</time>
      </trkpt>
      <trkpt lat="44.6131" lon="-0.23733">
        <ele>94.35</ele>
        <time>2019-05-25T10:58:49Z</time>
      </trkpt>
      <trkpt lat="44.6131" lon="-0.23732">
        <ele>95.79</ele>
        <time>2019-05-25T10:59:01Z</time>
      </trkpt>
      <trkpt lat="44.6131" lon="-0.23732">
        <ele>95.79</ele>
        <time>2019-05-25T10:59:28Z</time>
      </trkpt>
      <trkpt lat="44.61311" lon="-0.23734">
        <ele>94.35</ele>
        <time>2019-05-25T10:59:51Z</time>
      </trkpt>
      <trkpt lat="44.61312" lon="-0.23734">
        <ele>94.35</ele>
        <time>2019-05-25T11:00:20Z</time>
      </trkpt>
      <trkpt lat="44.61311" lon="-0.23734">
        <ele>94.35</ele>
        <time>2019-05-25T11:00:45Z</time>
      </trkpt>
      <trkpt lat="44.6131" lon="-0.23734">
        <ele>94.35</ele>
        <time>2019-05-25T11:01:20Z</time>
      </trkpt>
      <trkpt lat="44.61311" lon="-0.23734">
        <ele>94.35</ele>
        <time>2019-05-25T11:01:45Z</time>
      </trkpt>
      <trkpt lat="44.61312" lon="-0.23734">
        <ele>95.79</ele>
        <time>2019-05-25T11:02:13Z</time>
      </trkpt>
      <trkpt lat="44.61311" lon="-0.23734">
        <ele>96.27</ele>
        <time>2019-05-25T11:02:41Z</time>
      </trkpt>
      <trkpt lat="44.6131" lon="-0.23735">
        <ele>96.27</ele>
        <time>2019-05-25T11:03:12Z</time>
      </trkpt>
      <trkpt lat="44.61311" lon="-0.23736">
        <ele>96.27</ele>
        <time>2019-05-25T11:03:39Z</time>
      </trkpt>
      <trkpt lat="44.61307" lon="-0.23733">
        <ele>96.27</ele>
        <time>2019-05-25T11:04:07Z</time>
      </trkpt>
      <trkpt lat="44.61309" lon="-0.23734">
        <ele>96.27</ele>
        <time>2019-05-25T11:04:36Z</time>
      </trkpt>
      <trkpt lat="44.61307" lon="-0.23733">
        <ele>96.27</ele>
        <time>2019-05-25T11:05:11Z</time>
      </trkpt>
      <trkpt lat="44.61306" lon="-0.2373">
        <ele>96.27</ele>
        <time>2019-05-25T11:05:39Z</time>
      </trkpt>
      <trkpt lat="44.61305" lon="-0.23732">
        <ele>96.27</ele>
        <time>2019-05-25T11:05:59Z</time>
      </trkpt>
      <trkpt lat="44.61308" lon="-0.23732">
        <ele>96.27</ele>
        <time>2019-05-25T11:06:32Z</time>
      </trkpt>
      <trkpt lat="44.6131" lon="-0.23734">
        <ele>94.35</ele>
        <time>2019-05-25T11:06:51Z</time>
      </trkpt>
      <trkpt lat="44.61298" lon="-0.23728">
        <ele>95.79</ele>
        <time>2019-05-25T11:07:13Z</time>
      </trkpt>
      <trkpt lat="44.61304" lon="-0.23731">
        <ele>96.27</ele>
        <time>2019-05-25T11:07:38Z</time>
      </trkpt>
      <trkpt lat="44.6131" lon="-0.23732">
        <ele>96.27</ele>
        <time>2019-05-25T11:08:02Z</time>
      </trkpt>
      <trkpt lat="44.61312" lon="-0.23735">
        <ele>101.08</ele>
        <time>2019-05-25T11:08:08Z</time>
      </trkpt>
      <trkpt lat="44.61312" lon="-0.23735">
        <ele>95.79</ele>
        <time>2019-05-25T11:08:09Z</time>
      </trkpt>
      <trkpt lat="44.61312" lon="-0.23735">
        <ele>95.79</ele>
        <time>2019-05-25T11:08:35Z</time>
      </trkpt>
      <trkpt lat="44.61314" lon="-0.23734">
        <ele>95.79</ele>
        <time>2019-05-25T11:08:58Z</time>
      </trkpt>
      <trkpt lat="44.61312" lon="-0.23734">
        <ele>95.79</ele>
        <time>2019-05-25T11:09:20Z</time>
      </trkpt>
      <trkpt lat="44.61311" lon="-0.23734">
        <ele>97.23</ele>
        <time>2019-05-25T11:09:48Z</time>
      </trkpt>
      <trkpt lat="44.61312" lon="-0.23734">
        <ele>95.79</ele>
        <time>2019-05-25T11:10:00Z</time>
      </trkpt>
      <trkpt lat="44.61312" lon="-0.23734">
        <ele>97.23</ele>
        <time>2019-05-25T11:10:04Z</time>
      </trkpt>
      <trkpt lat="44.61311" lon="-0.23735">
        <ele>95.79</ele>
        <time>2019-05-25T11:10:45Z</time>
      </trkpt>
      <trkpt lat="44.61312" lon="-0.23735">
        <ele>95.79</ele>
        <time>2019-05-25T11:11:28Z</time>
      </trkpt>
      <trkpt lat="44.61312" lon="-0.23734">
        <ele>95.31</ele>
        <time>2019-05-25T11:12:00Z</time>
      </trkpt>
      <trkpt lat="44.61311" lon="-0.23735">
        <ele>95.31</ele>
        <time>2019-05-25T11:12:33Z</time>
      </trkpt>
      <trkpt lat="44.61309" lon="-0.23734">
        <ele>94.83</ele>
        <time>2019-05-25T11:13:10Z</time>
      </trkpt>
      <trkpt lat="44.61308" lon="-0.23732">
        <ele>94.83</ele>
        <time>2019-05-25T11:13:40Z</time>
      </trkpt>
      <trkpt lat="44.61308" lon="-0.23732">
        <ele>94.83</ele>
        <time>2019-05-25T11:14:12Z</time>
      </trkpt>
      <trkpt lat="44.6131" lon="-0.23732">
        <ele>94.83</ele>
        <time>2019-05-25T11:14:46Z</time>
      </trkpt>
      <trkpt lat="44.61311" lon="-0.2373">
        <ele>95.79</ele>
        <time>2019-05-25T11:15:25Z</time>
      </trkpt>
      <trkpt lat="44.61309" lon="-0.2373">
        <ele>95.79</ele>
        <time>2019-05-25T11:16:01Z</time>
      </trkpt>
      <trkpt lat="44.61311" lon="-0.23731">
        <ele>95.79</ele>
        <time>2019-05-25T11:16:39Z</time>
      </trkpt>
      <trkpt lat="44.61311" lon="-0.23732">
        <ele>95.31</ele>
        <time>2019-05-25T11:16:57Z</time>
      </trkpt>
      <trkpt lat="44.6131" lon="-0.23733">
        <ele>94.83</ele>
        <time>2019-05-25T11:17:29Z</time>
      </trkpt>
      <trkpt lat="44.61308" lon="-0.23737">
        <ele>94.83</ele>
        <time>2019-05-25T11:17:56Z</time>
      </trkpt>
      <trkpt lat="44.6131" lon="-0.23734">
        <ele>97.23</ele>
        <time>2019-05-25T11:18:06Z</time>
      </trkpt>
      <trkpt lat="44.61308" lon="-0.23731">
        <ele>96.75</ele>
        <time>2019-05-25T11:18:28Z</time>
      </trkpt>
      <trkpt lat="44.61308" lon="-0.23728">
        <ele>95.31</ele>
        <time>2019-05-25T11:18:57Z</time>
      </trkpt>
      <trkpt lat="44.61306" lon="-0.23725">
        <ele>94.83</ele>
        <time>2019-05-25T11:19:10Z</time>
      </trkpt>
      <trkpt lat="44.61308" lon="-0.23724">
        <ele>94.83</ele>
        <time>2019-05-25T11:19:31Z</time>
      </trkpt>
      <trkpt lat="44.61309" lon="-0.23722">
        <ele>95.31</ele>
        <time>2019-05-25T11:19:46Z</time>
      </trkpt>
      <trkpt lat="44.61311" lon="-0.23721">
        <ele>94.35</ele>
        <time>2019-05-25T11:20:09Z</time>
      </trkpt>
      <trkpt lat="44.6131" lon="-0.23722">
        <ele>94.35</ele>
        <time>2019-05-25T11:20:26Z</time>
      </trkpt>
      <trkpt lat="44.61308" lon="-0.23721">
        <ele>94.35</ele>
        <time>2019-05-25T11:20:52Z</time>
      </trkpt>
      <trkpt lat="44.61309" lon="-0.23722">
        <ele>94.35</ele>
        <time>2019-05-25T11:21:32Z</time>
      </trkpt>
      <trkpt lat="44.61309" lon="-0.23721">
        <ele>94.83</ele>
        <time>2019-05-25T11:22:11Z</time>
      </trkpt>
      <trkpt lat="44.6131" lon="-0.23729">
        <ele>95.79</ele>
        <time>2019-05-25T11:22:26Z</time>
      </trkpt>
      <trkpt lat="44.6131" lon="-0.23732">
        <ele>95.79</ele>
        <time>2019-05-25T11:22:29Z</time>
      </trkpt>
      <trkpt lat="44.61311" lon="-0.23737">
        <ele>96.75</ele>
        <time>2019-05-25T11:22:47Z</time>
      </trkpt>
      <trkpt lat="44.6131" lon="-0.23735">
        <ele>96.75</ele>
        <time>2019-05-25T11:23:00Z</time>
      </trkpt>
      <trkpt lat="44.61308" lon="-0.23734">
        <ele>97.23</ele>
        <time>2019-05-25T11:23:25Z</time>
      </trkpt>
      <trkpt lat="44.61313" lon="-0.23742">
        <ele>97.23</ele>
        <time>2019-05-25T11:23:44Z</time>
      </trkpt>
      <trkpt lat="44.61323" lon="-0.23759">
        <ele>98.67</ele>
        <time>2019-05-25T11:24:01Z</time>
      </trkpt>
      <trkpt lat="44.61324" lon="-0.23761">
        <ele>97.23</ele>
        <time>2019-05-25T11:24:04Z</time>
      </trkpt>
      <trkpt lat="44.61325" lon="-0.23775">
        <ele>96.75</ele>
        <time>2019-05-25T11:24:20Z</time>
      </trkpt>
      <trkpt lat="44.61323" lon="-0.23778">
        <ele>96.75</ele>
        <time>2019-05-25T11:24:23Z</time>
      </trkpt>
      <trkpt lat="44.6132" lon="-0.23779">
        <ele>96.75</ele>
        <time>2019-05-25T11:24:27Z</time>
      </trkpt>
      <trkpt lat="44.61308" lon="-0.23772">
        <ele>96.75</ele>
        <time>2019-05-25T11:24:40Z</time>
      </trkpt>
      <trkpt lat="44.61298" lon="-0.23764">
        <ele>95.79</ele>
        <time>2019-05-25T11:24:53Z</time>
      </trkpt>
      <trkpt lat="44.61287" lon="-0.23759">
        <ele>94.83</ele>
        <time>2019-05-25T11:25:07Z</time>
      </trkpt>
      <trkpt lat="44.6128" lon="-0.23762">
        <ele>94.35</ele>
        <time>2019-05-25T11:25:16Z</time>
      </trkpt>
      <trkpt lat="44.61271" lon="-0.23767">
        <ele>92.42</ele>
        <time>2019-05-25T11:25:28Z</time>
      </trkpt>
      <trkpt lat="44.61255" lon="-0.23777">
        <ele>90.98</ele>
        <time>2019-05-25T11:25:44Z</time>
      </trkpt>
      <trkpt lat="44.61255" lon="-0.23777">
        <ele>90.98</ele>
        <time>2019-05-25T11:25:45Z</time>
      </trkpt>
      <trkpt lat="44.61248" lon="-0.23781">
        <ele>90.02</ele>
        <time>2019-05-25T11:25:53Z</time>
      </trkpt>
      <trkpt lat="44.61245" lon="-0.23783">
        <ele>89.06</ele>
        <time>2019-05-25T11:25:56Z</time>
      </trkpt>
      <trkpt lat="44.61241" lon="-0.23785">
        <ele>89.06</ele>
        <time>2019-05-25T11:26:00Z</time>
      </trkpt>
      <trkpt lat="44.61238" lon="-0.23787">
        <ele>88.58</ele>
        <time>2019-05-25T11:26:04Z</time>
      </trkpt>
      <trkpt lat="44.61235" lon="-0.23789">
        <ele>88.58</ele>
        <time>2019-05-25T11:26:08Z</time>
      </trkpt>
      <trkpt lat="44.61232" lon="-0.2379">
        <ele>87.62</ele>
        <time>2019-05-25T11:26:11Z</time>
      </trkpt>
      <trkpt lat="44.61228" lon="-0.23791">
        <ele>87.62</ele>
        <time>2019-05-25T11:26:15Z</time>
      </trkpt>
      <trkpt lat="44.61214" lon="-0.23791">
        <ele>86.66</ele>
        <time>2019-05-25T11:26:28Z</time>
      </trkpt>
      <trkpt lat="44.6121" lon="-0.2379">
        <ele>86.18</ele>
        <time>2019-05-25T11:26:32Z</time>
      </trkpt>
      <trkpt lat="44.61195" lon="-0.23785">
        <ele>84.25</ele>
        <time>2019-05-25T11:26:47Z</time>
      </trkpt>
      <trkpt lat="44.6118" lon="-0.23777">
        <ele>82.81</ele>
        <time>2019-05-25T11:27:02Z</time>
      </trkpt>
      <trkpt lat="44.61175" lon="-0.23774">
        <ele>82.33</ele>
        <time>2019-05-25T11:27:08Z</time>
      </trkpt>
      <trkpt lat="44.61169" lon="-0.23773">
        <ele>82.33</ele>
        <time>2019-05-25T11:27:14Z</time>
      </trkpt>
      <trkpt lat="44.61157" lon="-0.23771">
        <ele>81.85</ele>
        <time>2019-05-25T11:27:29Z</time>
      </trkpt>
      <trkpt lat="44.61148" lon="-0.2377">
        <ele>80.41</ele>
        <time>2019-05-25T11:27:41Z</time>
      </trkpt>
      <trkpt lat="44.61136" lon="-0.23771">
        <ele>79.45</ele>
        <time>2019-05-25T11:27:54Z</time>
      </trkpt>
      <trkpt lat="44.61135" lon="-0.23771">
        <ele>79.93</ele>
        <time>2019-05-25T11:27:56Z</time>
      </trkpt>
      <trkpt lat="44.61123" lon="-0.23771">
        <ele>77.04</ele>
        <time>2019-05-25T11:28:09Z</time>
      </trkpt>
      <trkpt lat="44.61114" lon="-0.2377">
        <ele>75.12</ele>
        <time>2019-05-25T11:28:25Z</time>
      </trkpt>
      <trkpt lat="44.61113" lon="-0.23771">
        <ele>75.12</ele>
        <time>2019-05-25T11:28:47Z</time>
      </trkpt>
      <trkpt lat="44.61111" lon="-0.23773">
        <ele>75.12</ele>
        <time>2019-05-25T11:28:58Z</time>
      </trkpt>
      <trkpt lat="44.61109" lon="-0.23774">
        <ele>74.64</ele>
        <time>2019-05-25T11:29:00Z</time>
      </trkpt>
      <trkpt lat="44.61101" lon="-0.23783">
        <ele>73.2</ele>
        <time>2019-05-25T11:29:14Z</time>
      </trkpt>
      <trkpt lat="44.611" lon="-0.2379">
        <ele>72.72</ele>
        <time>2019-05-25T11:29:21Z</time>
      </trkpt>
      <trkpt lat="44.61105" lon="-0.23798">
        <ele>75.12</ele>
        <time>2019-05-25T11:29:34Z</time>
      </trkpt>
      <trkpt lat="44.61111" lon="-0.23789">
        <ele>75.6</ele>
        <time>2019-05-25T11:30:05Z</time>
      </trkpt>
      <trkpt lat="44.6112" lon="-0.23796">
        <ele>74.16</ele>
        <time>2019-05-25T11:30:35Z</time>
      </trkpt>
      <trkpt lat="44.61117" lon="-0.23796">
        <ele>74.16</ele>
        <time>2019-05-25T11:30:38Z</time>
      </trkpt>
      <trkpt lat="44.611" lon="-0.23777">
        <ele>73.68</ele>
        <time>2019-05-25T11:30:56Z</time>
      </trkpt>
      <trkpt lat="44.61101" lon="-0.23765">
        <ele>74.64</ele>
        <time>2019-05-25T11:31:08Z</time>
      </trkpt>
      <trkpt lat="44.61109" lon="-0.23764">
        <ele>75.12</ele>
        <time>2019-05-25T11:31:34Z</time>
      </trkpt>
      <trkpt lat="44.61112" lon="-0.23764">
        <ele>75.6</ele>
        <time>2019-05-25T11:32:00Z</time>
      </trkpt>
      <trkpt lat="44.61114" lon="-0.23763">
        <ele>75.6</ele>
        <time>2019-05-25T11:32:29Z</time>
      </trkpt>
      <trkpt lat="44.61117" lon="-0.23767">
        <ele>76.08</ele>
        <time>2019-05-25T11:32:50Z</time>
      </trkpt>
      <trkpt lat="44.61111" lon="-0.23764">
        <ele>75.12</ele>
        <time>2019-05-25T11:33:16Z</time>
      </trkpt>
      <trkpt lat="44.61109" lon="-0.23766">
        <ele>75.12</ele>
        <time>2019-05-25T11:33:33Z</time>
      </trkpt>
      <trkpt lat="44.61103" lon="-0.23757">
        <ele>73.2</ele>
        <time>2019-05-25T11:33:52Z</time>
      </trkpt>
      <trkpt lat="44.61096" lon="-0.23753">
        <ele>69.35</ele>
        <time>2019-05-25T11:34:07Z</time>
      </trkpt>
      <trkpt lat="44.61089" lon="-0.23756">
        <ele>67.43</ele>
        <time>2019-05-25T11:34:24Z</time>
      </trkpt>
      <trkpt lat="44.61077" lon="-0.23775">
        <ele>67.91</ele>
        <time>2019-05-25T11:34:40Z</time>
      </trkpt>
      <trkpt lat="44.61075" lon="-0.2378">
        <ele>66.47</ele>
        <time>2019-05-25T11:34:44Z</time>
      </trkpt>
      <trkpt lat="44.61066" lon="-0.23788">
        <ele>68.87</ele>
        <time>2019-05-25T11:34:56Z</time>
      </trkpt>
      <trkpt lat="44.61056" lon="-0.23788">
        <ele>70.31</ele>
        <time>2019-05-25T11:35:14Z</time>
      </trkpt>
      <trkpt lat="44.6105" lon="-0.23786">
        <ele>72.24</ele>
        <time>2019-05-25T11:35:23Z</time>
      </trkpt>
      <trkpt lat="44.61045" lon="-0.23785">
        <ele>73.2</ele>
        <time>2019-05-25T11:35:30Z</time>
      </trkpt>
      <trkpt lat="44.61036" lon="-0.2378">
        <ele>76.56</ele>
        <time>2019-05-25T11:35:45Z</time>
      </trkpt>
      <trkpt lat="44.61028" lon="-0.23776">
        <ele>77.04</ele>
        <time>2019-05-25T11:35:53Z</time>
      </trkpt>
      <trkpt lat="44.61011" lon="-0.23766">
        <ele>78.48</ele>
        <time>2019-05-25T11:36:10Z</time>
      </trkpt>
      <trkpt lat="44.61005" lon="-0.23761">
        <ele>80.41</ele>
        <time>2019-05-25T11:36:17Z</time>
      </trkpt>
      <trkpt lat="44.61005" lon="-0.23771">
        <ele>80.89</ele>
        <time>2019-05-25T11:36:30Z</time>
      </trkpt>
      <trkpt lat="44.61005" lon="-0.23776">
        <ele>79.45</ele>
        <time>2019-05-25T11:36:34Z</time>
      </trkpt>
      <trkpt lat="44.61005" lon="-0.23802">
        <ele>79.93</ele>
        <time>2019-05-25T11:36:52Z</time>
      </trkpt>
      <trkpt lat="44.61005" lon="-0.23808">
        <ele>79.93</ele>
        <time>2019-05-25T11:36:57Z</time>
      </trkpt>
      <trkpt lat="44.61005" lon="-0.23813">
        <ele>79.45</ele>
        <time>2019-05-25T11:37:00Z</time>
      </trkpt>
      <trkpt lat="44.60996" lon="-0.23837">
        <ele>80.89</ele>
        <time>2019-05-25T11:37:19Z</time>
      </trkpt>
      <trkpt lat="44.6098" lon="-0.23857">
        <ele>81.37</ele>
        <time>2019-05-25T11:37:36Z</time>
      </trkpt>
      <trkpt lat="44.60974" lon="-0.23865">
        <ele>82.81</ele>
        <time>2019-05-25T11:37:56Z</time>
      </trkpt>
      <trkpt lat="44.6096" lon="-0.23863">
        <ele>83.77</ele>
        <time>2019-05-25T11:38:14Z</time>
      </trkpt>
      <trkpt lat="44.60945" lon="-0.23867">
        <ele>87.14</ele>
        <time>2019-05-25T11:38:29Z</time>
      </trkpt>
      <trkpt lat="44.60929" lon="-0.23871">
        <ele>90.5</ele>
        <time>2019-05-25T11:38:49Z</time>
      </trkpt>
      <trkpt lat="44.60916" lon="-0.23874">
        <ele>92.42</ele>
        <time>2019-05-25T11:39:09Z</time>
      </trkpt>
      <trkpt lat="44.60909" lon="-0.23879">
        <ele>94.35</ele>
        <time>2019-05-25T11:39:21Z</time>
      </trkpt>
      <trkpt lat="44.60902" lon="-0.23889">
        <ele>96.75</ele>
        <time>2019-05-25T11:39:37Z</time>
      </trkpt>
      <trkpt lat="44.609" lon="-0.23899">
        <ele>98.19</ele>
        <time>2019-05-25T11:39:47Z</time>
      </trkpt>
      <trkpt lat="44.60898" lon="-0.23901">
        <ele>98.19</ele>
        <time>2019-05-25T11:39:49Z</time>
      </trkpt>
      <trkpt lat="44.60893" lon="-0.23903">
        <ele>97.23</ele>
        <time>2019-05-25T11:39:55Z</time>
      </trkpt>
      <trkpt lat="44.60891" lon="-0.23906">
        <ele>97.23</ele>
        <time>2019-05-25T11:39:58Z</time>
      </trkpt>
      <trkpt lat="44.60891" lon="-0.2391">
        <ele>98.19</ele>
        <time>2019-05-25T11:40:01Z</time>
      </trkpt>
      <trkpt lat="44.60895" lon="-0.23927">
        <ele>98.19</ele>
        <time>2019-05-25T11:40:16Z</time>
      </trkpt>
      <trkpt lat="44.60896" lon="-0.2393">
        <ele>98.19</ele>
        <time>2019-05-25T11:40:18Z</time>
      </trkpt>
      <trkpt lat="44.60902" lon="-0.23949">
        <ele>99.63</ele>
        <time>2019-05-25T11:40:30Z</time>
      </trkpt>
      <trkpt lat="44.60907" lon="-0.23966">
        <ele>99.63</ele>
        <time>2019-05-25T11:40:41Z</time>
      </trkpt>
      <trkpt lat="44.60911" lon="-0.23984">
        <ele>99.15</ele>
        <time>2019-05-25T11:40:52Z</time>
      </trkpt>
      <trkpt lat="44.60913" lon="-0.23988">
        <ele>100.6</ele>
        <time>2019-05-25T11:40:55Z</time>
      </trkpt>
      <trkpt lat="44.60918" lon="-0.24007">
        <ele>101.08</ele>
        <time>2019-05-25T11:41:07Z</time>
      </trkpt>
      <trkpt lat="44.60925" lon="-0.24027">
        <ele>102.52</ele>
        <time>2019-05-25T11:41:19Z</time>
      </trkpt>
      <trkpt lat="44.60927" lon="-0.24033">
        <ele>101.08</ele>
        <time>2019-05-25T11:41:23Z</time>
      </trkpt>
      <trkpt lat="44.60934" lon="-0.24051">
        <ele>103.48</ele>
        <time>2019-05-25T11:41:35Z</time>
      </trkpt>
      <trkpt lat="44.60934" lon="-0.24053">
        <ele>103.48</ele>
        <time>2019-05-25T11:41:36Z</time>
      </trkpt>
      <trkpt lat="44.60939" lon="-0.24077">
        <ele>103.48</ele>
        <time>2019-05-25T11:41:49Z</time>
      </trkpt>
      <trkpt lat="44.60945" lon="-0.24099">
        <ele>104.92</ele>
        <time>2019-05-25T11:42:01Z</time>
      </trkpt>
      <trkpt lat="44.60948" lon="-0.24117">
        <ele>105.4</ele>
        <time>2019-05-25T11:42:12Z</time>
      </trkpt>
      <trkpt lat="44.60954" lon="-0.24134">
        <ele>105.88</ele>
        <time>2019-05-25T11:42:23Z</time>
      </trkpt>
      <trkpt lat="44.60959" lon="-0.24152">
        <ele>106.84</ele>
        <time>2019-05-25T11:42:34Z</time>
      </trkpt>
      <trkpt lat="44.60959" lon="-0.24156">
        <ele>104.92</ele>
        <time>2019-05-25T11:42:36Z</time>
      </trkpt>
      <trkpt lat="44.60961" lon="-0.24163">
        <ele>106.36</ele>
        <time>2019-05-25T11:42:40Z</time>
      </trkpt>
      <trkpt lat="44.60965" lon="-0.24185">
        <ele>107.81</ele>
        <time>2019-05-25T11:42:52Z</time>
      </trkpt>
      <trkpt lat="44.6097" lon="-0.24207">
        <ele>107.81</ele>
        <time>2019-05-25T11:43:04Z</time>
      </trkpt>
      <trkpt lat="44.60974" lon="-0.24228">
        <ele>108.29</ele>
        <time>2019-05-25T11:43:17Z</time>
      </trkpt>
      <trkpt lat="44.60977" lon="-0.24245">
        <ele>108.29</ele>
        <time>2019-05-25T11:43:27Z</time>
      </trkpt>
      <trkpt lat="44.6098" lon="-0.24261">
        <ele>107.81</ele>
        <time>2019-05-25T11:43:37Z</time>
      </trkpt>
      <trkpt lat="44.60981" lon="-0.24264">
        <ele>108.77</ele>
        <time>2019-05-25T11:43:39Z</time>
      </trkpt>
      <trkpt lat="44.60987" lon="-0.24288">
        <ele>109.73</ele>
        <time>2019-05-25T11:43:54Z</time>
      </trkpt>
      <trkpt lat="44.60989" lon="-0.24306">
        <ele>108.29</ele>
        <time>2019-05-25T11:44:06Z</time>
      </trkpt>
      <trkpt lat="44.60989" lon="-0.24306">
        <ele>108.29</ele>
        <time>2019-05-25T11:44:07Z</time>
      </trkpt>
      <trkpt lat="44.60987" lon="-0.2431">
        <ele>108.29</ele>
        <time>2019-05-25T11:44:20Z</time>
      </trkpt>
      <trkpt lat="44.60984" lon="-0.24317">
        <ele>108.29</ele>
        <time>2019-05-25T11:44:26Z</time>
      </trkpt>
      <trkpt lat="44.60969" lon="-0.24319">
        <ele>108.29</ele>
        <time>2019-05-25T11:44:40Z</time>
      </trkpt>
      <trkpt lat="44.60959" lon="-0.24325">
        <ele>107.81</ele>
        <time>2019-05-25T11:44:50Z</time>
      </trkpt>
      <trkpt lat="44.60954" lon="-0.24347">
        <ele>107.81</ele>
        <time>2019-05-25T11:45:04Z</time>
      </trkpt>
      <trkpt lat="44.60949" lon="-0.2437">
        <ele>106.84</ele>
        <time>2019-05-25T11:45:17Z</time>
      </trkpt>
      <trkpt lat="44.60941" lon="-0.24392">
        <ele>104.92</ele>
        <time>2019-05-25T11:45:31Z</time>
      </trkpt>
      <trkpt lat="44.60934" lon="-0.24417">
        <ele>104.92</ele>
        <time>2019-05-25T11:45:45Z</time>
      </trkpt>
      <trkpt lat="44.60927" lon="-0.24438">
        <ele>103.96</ele>
        <time>2019-05-25T11:45:58Z</time>
      </trkpt>
      <trkpt lat="44.60918" lon="-0.24459">
        <ele>103.96</ele>
        <time>2019-05-25T11:46:11Z</time>
      </trkpt>
      <trkpt lat="44.60911" lon="-0.24482">
        <ele>103.48</ele>
        <time>2019-05-25T11:46:24Z</time>
      </trkpt>
      <trkpt lat="44.60903" lon="-0.24506">
        <ele>103</ele>
        <time>2019-05-25T11:46:38Z</time>
      </trkpt>
      <trkpt lat="44.60899" lon="-0.24526">
        <ele>102.04</ele>
        <time>2019-05-25T11:46:51Z</time>
      </trkpt>
      <trkpt lat="44.60893" lon="-0.24545">
        <ele>102.04</ele>
        <time>2019-05-25T11:47:03Z</time>
      </trkpt>
      <trkpt lat="44.60889" lon="-0.24568">
        <ele>101.56</ele>
        <time>2019-05-25T11:47:15Z</time>
      </trkpt>
      <trkpt lat="44.60885" lon="-0.24592">
        <ele>101.56</ele>
        <time>2019-05-25T11:47:28Z</time>
      </trkpt>
      <trkpt lat="44.60885" lon="-0.24596">
        <ele>101.56</ele>
        <time>2019-05-25T11:47:30Z</time>
      </trkpt>
      <trkpt lat="44.60883" lon="-0.24608">
        <ele>102.52</ele>
        <time>2019-05-25T11:47:36Z</time>
      </trkpt>
      <trkpt lat="44.60879" lon="-0.2463">
        <ele>100.6</ele>
        <time>2019-05-25T11:47:49Z</time>
      </trkpt>
      <trkpt lat="44.60874" lon="-0.24652">
        <ele>101.56</ele>
        <time>2019-05-25T11:48:01Z</time>
      </trkpt>
      <trkpt lat="44.60871" lon="-0.24662">
        <ele>100.11</ele>
        <time>2019-05-25T11:48:07Z</time>
      </trkpt>
      <trkpt lat="44.60865" lon="-0.24686">
        <ele>101.08</ele>
        <time>2019-05-25T11:48:19Z</time>
      </trkpt>
      <trkpt lat="44.60864" lon="-0.24689">
        <ele>99.63</ele>
        <time>2019-05-25T11:48:21Z</time>
      </trkpt>
      <trkpt lat="44.60859" lon="-0.24711">
        <ele>99.63</ele>
        <time>2019-05-25T11:48:33Z</time>
      </trkpt>
      <trkpt lat="44.60853" lon="-0.24735">
        <ele>99.15</ele>
        <time>2019-05-25T11:48:46Z</time>
      </trkpt>
      <trkpt lat="44.60845" lon="-0.2476">
        <ele>99.63</ele>
        <time>2019-05-25T11:49:00Z</time>
      </trkpt>
      <trkpt lat="44.60838" lon="-0.24783">
        <ele>97.71</ele>
        <time>2019-05-25T11:49:13Z</time>
      </trkpt>
      <trkpt lat="44.60835" lon="-0.24798">
        <ele>97.71</ele>
        <time>2019-05-25T11:49:23Z</time>
      </trkpt>
      <trkpt lat="44.60828" lon="-0.24821">
        <ele>98.67</ele>
        <time>2019-05-25T11:49:37Z</time>
      </trkpt>
      <trkpt lat="44.60825" lon="-0.24831">
        <ele>97.23</ele>
        <time>2019-05-25T11:49:42Z</time>
      </trkpt>
      <trkpt lat="44.60818" lon="-0.24852">
        <ele>96.27</ele>
        <time>2019-05-25T11:49:54Z</time>
      </trkpt>
      <trkpt lat="44.60818" lon="-0.24854">
        <ele>96.27</ele>
        <time>2019-05-25T11:49:55Z</time>
      </trkpt>
      <trkpt lat="44.60808" lon="-0.24873">
        <ele>96.75</ele>
        <time>2019-05-25T11:50:09Z</time>
      </trkpt>
      <trkpt lat="44.60797" lon="-0.24891">
        <ele>96.75</ele>
        <time>2019-05-25T11:50:23Z</time>
      </trkpt>
      <trkpt lat="44.60796" lon="-0.24893">
        <ele>95.31</ele>
        <time>2019-05-25T11:50:25Z</time>
      </trkpt>
      <trkpt lat="44.60788" lon="-0.24904">
        <ele>94.83</ele>
        <time>2019-05-25T11:50:35Z</time>
      </trkpt>
      <trkpt lat="44.60779" lon="-0.24904">
        <ele>94.35</ele>
        <time>2019-05-25T11:50:44Z</time>
      </trkpt>
      <trkpt lat="44.60767" lon="-0.24894">
        <ele>91.46</ele>
        <time>2019-05-25T11:50:56Z</time>
      </trkpt>
      <trkpt lat="44.60758" lon="-0.24887">
        <ele>90.02</ele>
        <time>2019-05-25T11:51:06Z</time>
      </trkpt>
      <trkpt lat="44.60751" lon="-0.24871">
        <ele>86.18</ele>
        <time>2019-05-25T11:51:18Z</time>
      </trkpt>
      <trkpt lat="44.60751" lon="-0.24869">
        <ele>86.18</ele>
        <time>2019-05-25T11:51:19Z</time>
      </trkpt>
      <trkpt lat="44.60742" lon="-0.24861">
        <ele>83.77</ele>
        <time>2019-05-25T11:51:30Z</time>
      </trkpt>
      <trkpt lat="44.6074" lon="-0.2486">
        <ele>83.77</ele>
        <time>2019-05-25T11:51:32Z</time>
      </trkpt>
      <trkpt lat="44.60738" lon="-0.2486">
        <ele>83.29</ele>
        <time>2019-05-25T11:51:34Z</time>
      </trkpt>
      <trkpt lat="44.60725" lon="-0.24853">
        <ele>81.37</ele>
        <time>2019-05-25T11:51:46Z</time>
      </trkpt>
      <trkpt lat="44.60713" lon="-0.24849">
        <ele>79.45</ele>
        <time>2019-05-25T11:51:57Z</time>
      </trkpt>
      <trkpt lat="44.607" lon="-0.24846">
        <ele>77.52</ele>
        <time>2019-05-25T11:52:08Z</time>
      </trkpt>
      <trkpt lat="44.60689" lon="-0.24852">
        <ele>75.6</ele>
        <time>2019-05-25T11:52:20Z</time>
      </trkpt>
      <trkpt lat="44.60676" lon="-0.24862">
        <ele>74.16</ele>
        <time>2019-05-25T11:52:32Z</time>
      </trkpt>
      <trkpt lat="44.60664" lon="-0.2487">
        <ele>72.24</ele>
        <time>2019-05-25T11:52:44Z</time>
      </trkpt>
      <trkpt lat="44.60652" lon="-0.24879">
        <ele>70.79</ele>
        <time>2019-05-25T11:52:55Z</time>
      </trkpt>
      <trkpt lat="44.60652" lon="-0.2488">
        <ele>70.79</ele>
        <time>2019-05-25T11:52:56Z</time>
      </trkpt>
      <trkpt lat="44.60636" lon="-0.2488">
        <ele>69.35</ele>
        <time>2019-05-25T11:53:09Z</time>
      </trkpt>
      <trkpt lat="44.60624" lon="-0.24882">
        <ele>67.91</ele>
        <time>2019-05-25T11:53:20Z</time>
      </trkpt>
      <trkpt lat="44.60608" lon="-0.24889">
        <ele>67.43</ele>
        <time>2019-05-25T11:53:32Z</time>
      </trkpt>
      <trkpt lat="44.60596" lon="-0.249">
        <ele>66.95</ele>
        <time>2019-05-25T11:53:44Z</time>
      </trkpt>
      <trkpt lat="44.60586" lon="-0.24916">
        <ele>66.95</ele>
        <time>2019-05-25T11:53:55Z</time>
      </trkpt>
      <trkpt lat="44.60577" lon="-0.24928">
        <ele>65.51</ele>
        <time>2019-05-25T11:54:04Z</time>
      </trkpt>
      <trkpt lat="44.60574" lon="-0.24932">
        <ele>66.47</ele>
        <time>2019-05-25T11:54:07Z</time>
      </trkpt>
      <trkpt lat="44.60569" lon="-0.24938">
        <ele>65.99</ele>
        <time>2019-05-25T11:54:13Z</time>
      </trkpt>
      <trkpt lat="44.60558" lon="-0.24953">
        <ele>64.55</ele>
        <time>2019-05-25T11:54:25Z</time>
      </trkpt>
      <trkpt lat="44.60547" lon="-0.24967">
        <ele>64.55</ele>
        <time>2019-05-25T11:54:37Z</time>
      </trkpt>
      <trkpt lat="44.60537" lon="-0.24984">
        <ele>64.07</ele>
        <time>2019-05-25T11:54:49Z</time>
      </trkpt>
      <trkpt lat="44.60529" lon="-0.25">
        <ele>63.58</ele>
        <time>2019-05-25T11:55:01Z</time>
      </trkpt>
      <trkpt lat="44.60522" lon="-0.25015">
        <ele>63.58</ele>
        <time>2019-05-25T11:55:11Z</time>
      </trkpt>
      <trkpt lat="44.60514" lon="-0.25035">
        <ele>64.07</ele>
        <time>2019-05-25T11:55:24Z</time>
      </trkpt>
      <trkpt lat="44.6051" lon="-0.25046">
        <ele>63.1</ele>
        <time>2019-05-25T11:55:32Z</time>
      </trkpt>
      <trkpt lat="44.60502" lon="-0.25066">
        <ele>63.58</ele>
        <time>2019-05-25T11:55:46Z</time>
      </trkpt>
      <trkpt lat="44.605" lon="-0.25074">
        <ele>62.14</ele>
        <time>2019-05-25T11:55:51Z</time>
      </trkpt>
      <trkpt lat="44.60494" lon="-0.25092">
        <ele>61.66</ele>
        <time>2019-05-25T11:56:02Z</time>
      </trkpt>
      <trkpt lat="44.60488" lon="-0.2511">
        <ele>60.7</ele>
        <time>2019-05-25T11:56:14Z</time>
      </trkpt>
      <trkpt lat="44.60482" lon="-0.25133">
        <ele>59.26</ele>
        <time>2019-05-25T11:56:28Z</time>
      </trkpt>
      <trkpt lat="44.60478" lon="-0.25147">
        <ele>59.26</ele>
        <time>2019-05-25T11:56:37Z</time>
      </trkpt>
      <trkpt lat="44.60475" lon="-0.25158">
        <ele>58.3</ele>
        <time>2019-05-25T11:56:44Z</time>
      </trkpt>
      <trkpt lat="44.60469" lon="-0.25182">
        <ele>57.82</ele>
        <time>2019-05-25T11:56:58Z</time>
      </trkpt>
      <trkpt lat="44.6046" lon="-0.25208">
        <ele>56.86</ele>
        <time>2019-05-25T11:57:14Z</time>
      </trkpt>
      <trkpt lat="44.60458" lon="-0.25221">
        <ele>57.82</ele>
        <time>2019-05-25T11:57:22Z</time>
      </trkpt>
      <trkpt lat="44.60456" lon="-0.25236">
        <ele>57.82</ele>
        <time>2019-05-25T11:57:31Z</time>
      </trkpt>
      <trkpt lat="44.60448" lon="-0.25252">
        <ele>57.34</ele>
        <time>2019-05-25T11:57:41Z</time>
      </trkpt>
      <trkpt lat="44.60445" lon="-0.25255">
        <ele>55.89</ele>
        <time>2019-05-25T11:57:44Z</time>
      </trkpt>
      <trkpt lat="44.60435" lon="-0.25275">
        <ele>56.37</ele>
        <time>2019-05-25T11:57:58Z</time>
      </trkpt>
      <trkpt lat="44.60428" lon="-0.25284">
        <ele>55.41</ele>
        <time>2019-05-25T11:58:05Z</time>
      </trkpt>
      <trkpt lat="44.60416" lon="-0.25307">
        <ele>55.89</ele>
        <time>2019-05-25T11:58:21Z</time>
      </trkpt>
      <trkpt lat="44.60406" lon="-0.2533">
        <ele>54.45</ele>
        <time>2019-05-25T11:58:35Z</time>
      </trkpt>
      <trkpt lat="44.604" lon="-0.25341">
        <ele>54.93</ele>
        <time>2019-05-25T11:58:43Z</time>
      </trkpt>
      <trkpt lat="44.60396" lon="-0.25348">
        <ele>53.49</ele>
        <time>2019-05-25T11:58:48Z</time>
      </trkpt>
      <trkpt lat="44.60384" lon="-0.25366">
        <ele>53.49</ele>
        <time>2019-05-25T11:59:02Z</time>
      </trkpt>
      <trkpt lat="44.60375" lon="-0.25379">
        <ele>52.05</ele>
        <time>2019-05-25T11:59:12Z</time>
      </trkpt>
      <trkpt lat="44.6036" lon="-0.25391">
        <ele>51.09</ele>
        <time>2019-05-25T11:59:27Z</time>
      </trkpt>
      <trkpt lat="44.60344" lon="-0.25408">
        <ele>50.13</ele>
        <time>2019-05-25T11:59:42Z</time>
      </trkpt>
      <trkpt lat="44.6033" lon="-0.25421">
        <ele>48.68</ele>
        <time>2019-05-25T11:59:57Z</time>
      </trkpt>
      <trkpt lat="44.60312" lon="-0.25434">
        <ele>46.76</ele>
        <time>2019-05-25T12:00:13Z</time>
      </trkpt>
      <trkpt lat="44.60294" lon="-0.2545">
        <ele>45.32</ele>
        <time>2019-05-25T12:00:29Z</time>
      </trkpt>
      <trkpt lat="44.60278" lon="-0.25462">
        <ele>44.36</ele>
        <time>2019-05-25T12:00:44Z</time>
      </trkpt>
      <trkpt lat="44.60271" lon="-0.25466">
        <ele>43.4</ele>
        <time>2019-05-25T12:00:51Z</time>
      </trkpt>
      <trkpt lat="44.60247" lon="-0.25471">
        <ele>41.95</ele>
        <time>2019-05-25T12:01:10Z</time>
      </trkpt>
      <trkpt lat="44.60222" lon="-0.25476">
        <ele>40.03</ele>
        <time>2019-05-25T12:01:29Z</time>
      </trkpt>
      <trkpt lat="44.602" lon="-0.25481">
        <ele>38.59</ele>
        <time>2019-05-25T12:01:46Z</time>
      </trkpt>
      <trkpt lat="44.60175" lon="-0.2549">
        <ele>36.67</ele>
        <time>2019-05-25T12:02:03Z</time>
      </trkpt>
      <trkpt lat="44.60157" lon="-0.25501">
        <ele>35.71</ele>
        <time>2019-05-25T12:02:20Z</time>
      </trkpt>
      <trkpt lat="44.60153" lon="-0.25526">
        <ele>34.74</ele>
        <time>2019-05-25T12:02:37Z</time>
      </trkpt>
      <trkpt lat="44.60147" lon="-0.25551">
        <ele>33.78</ele>
        <time>2019-05-25T12:02:54Z</time>
      </trkpt>
      <trkpt lat="44.60144" lon="-0.25577">
        <ele>33.3</ele>
        <time>2019-05-25T12:03:09Z</time>
      </trkpt>
      <trkpt lat="44.60142" lon="-0.25588">
        <ele>34.74</ele>
        <time>2019-05-25T12:03:16Z</time>
      </trkpt>
      <trkpt lat="44.60141" lon="-0.25594">
        <ele>33.3</ele>
        <time>2019-05-25T12:03:20Z</time>
      </trkpt>
      <trkpt lat="44.60141" lon="-0.25597">
        <ele>34.74</ele>
        <time>2019-05-25T12:03:22Z</time>
      </trkpt>
      <trkpt lat="44.60132" lon="-0.25627">
        <ele>36.19</ele>
        <time>2019-05-25T12:03:38Z</time>
      </trkpt>
      <trkpt lat="44.60129" lon="-0.25643">
        <ele>35.23</ele>
        <time>2019-05-25T12:03:45Z</time>
      </trkpt>
      <trkpt lat="44.60124" lon="-0.25675">
        <ele>37.63</ele>
        <time>2019-05-25T12:04:03Z</time>
      </trkpt>
      <trkpt lat="44.60123" lon="-0.25677">
        <ele>40.51</ele>
        <time>2019-05-25T12:04:05Z</time>
      </trkpt>
      <trkpt lat="44.60123" lon="-0.25679">
        <ele>40.51</ele>
        <time>2019-05-25T12:04:06Z</time>
      </trkpt>
      <trkpt lat="44.60121" lon="-0.25681">
        <ele>40.99</ele>
        <time>2019-05-25T12:04:08Z</time>
      </trkpt>
      <trkpt lat="44.60116" lon="-0.25688">
        <ele>40.51</ele>
        <time>2019-05-25T12:04:12Z</time>
      </trkpt>
      <trkpt lat="44.60103" lon="-0.25705">
        <ele>43.4</ele>
        <time>2019-05-25T12:04:25Z</time>
      </trkpt>
      <trkpt lat="44.60085" lon="-0.25727">
        <ele>45.8</ele>
        <time>2019-05-25T12:04:39Z</time>
      </trkpt>
      <trkpt lat="44.60073" lon="-0.25731">
        <ele>46.76</ele>
        <time>2019-05-25T12:04:46Z</time>
      </trkpt>
      <trkpt lat="44.60067" lon="-0.25733">
        <ele>45.32</ele>
        <time>2019-05-25T12:04:49Z</time>
      </trkpt>
      <trkpt lat="44.60065" lon="-0.25733">
        <ele>46.76</ele>
        <time>2019-05-25T12:04:51Z</time>
      </trkpt>
      <trkpt lat="44.60046" lon="-0.25736">
        <ele>49.65</ele>
        <time>2019-05-25T12:05:05Z</time>
      </trkpt>
      <trkpt lat="44.60028" lon="-0.25739">
        <ele>51.09</ele>
        <time>2019-05-25T12:05:16Z</time>
      </trkpt>
      <trkpt lat="44.60011" lon="-0.25743">
        <ele>51.57</ele>
        <time>2019-05-25T12:05:28Z</time>
      </trkpt>
      <trkpt lat="44.60008" lon="-0.25744">
        <ele>53.49</ele>
        <time>2019-05-25T12:05:30Z</time>
      </trkpt>
      <trkpt lat="44.60003" lon="-0.25745">
        <ele>53.01</ele>
        <time>2019-05-25T12:05:34Z</time>
      </trkpt>
      <trkpt lat="44.59978" lon="-0.25756">
        <ele>54.45</ele>
        <time>2019-05-25T12:05:51Z</time>
      </trkpt>
      <trkpt lat="44.59971" lon="-0.25759">
        <ele>53.97</ele>
        <time>2019-05-25T12:05:55Z</time>
      </trkpt>
      <trkpt lat="44.59965" lon="-0.25763">
        <ele>55.41</ele>
        <time>2019-05-25T12:06:00Z</time>
      </trkpt>
      <trkpt lat="44.59948" lon="-0.2578">
        <ele>55.41</ele>
        <time>2019-05-25T12:06:17Z</time>
      </trkpt>
      <trkpt lat="44.59947" lon="-0.25782">
        <ele>55.41</ele>
        <time>2019-05-25T12:06:30Z</time>
      </trkpt>
      <trkpt lat="44.59942" lon="-0.2578">
        <ele>55.89</ele>
        <time>2019-05-25T12:06:45Z</time>
      </trkpt>
      <trkpt lat="44.59927" lon="-0.25799">
        <ele>56.37</ele>
        <time>2019-05-25T12:07:00Z</time>
      </trkpt>
      <trkpt lat="44.5991" lon="-0.25819">
        <ele>54.93</ele>
        <time>2019-05-25T12:07:18Z</time>
      </trkpt>
      <trkpt lat="44.59901" lon="-0.2583">
        <ele>56.37</ele>
        <time>2019-05-25T12:07:27Z</time>
      </trkpt>
      <trkpt lat="44.59886" lon="-0.25846">
        <ele>56.86</ele>
        <time>2019-05-25T12:07:42Z</time>
      </trkpt>
      <trkpt lat="44.59873" lon="-0.2586">
        <ele>58.3</ele>
        <time>2019-05-25T12:07:59Z</time>
      </trkpt>
      <trkpt lat="44.59868" lon="-0.25863">
        <ele>57.82</ele>
        <time>2019-05-25T12:08:07Z</time>
      </trkpt>
      <trkpt lat="44.59855" lon="-0.25849">
        <ele>56.86</ele>
        <time>2019-05-25T12:08:23Z</time>
      </trkpt>
      <trkpt lat="44.59851" lon="-0.25844">
        <ele>56.86</ele>
        <time>2019-05-25T12:08:29Z</time>
      </trkpt>
      <trkpt lat="44.59849" lon="-0.25841">
        <ele>56.86</ele>
        <time>2019-05-25T12:08:32Z</time>
      </trkpt>
      <trkpt lat="44.59834" lon="-0.2582">
        <ele>57.34</ele>
        <time>2019-05-25T12:08:48Z</time>
      </trkpt>
      <trkpt lat="44.59818" lon="-0.25797">
        <ele>56.86</ele>
        <time>2019-05-25T12:09:07Z</time>
      </trkpt>
      <trkpt lat="44.59818" lon="-0.25796">
        <ele>56.86</ele>
        <time>2019-05-25T12:09:08Z</time>
      </trkpt>
      <trkpt lat="44.59806" lon="-0.25781">
        <ele>56.86</ele>
        <time>2019-05-25T12:09:22Z</time>
      </trkpt>
      <trkpt lat="44.59802" lon="-0.25775">
        <ele>56.86</ele>
        <time>2019-05-25T12:09:27Z</time>
      </trkpt>
      <trkpt lat="44.598" lon="-0.2577">
        <ele>56.37</ele>
        <time>2019-05-25T12:09:30Z</time>
      </trkpt>
      <trkpt lat="44.59791" lon="-0.25758">
        <ele>57.82</ele>
        <time>2019-05-25T12:09:42Z</time>
      </trkpt>
      <trkpt lat="44.59782" lon="-0.25752">
        <ele>57.82</ele>
        <time>2019-05-25T12:09:53Z</time>
      </trkpt>
      <trkpt lat="44.59772" lon="-0.25766">
        <ele>58.3</ele>
        <time>2019-05-25T12:10:06Z</time>
      </trkpt>
      <trkpt lat="44.59765" lon="-0.25776">
        <ele>58.3</ele>
        <time>2019-05-25T12:10:21Z</time>
      </trkpt>
      <trkpt lat="44.59753" lon="-0.25798">
        <ele>58.78</ele>
        <time>2019-05-25T12:10:37Z</time>
      </trkpt>
      <trkpt lat="44.59747" lon="-0.25816">
        <ele>58.3</ele>
        <time>2019-05-25T12:10:49Z</time>
      </trkpt>
      <trkpt lat="44.59745" lon="-0.25819">
        <ele>59.26</ele>
        <time>2019-05-25T12:10:51Z</time>
      </trkpt>
      <trkpt lat="44.59733" lon="-0.2584">
        <ele>60.22</ele>
        <time>2019-05-25T12:11:07Z</time>
      </trkpt>
      <trkpt lat="44.59719" lon="-0.25855">
        <ele>60.7</ele>
        <time>2019-05-25T12:11:21Z</time>
      </trkpt>
      <trkpt lat="44.59708" lon="-0.25865">
        <ele>62.14</ele>
        <time>2019-05-25T12:11:32Z</time>
      </trkpt>
      <trkpt lat="44.59692" lon="-0.25883">
        <ele>63.58</ele>
        <time>2019-05-25T12:11:49Z</time>
      </trkpt>
      <trkpt lat="44.59674" lon="-0.25896">
        <ele>64.55</ele>
        <time>2019-05-25T12:12:05Z</time>
      </trkpt>
      <trkpt lat="44.59657" lon="-0.25912">
        <ele>65.99</ele>
        <time>2019-05-25T12:12:22Z</time>
      </trkpt>
      <trkpt lat="44.59644" lon="-0.25922">
        <ele>68.39</ele>
        <time>2019-05-25T12:12:35Z</time>
      </trkpt>
      <trkpt lat="44.59637" lon="-0.25928">
        <ele>70.31</ele>
        <time>2019-05-25T12:12:44Z</time>
      </trkpt>
      <trkpt lat="44.59633" lon="-0.25927">
        <ele>68.87</ele>
        <time>2019-05-25T12:12:47Z</time>
      </trkpt>
      <trkpt lat="44.59627" lon="-0.25925">
        <ele>70.31</ele>
        <time>2019-05-25T12:12:52Z</time>
      </trkpt>
      <trkpt lat="44.59622" lon="-0.25922">
        <ele>70.31</ele>
        <time>2019-05-25T12:12:58Z</time>
      </trkpt>
      <trkpt lat="44.59605" lon="-0.25909">
        <ele>70.79</ele>
        <time>2019-05-25T12:13:16Z</time>
      </trkpt>
      <trkpt lat="44.59591" lon="-0.25898">
        <ele>71.76</ele>
        <time>2019-05-25T12:13:30Z</time>
      </trkpt>
      <trkpt lat="44.59573" lon="-0.25883">
        <ele>73.2</ele>
        <time>2019-05-25T12:13:47Z</time>
      </trkpt>
      <trkpt lat="44.5957" lon="-0.25879">
        <ele>73.68</ele>
        <time>2019-05-25T12:13:51Z</time>
      </trkpt>
      <trkpt lat="44.59557" lon="-0.25858">
        <ele>74.16</ele>
        <time>2019-05-25T12:14:08Z</time>
      </trkpt>
      <trkpt lat="44.59555" lon="-0.25854">
        <ele>74.16</ele>
        <time>2019-05-25T12:14:11Z</time>
      </trkpt>
      <trkpt lat="44.5954" lon="-0.25846">
        <ele>74.64</ele>
        <time>2019-05-25T12:14:27Z</time>
      </trkpt>
      <trkpt lat="44.59537" lon="-0.25851">
        <ele>76.08</ele>
        <time>2019-05-25T12:14:32Z</time>
      </trkpt>
      <trkpt lat="44.59534" lon="-0.2586">
        <ele>77.52</ele>
        <time>2019-05-25T12:14:39Z</time>
      </trkpt>
      <trkpt lat="44.59522" lon="-0.25879">
        <ele>80.41</ele>
        <time>2019-05-25T12:14:58Z</time>
      </trkpt>
      <trkpt lat="44.59522" lon="-0.2588">
        <ele>80.89</ele>
        <time>2019-05-25T12:14:59Z</time>
      </trkpt>
      <trkpt lat="44.59514" lon="-0.2589">
        <ele>80.89</ele>
        <time>2019-05-25T12:15:17Z</time>
      </trkpt>
      <trkpt lat="44.59513" lon="-0.25893">
        <ele>82.33</ele>
        <time>2019-05-25T12:15:25Z</time>
      </trkpt>
      <trkpt lat="44.59511" lon="-0.25894">
        <ele>82.33</ele>
        <time>2019-05-25T12:15:48Z</time>
      </trkpt>
      <trkpt lat="44.59511" lon="-0.25893">
        <ele>82.33</ele>
        <time>2019-05-25T12:16:13Z</time>
      </trkpt>
      <trkpt lat="44.5951" lon="-0.25895">
        <ele>80.89</ele>
        <time>2019-05-25T12:16:27Z</time>
      </trkpt>
      <trkpt lat="44.59509" lon="-0.25899">
        <ele>82.81</ele>
        <time>2019-05-25T12:16:29Z</time>
      </trkpt>
      <trkpt lat="44.59509" lon="-0.25899">
        <ele>82.81</ele>
        <time>2019-05-25T12:16:30Z</time>
      </trkpt>
      <trkpt lat="44.59497" lon="-0.25908">
        <ele>81.37</ele>
        <time>2019-05-25T12:16:43Z</time>
      </trkpt>
      <trkpt lat="44.59497" lon="-0.25909">
        <ele>81.37</ele>
        <time>2019-05-25T12:16:44Z</time>
      </trkpt>
      <trkpt lat="44.59485" lon="-0.25914">
        <ele>79.93</ele>
        <time>2019-05-25T12:16:57Z</time>
      </trkpt>
      <trkpt lat="44.59475" lon="-0.25917">
        <ele>78.48</ele>
        <time>2019-05-25T12:17:07Z</time>
      </trkpt>
      <trkpt lat="44.59473" lon="-0.25918">
        <ele>77.52</ele>
        <time>2019-05-25T12:17:09Z</time>
      </trkpt>
      <trkpt lat="44.59471" lon="-0.25919">
        <ele>77.52</ele>
        <time>2019-05-25T12:17:11Z</time>
      </trkpt>
      <trkpt lat="44.59458" lon="-0.25922">
        <ele>75.12</ele>
        <time>2019-05-25T12:17:23Z</time>
      </trkpt>
      <trkpt lat="44.5945" lon="-0.25924">
        <ele>73.68</ele>
        <time>2019-05-25T12:17:30Z</time>
      </trkpt>
      <trkpt lat="44.59445" lon="-0.25926">
        <ele>73.2</ele>
        <time>2019-05-25T12:17:34Z</time>
      </trkpt>
      <trkpt lat="44.59439" lon="-0.25926">
        <ele>71.76</ele>
        <time>2019-05-25T12:17:39Z</time>
      </trkpt>
      <trkpt lat="44.59435" lon="-0.25926">
        <ele>71.76</ele>
        <time>2019-05-25T12:17:43Z</time>
      </trkpt>
      <trkpt lat="44.59425" lon="-0.25929">
        <ele>70.31</ele>
        <time>2019-05-25T12:17:52Z</time>
      </trkpt>
      <trkpt lat="44.59412" lon="-0.25933">
        <ele>69.35</ele>
        <time>2019-05-25T12:18:03Z</time>
      </trkpt>
      <trkpt lat="44.59404" lon="-0.25933">
        <ele>68.87</ele>
        <time>2019-05-25T12:18:09Z</time>
      </trkpt>
      <trkpt lat="44.59401" lon="-0.25933">
        <ele>67.91</ele>
        <time>2019-05-25T12:18:12Z</time>
      </trkpt>
      <trkpt lat="44.59388" lon="-0.25931">
        <ele>66.47</ele>
        <time>2019-05-25T12:18:23Z</time>
      </trkpt>
      <trkpt lat="44.59379" lon="-0.25931">
        <ele>65.03</ele>
        <time>2019-05-25T12:18:31Z</time>
      </trkpt>
      <trkpt lat="44.59365" lon="-0.25933">
        <ele>63.1</ele>
        <time>2019-05-25T12:18:42Z</time>
      </trkpt>
      <trkpt lat="44.59351" lon="-0.25935">
        <ele>61.66</ele>
        <time>2019-05-25T12:18:54Z</time>
      </trkpt>
      <trkpt lat="44.5935" lon="-0.25935">
        <ele>61.66</ele>
        <time>2019-05-25T12:18:55Z</time>
      </trkpt>
      <trkpt lat="44.59335" lon="-0.25937">
        <ele>59.74</ele>
        <time>2019-05-25T12:19:07Z</time>
      </trkpt>
      <trkpt lat="44.59323" lon="-0.25936">
        <ele>58.78</ele>
        <time>2019-05-25T12:19:18Z</time>
      </trkpt>
      <trkpt lat="44.59322" lon="-0.25936">
        <ele>58.78</ele>
        <time>2019-05-25T12:19:19Z</time>
      </trkpt>
      <trkpt lat="44.59316" lon="-0.25923">
        <ele>58.3</ele>
        <time>2019-05-25T12:19:31Z</time>
      </trkpt>
      <trkpt lat="44.59314" lon="-0.25919">
        <ele>58.3</ele>
        <time>2019-05-25T12:19:47Z</time>
      </trkpt>
      <trkpt lat="44.59313" lon="-0.25919">
        <ele>57.82</ele>
        <time>2019-05-25T12:19:50Z</time>
      </trkpt>
      <trkpt lat="44.59313" lon="-0.25919">
        <ele>57.34</ele>
        <time>2019-05-25T12:20:02Z</time>
      </trkpt>
      <trkpt lat="44.59313" lon="-0.25919">
        <ele>57.34</ele>
        <time>2019-05-25T12:20:28Z</time>
      </trkpt>
      <trkpt lat="44.59311" lon="-0.25918">
        <ele>56.86</ele>
        <time>2019-05-25T12:20:50Z</time>
      </trkpt>
      <trkpt lat="44.59309" lon="-0.25919">
        <ele>56.86</ele>
        <time>2019-05-25T12:20:57Z</time>
      </trkpt>
      <trkpt lat="44.59305" lon="-0.25919">
        <ele>56.86</ele>
        <time>2019-05-25T12:21:00Z</time>
      </trkpt>
      <trkpt lat="44.59301" lon="-0.25915">
        <ele>55.89</ele>
        <time>2019-05-25T12:21:05Z</time>
      </trkpt>
      <trkpt lat="44.59287" lon="-0.25907">
        <ele>54.93</ele>
        <time>2019-05-25T12:21:18Z</time>
      </trkpt>
      <trkpt lat="44.59275" lon="-0.25898">
        <ele>53.97</ele>
        <time>2019-05-25T12:21:29Z</time>
      </trkpt>
      <trkpt lat="44.59263" lon="-0.25891">
        <ele>53.01</ele>
        <time>2019-05-25T12:21:41Z</time>
      </trkpt>
      <trkpt lat="44.59252" lon="-0.25883">
        <ele>51.57</ele>
        <time>2019-05-25T12:21:52Z</time>
      </trkpt>
      <trkpt lat="44.59247" lon="-0.2588">
        <ele>51.09</ele>
        <time>2019-05-25T12:21:57Z</time>
      </trkpt>
      <trkpt lat="44.59236" lon="-0.25874">
        <ele>51.09</ele>
        <time>2019-05-25T12:22:08Z</time>
      </trkpt>
      <trkpt lat="44.59234" lon="-0.25877">
        <ele>50.61</ele>
        <time>2019-05-25T12:22:11Z</time>
      </trkpt>
      <trkpt lat="44.59231" lon="-0.25895">
        <ele>49.65</ele>
        <time>2019-05-25T12:22:23Z</time>
      </trkpt>
      <trkpt lat="44.59227" lon="-0.25915">
        <ele>48.68</ele>
        <time>2019-05-25T12:22:35Z</time>
      </trkpt>
      <trkpt lat="44.59223" lon="-0.25933">
        <ele>47.72</ele>
        <time>2019-05-25T12:22:47Z</time>
      </trkpt>
      <trkpt lat="44.5922" lon="-0.25949">
        <ele>47.24</ele>
        <time>2019-05-25T12:22:57Z</time>
      </trkpt>
      <trkpt lat="44.59216" lon="-0.25965">
        <ele>46.76</ele>
        <time>2019-05-25T12:23:08Z</time>
      </trkpt>
      <trkpt lat="44.59212" lon="-0.25966">
        <ele>46.28</ele>
        <time>2019-05-25T12:23:12Z</time>
      </trkpt>
      <trkpt lat="44.59211" lon="-0.25964">
        <ele>46.28</ele>
        <time>2019-05-25T12:23:14Z</time>
      </trkpt>
      <trkpt lat="44.5921" lon="-0.2595">
        <ele>46.28</ele>
        <time>2019-05-25T12:23:23Z</time>
      </trkpt>
      <trkpt lat="44.59195" lon="-0.25941">
        <ele>44.36</ele>
        <time>2019-05-25T12:23:35Z</time>
      </trkpt>
      <trkpt lat="44.59186" lon="-0.25935">
        <ele>43.88</ele>
        <time>2019-05-25T12:23:44Z</time>
      </trkpt>
      <trkpt lat="44.59181" lon="-0.25933">
        <ele>42.92</ele>
        <time>2019-05-25T12:23:48Z</time>
      </trkpt>
      <trkpt lat="44.59167" lon="-0.25927">
        <ele>41.95</ele>
        <time>2019-05-25T12:23:59Z</time>
      </trkpt>
      <trkpt lat="44.59157" lon="-0.2592">
        <ele>40.51</ele>
        <time>2019-05-25T12:24:08Z</time>
      </trkpt>
      <trkpt lat="44.59149" lon="-0.25917">
        <ele>40.03</ele>
        <time>2019-05-25T12:24:15Z</time>
      </trkpt>
      <trkpt lat="44.59138" lon="-0.25912">
        <ele>39.55</ele>
        <time>2019-05-25T12:24:24Z</time>
      </trkpt>
      <trkpt lat="44.59123" lon="-0.25904">
        <ele>39.55</ele>
        <time>2019-05-25T12:24:37Z</time>
      </trkpt>
      <trkpt lat="44.59107" lon="-0.25894">
        <ele>38.11</ele>
        <time>2019-05-25T12:24:49Z</time>
      </trkpt>
      <trkpt lat="44.59092" lon="-0.25885">
        <ele>37.63</ele>
        <time>2019-05-25T12:25:01Z</time>
      </trkpt>
      <trkpt lat="44.5908" lon="-0.25879">
        <ele>37.63</ele>
        <time>2019-05-25T12:25:11Z</time>
      </trkpt>
      <trkpt lat="44.59067" lon="-0.25871">
        <ele>36.67</ele>
        <time>2019-05-25T12:25:22Z</time>
      </trkpt>
      <trkpt lat="44.59054" lon="-0.25861">
        <ele>36.67</ele>
        <time>2019-05-25T12:25:34Z</time>
      </trkpt>
      <trkpt lat="44.59042" lon="-0.25853">
        <ele>36.19</ele>
        <time>2019-05-25T12:25:45Z</time>
      </trkpt>
      <trkpt lat="44.5903" lon="-0.25845">
        <ele>36.19</ele>
        <time>2019-05-25T12:25:55Z</time>
      </trkpt>
      <trkpt lat="44.59019" lon="-0.25836">
        <ele>35.71</ele>
        <time>2019-05-25T12:26:06Z</time>
      </trkpt>
      <trkpt lat="44.59011" lon="-0.25832">
        <ele>35.71</ele>
        <time>2019-05-25T12:26:13Z</time>
      </trkpt>
      <trkpt lat="44.59006" lon="-0.25828">
        <ele>35.71</ele>
        <time>2019-05-25T12:26:17Z</time>
      </trkpt>
      <trkpt lat="44.59004" lon="-0.25823">
        <ele>35.71</ele>
        <time>2019-05-25T12:26:21Z</time>
      </trkpt>
      <trkpt lat="44.58997" lon="-0.25819">
        <ele>35.23</ele>
        <time>2019-05-25T12:26:27Z</time>
      </trkpt>
      <trkpt lat="44.58984" lon="-0.25813">
        <ele>35.23</ele>
        <time>2019-05-25T12:26:37Z</time>
      </trkpt>
      <trkpt lat="44.58974" lon="-0.25806">
        <ele>34.74</ele>
        <time>2019-05-25T12:26:45Z</time>
      </trkpt>
      <trkpt lat="44.58964" lon="-0.25803">
        <ele>34.74</ele>
        <time>2019-05-25T12:26:53Z</time>
      </trkpt>
      <trkpt lat="44.58947" lon="-0.25793">
        <ele>33.78</ele>
        <time>2019-05-25T12:27:06Z</time>
      </trkpt>
      <trkpt lat="44.5894" lon="-0.2579">
        <ele>33.78</ele>
        <time>2019-05-25T12:27:19Z</time>
      </trkpt>
      <trkpt lat="44.58932" lon="-0.25796">
        <ele>32.34</ele>
        <time>2019-05-25T12:27:32Z</time>
      </trkpt>
      <trkpt lat="44.58922" lon="-0.25805">
        <ele>32.34</ele>
        <time>2019-05-25T12:27:45Z</time>
      </trkpt>
      <trkpt lat="44.58919" lon="-0.25811">
        <ele>32.34</ele>
        <time>2019-05-25T12:27:50Z</time>
      </trkpt>
      <trkpt lat="44.58918" lon="-0.25831">
        <ele>32.34</ele>
        <time>2019-05-25T12:28:03Z</time>
      </trkpt>
      <trkpt lat="44.5891" lon="-0.25841">
        <ele>32.34</ele>
        <time>2019-05-25T12:28:14Z</time>
      </trkpt>
      <trkpt lat="44.58909" lon="-0.25842">
        <ele>32.34</ele>
        <time>2019-05-25T12:28:30Z</time>
      </trkpt>
      <trkpt lat="44.58909" lon="-0.25844">
        <ele>32.34</ele>
        <time>2019-05-25T12:28:31Z</time>
      </trkpt>
      <trkpt lat="44.58903" lon="-0.25864">
        <ele>32.34</ele>
        <time>2019-05-25T12:28:43Z</time>
      </trkpt>
      <trkpt lat="44.58902" lon="-0.2587">
        <ele>33.3</ele>
        <time>2019-05-25T12:28:47Z</time>
      </trkpt>
      <trkpt lat="44.58899" lon="-0.2589">
        <ele>33.78</ele>
        <time>2019-05-25T12:28:59Z</time>
      </trkpt>
      <trkpt lat="44.58901" lon="-0.25906">
        <ele>34.74</ele>
        <time>2019-05-25T12:29:11Z</time>
      </trkpt>
      <trkpt lat="44.58901" lon="-0.25919">
        <ele>35.23</ele>
        <time>2019-05-25T12:29:25Z</time>
      </trkpt>
      <trkpt lat="44.589" lon="-0.25922">
        <ele>35.23</ele>
        <time>2019-05-25T12:29:27Z</time>
      </trkpt>
      <trkpt lat="44.58898" lon="-0.25929">
        <ele>33.78</ele>
        <time>2019-05-25T12:29:31Z</time>
      </trkpt>
      <trkpt lat="44.58893" lon="-0.2595">
        <ele>33.3</ele>
        <time>2019-05-25T12:29:43Z</time>
      </trkpt>
      <trkpt lat="44.58892" lon="-0.25953">
        <ele>32.82</ele>
        <time>2019-05-25T12:29:46Z</time>
      </trkpt>
      <trkpt lat="44.58886" lon="-0.25962">
        <ele>31.38</ele>
        <time>2019-05-25T12:29:54Z</time>
      </trkpt>
      <trkpt lat="44.58883" lon="-0.25966">
        <ele>31.38</ele>
        <time>2019-05-25T12:29:57Z</time>
      </trkpt>
      <trkpt lat="44.58878" lon="-0.25973">
        <ele>30.9</ele>
        <time>2019-05-25T12:30:02Z</time>
      </trkpt>
      <trkpt lat="44.58873" lon="-0.25981">
        <ele>31.38</ele>
        <time>2019-05-25T12:30:07Z</time>
      </trkpt>
      <trkpt lat="44.58869" lon="-0.25988">
        <ele>30.9</ele>
        <time>2019-05-25T12:30:11Z</time>
      </trkpt>
      <trkpt lat="44.58862" lon="-0.26008">
        <ele>30.9</ele>
        <time>2019-05-25T12:30:24Z</time>
      </trkpt>
      <trkpt lat="44.58857" lon="-0.26027">
        <ele>30.9</ele>
        <time>2019-05-25T12:30:35Z</time>
      </trkpt>
      <trkpt lat="44.58853" lon="-0.26047">
        <ele>30.42</ele>
        <time>2019-05-25T12:30:46Z</time>
      </trkpt>
      <trkpt lat="44.5885" lon="-0.26063">
        <ele>29.94</ele>
        <time>2019-05-25T12:30:55Z</time>
      </trkpt>
      <trkpt lat="44.58845" lon="-0.26082">
        <ele>29.94</ele>
        <time>2019-05-25T12:31:06Z</time>
      </trkpt>
      <trkpt lat="44.58845" lon="-0.26084">
        <ele>29.94</ele>
        <time>2019-05-25T12:31:07Z</time>
      </trkpt>
      <trkpt lat="44.58842" lon="-0.26105">
        <ele>29.94</ele>
        <time>2019-05-25T12:31:19Z</time>
      </trkpt>
      <trkpt lat="44.58837" lon="-0.26121">
        <ele>29.94</ele>
        <time>2019-05-25T12:31:29Z</time>
      </trkpt>
      <trkpt lat="44.58832" lon="-0.26138">
        <ele>29.94</ele>
        <time>2019-05-25T12:31:40Z</time>
      </trkpt>
      <trkpt lat="44.58826" lon="-0.26151">
        <ele>31.38</ele>
        <time>2019-05-25T12:31:49Z</time>
      </trkpt>
      <trkpt lat="44.58819" lon="-0.26163">
        <ele>31.86</ele>
        <time>2019-05-25T12:32:02Z</time>
      </trkpt>
      <trkpt lat="44.58818" lon="-0.26165">
        <ele>31.86</ele>
        <time>2019-05-25T12:32:04Z</time>
      </trkpt>
      <trkpt lat="44.5881" lon="-0.2618">
        <ele>32.34</ele>
        <time>2019-05-25T12:32:17Z</time>
      </trkpt>
      <trkpt lat="44.58809" lon="-0.26182">
        <ele>32.34</ele>
        <time>2019-05-25T12:32:19Z</time>
      </trkpt>
      <trkpt lat="44.58803" lon="-0.26199">
        <ele>32.82</ele>
        <time>2019-05-25T12:32:32Z</time>
      </trkpt>
      <trkpt lat="44.58796" lon="-0.2621">
        <ele>32.34</ele>
        <time>2019-05-25T12:32:44Z</time>
      </trkpt>
      <trkpt lat="44.58785" lon="-0.26224">
        <ele>31.38</ele>
        <time>2019-05-25T12:32:56Z</time>
      </trkpt>
      <trkpt lat="44.58771" lon="-0.26236">
        <ele>30.42</ele>
        <time>2019-05-25T12:33:08Z</time>
      </trkpt>
      <trkpt lat="44.58758" lon="-0.26242">
        <ele>28.98</ele>
        <time>2019-05-25T12:33:21Z</time>
      </trkpt>
      <trkpt lat="44.58756" lon="-0.26244">
        <ele>28.98</ele>
        <time>2019-05-25T12:33:25Z</time>
      </trkpt>
      <trkpt lat="44.58748" lon="-0.26257">
        <ele>28.02</ele>
        <time>2019-05-25T12:33:38Z</time>
      </trkpt>
      <trkpt lat="44.58738" lon="-0.26268">
        <ele>26.57</ele>
        <time>2019-05-25T12:33:51Z</time>
      </trkpt>
      <trkpt lat="44.58724" lon="-0.26284">
        <ele>25.61</ele>
        <time>2019-05-25T12:34:06Z</time>
      </trkpt>
      <trkpt lat="44.58723" lon="-0.26286">
        <ele>25.61</ele>
        <time>2019-05-25T12:34:07Z</time>
      </trkpt>
      <trkpt lat="44.58719" lon="-0.26291">
        <ele>25.13</ele>
        <time>2019-05-25T12:34:11Z</time>
      </trkpt>
      <trkpt lat="44.58715" lon="-0.26296">
        <ele>24.65</ele>
        <time>2019-05-25T12:34:15Z</time>
      </trkpt>
      <trkpt lat="44.58702" lon="-0.26311">
        <ele>23.69</ele>
        <time>2019-05-25T12:34:29Z</time>
      </trkpt>
      <trkpt lat="44.58693" lon="-0.26325">
        <ele>23.21</ele>
        <time>2019-05-25T12:34:41Z</time>
      </trkpt>
      <trkpt lat="44.58691" lon="-0.26337">
        <ele>22.73</ele>
        <time>2019-05-25T12:34:48Z</time>
      </trkpt>
      <trkpt lat="44.58689" lon="-0.26362">
        <ele>22.25</ele>
        <time>2019-05-25T12:35:02Z</time>
      </trkpt>
      <trkpt lat="44.58688" lon="-0.26373">
        <ele>22.25</ele>
        <time>2019-05-25T12:35:08Z</time>
      </trkpt>
      <trkpt lat="44.58682" lon="-0.26398">
        <ele>21.29</ele>
        <time>2019-05-25T12:35:20Z</time>
      </trkpt>
      <trkpt lat="44.58679" lon="-0.26409">
        <ele>21.29</ele>
        <time>2019-05-25T12:35:26Z</time>
      </trkpt>
      <trkpt lat="44.58672" lon="-0.26431">
        <ele>21.29</ele>
        <time>2019-05-25T12:35:38Z</time>
      </trkpt>
      <trkpt lat="44.58671" lon="-0.26434">
        <ele>21.29</ele>
        <time>2019-05-25T12:35:40Z</time>
      </trkpt>
      <trkpt lat="44.58666" lon="-0.26449">
        <ele>20.81</ele>
        <time>2019-05-25T12:35:49Z</time>
      </trkpt>
      <trkpt lat="44.5866" lon="-0.26464">
        <ele>20.81</ele>
        <time>2019-05-25T12:35:58Z</time>
      </trkpt>
      <trkpt lat="44.58652" lon="-0.26483">
        <ele>20.32</ele>
        <time>2019-05-25T12:36:10Z</time>
      </trkpt>
      <trkpt lat="44.5865" lon="-0.26488">
        <ele>20.32</ele>
        <time>2019-05-25T12:36:13Z</time>
      </trkpt>
      <trkpt lat="44.58646" lon="-0.26506">
        <ele>20.32</ele>
        <time>2019-05-25T12:36:24Z</time>
      </trkpt>
      <trkpt lat="44.58645" lon="-0.26512">
        <ele>20.32</ele>
        <time>2019-05-25T12:36:28Z</time>
      </trkpt>
      <trkpt lat="44.58641" lon="-0.26533">
        <ele>20.32</ele>
        <time>2019-05-25T12:36:40Z</time>
      </trkpt>
      <trkpt lat="44.58635" lon="-0.2655">
        <ele>20.32</ele>
        <time>2019-05-25T12:36:50Z</time>
      </trkpt>
      <trkpt lat="44.58631" lon="-0.26568">
        <ele>19.84</ele>
        <time>2019-05-25T12:37:01Z</time>
      </trkpt>
      <trkpt lat="44.58627" lon="-0.26585">
        <ele>19.36</ele>
        <time>2019-05-25T12:37:12Z</time>
      </trkpt>
      <trkpt lat="44.58625" lon="-0.26596">
        <ele>18.88</ele>
        <time>2019-05-25T12:37:21Z</time>
      </trkpt>
      <trkpt lat="44.58625" lon="-0.26605">
        <ele>18.88</ele>
        <time>2019-05-25T12:37:29Z</time>
      </trkpt>
      <trkpt lat="44.58626" lon="-0.2661">
        <ele>18.4</ele>
        <time>2019-05-25T12:37:36Z</time>
      </trkpt>
      <trkpt lat="44.58627" lon="-0.26612">
        <ele>18.4</ele>
        <time>2019-05-25T12:37:38Z</time>
      </trkpt>
      <trkpt lat="44.58638" lon="-0.26621">
        <ele>18.4</ele>
        <time>2019-05-25T12:37:52Z</time>
      </trkpt>
      <trkpt lat="44.5864" lon="-0.26624">
        <ele>19.84</ele>
        <time>2019-05-25T12:37:55Z</time>
      </trkpt>
      <trkpt lat="44.58642" lon="-0.26625">
        <ele>19.84</ele>
        <time>2019-05-25T12:37:57Z</time>
      </trkpt>
      <trkpt lat="44.58648" lon="-0.26631">
        <ele>20.32</ele>
        <time>2019-05-25T12:38:03Z</time>
      </trkpt>
      <trkpt lat="44.58658" lon="-0.26641">
        <ele>20.81</ele>
        <time>2019-05-25T12:38:14Z</time>
      </trkpt>
      <trkpt lat="44.58668" lon="-0.26649">
        <ele>21.29</ele>
        <time>2019-05-25T12:38:24Z</time>
      </trkpt>
      <trkpt lat="44.58681" lon="-0.26663">
        <ele>22.73</ele>
        <time>2019-05-25T12:38:38Z</time>
      </trkpt>
      <trkpt lat="44.58694" lon="-0.26675">
        <ele>24.17</ele>
        <time>2019-05-25T12:38:50Z</time>
      </trkpt>
      <trkpt lat="44.58703" lon="-0.26683">
        <ele>25.61</ele>
        <time>2019-05-25T12:39:01Z</time>
      </trkpt>
      <trkpt lat="44.58711" lon="-0.2669">
        <ele>27.05</ele>
        <time>2019-05-25T12:39:10Z</time>
      </trkpt>
      <trkpt lat="44.5872" lon="-0.26699">
        <ele>28.5</ele>
        <time>2019-05-25T12:39:21Z</time>
      </trkpt>
      <trkpt lat="44.58727" lon="-0.26708">
        <ele>29.46</ele>
        <time>2019-05-25T12:39:32Z</time>
      </trkpt>
      <trkpt lat="44.58728" lon="-0.2671">
        <ele>29.46</ele>
        <time>2019-05-25T12:39:34Z</time>
      </trkpt>
      <trkpt lat="44.58734" lon="-0.26722">
        <ele>29.94</ele>
        <time>2019-05-25T12:39:46Z</time>
      </trkpt>
      <trkpt lat="44.58741" lon="-0.26736">
        <ele>31.86</ele>
        <time>2019-05-25T12:39:57Z</time>
      </trkpt>
      <trkpt lat="44.58746" lon="-0.26747">
        <ele>32.34</ele>
        <time>2019-05-25T12:40:07Z</time>
      </trkpt>
      <trkpt lat="44.58752" lon="-0.26755">
        <ele>32.82</ele>
        <time>2019-05-25T12:40:14Z</time>
      </trkpt>
      <trkpt lat="44.58763" lon="-0.26762">
        <ele>34.26</ele>
        <time>2019-05-25T12:40:24Z</time>
      </trkpt>
      <trkpt lat="44.58779" lon="-0.26764">
        <ele>36.67</ele>
        <time>2019-05-25T12:40:37Z</time>
      </trkpt>
      <trkpt lat="44.58789" lon="-0.26765">
        <ele>39.07</ele>
        <time>2019-05-25T12:40:46Z</time>
      </trkpt>
      <trkpt lat="44.58795" lon="-0.26762">
        <ele>40.03</ele>
        <time>2019-05-25T12:40:51Z</time>
      </trkpt>
      <trkpt lat="44.588" lon="-0.2677">
        <ele>42.44</ele>
        <time>2019-05-25T12:40:57Z</time>
      </trkpt>
      <trkpt lat="44.58806" lon="-0.26771">
        <ele>42.44</ele>
        <time>2019-05-25T12:41:02Z</time>
      </trkpt>
      <trkpt lat="44.58819" lon="-0.26769">
        <ele>44.36</ele>
        <time>2019-05-25T12:41:13Z</time>
      </trkpt>
      <trkpt lat="44.58833" lon="-0.26769">
        <ele>45.8</ele>
        <time>2019-05-25T12:41:25Z</time>
      </trkpt>
      <trkpt lat="44.58845" lon="-0.26767">
        <ele>47.72</ele>
        <time>2019-05-25T12:41:35Z</time>
      </trkpt>
      <trkpt lat="44.58859" lon="-0.26766">
        <ele>50.61</ele>
        <time>2019-05-25T12:41:47Z</time>
      </trkpt>
      <trkpt lat="44.58868" lon="-0.26767">
        <ele>52.53</ele>
        <time>2019-05-25T12:41:57Z</time>
      </trkpt>
      <trkpt lat="44.58869" lon="-0.26767">
        <ele>52.53</ele>
        <time>2019-05-25T12:41:58Z</time>
      </trkpt>
      <trkpt lat="44.58875" lon="-0.26771">
        <ele>53.49</ele>
        <time>2019-05-25T12:42:04Z</time>
      </trkpt>
      <trkpt lat="44.58886" lon="-0.2677">
        <ele>55.41</ele>
        <time>2019-05-25T12:42:15Z</time>
      </trkpt>
      <trkpt lat="44.58889" lon="-0.2677">
        <ele>55.89</ele>
        <time>2019-05-25T12:42:18Z</time>
      </trkpt>
      <trkpt lat="44.58893" lon="-0.2677">
        <ele>56.86</ele>
        <time>2019-05-25T12:42:22Z</time>
      </trkpt>
      <trkpt lat="44.589" lon="-0.26769">
        <ele>58.78</ele>
        <time>2019-05-25T12:42:29Z</time>
      </trkpt>
      <trkpt lat="44.58905" lon="-0.26771">
        <ele>60.22</ele>
        <time>2019-05-25T12:42:36Z</time>
      </trkpt>
      <trkpt lat="44.58913" lon="-0.26771">
        <ele>62.14</ele>
        <time>2019-05-25T12:42:48Z</time>
      </trkpt>
      <trkpt lat="44.58917" lon="-0.26776">
        <ele>63.1</ele>
        <time>2019-05-25T12:43:06Z</time>
      </trkpt>
      <trkpt lat="44.58921" lon="-0.26786">
        <ele>64.07</ele>
        <time>2019-05-25T12:43:21Z</time>
      </trkpt>
      <trkpt lat="44.58923" lon="-0.26795">
        <ele>65.03</ele>
        <time>2019-05-25T12:43:30Z</time>
      </trkpt>
      <trkpt lat="44.58927" lon="-0.26814">
        <ele>65.99</ele>
        <time>2019-05-25T12:43:44Z</time>
      </trkpt>
      <trkpt lat="44.58929" lon="-0.2683">
        <ele>67.43</ele>
        <time>2019-05-25T12:43:56Z</time>
      </trkpt>
      <trkpt lat="44.58928" lon="-0.26851">
        <ele>68.87</ele>
        <time>2019-05-25T12:44:10Z</time>
      </trkpt>
      <trkpt lat="44.5893" lon="-0.26867">
        <ele>69.83</ele>
        <time>2019-05-25T12:44:19Z</time>
      </trkpt>
      <trkpt lat="44.5893" lon="-0.26878">
        <ele>70.31</ele>
        <time>2019-05-25T12:44:27Z</time>
      </trkpt>
      <trkpt lat="44.58933" lon="-0.26896">
        <ele>71.27</ele>
        <time>2019-05-25T12:44:40Z</time>
      </trkpt>
      <trkpt lat="44.58934" lon="-0.26918">
        <ele>73.2</ele>
        <time>2019-05-25T12:44:54Z</time>
      </trkpt>
      <trkpt lat="44.58935" lon="-0.26922">
        <ele>74.64</ele>
        <time>2019-05-25T12:45:03Z</time>
      </trkpt>
      <trkpt lat="44.58938" lon="-0.26908">
        <ele>77.52</ele>
        <time>2019-05-25T12:45:17Z</time>
      </trkpt>
      <trkpt lat="44.58938" lon="-0.26906">
        <ele>77.52</ele>
        <time>2019-05-25T12:45:19Z</time>
      </trkpt>
      <trkpt lat="44.58943" lon="-0.26893">
        <ele>80.41</ele>
        <time>2019-05-25T12:45:31Z</time>
      </trkpt>
      <trkpt lat="44.58949" lon="-0.26889">
        <ele>82.81</ele>
        <time>2019-05-25T12:45:39Z</time>
      </trkpt>
      <trkpt lat="44.5896" lon="-0.26893">
        <ele>84.25</ele>
        <time>2019-05-25T12:45:51Z</time>
      </trkpt>
      <trkpt lat="44.58963" lon="-0.26894">
        <ele>84.25</ele>
        <time>2019-05-25T12:45:54Z</time>
      </trkpt>
      <trkpt lat="44.5898" lon="-0.26895">
        <ele>85.69</ele>
        <time>2019-05-25T12:46:08Z</time>
      </trkpt>
      <trkpt lat="44.58988" lon="-0.26907">
        <ele>87.14</ele>
        <time>2019-05-25T12:46:20Z</time>
      </trkpt>
      <trkpt lat="44.58995" lon="-0.2691">
        <ele>87.14</ele>
        <time>2019-05-25T12:46:31Z</time>
      </trkpt>
      <trkpt lat="44.58995" lon="-0.26913">
        <ele>87.14</ele>
        <time>2019-05-25T12:46:45Z</time>
      </trkpt>
      <trkpt lat="44.58993" lon="-0.26918">
        <ele>87.62</ele>
        <time>2019-05-25T12:47:04Z</time>
      </trkpt>
      <trkpt lat="44.5899" lon="-0.26922">
        <ele>87.62</ele>
        <time>2019-05-25T12:47:27Z</time>
      </trkpt>
      <trkpt lat="44.5899" lon="-0.26925">
        <ele>87.62</ele>
        <time>2019-05-25T12:47:50Z</time>
      </trkpt>
      <trkpt lat="44.58989" lon="-0.26925">
        <ele>87.62</ele>
        <time>2019-05-25T12:48:14Z</time>
      </trkpt>
      <trkpt lat="44.58992" lon="-0.26919">
        <ele>87.62</ele>
        <time>2019-05-25T12:48:41Z</time>
      </trkpt>
      <trkpt lat="44.58995" lon="-0.26918">
        <ele>88.1</ele>
        <time>2019-05-25T12:48:44Z</time>
      </trkpt>
      <trkpt lat="44.59011" lon="-0.26919">
        <ele>89.06</ele>
        <time>2019-05-25T12:48:56Z</time>
      </trkpt>
      <trkpt lat="44.59027" lon="-0.26921">
        <ele>90.5</ele>
        <time>2019-05-25T12:49:08Z</time>
      </trkpt>
      <trkpt lat="44.59045" lon="-0.26929">
        <ele>90.98</ele>
        <time>2019-05-25T12:49:22Z</time>
      </trkpt>
      <trkpt lat="44.59057" lon="-0.26936">
        <ele>91.94</ele>
        <time>2019-05-25T12:49:33Z</time>
      </trkpt>
      <trkpt lat="44.59073" lon="-0.26944">
        <ele>93.39</ele>
        <time>2019-05-25T12:49:46Z</time>
      </trkpt>
      <trkpt lat="44.59087" lon="-0.2695">
        <ele>93.87</ele>
        <time>2019-05-25T12:49:57Z</time>
      </trkpt>
      <trkpt lat="44.591" lon="-0.26955">
        <ele>94.83</ele>
        <time>2019-05-25T12:50:08Z</time>
      </trkpt>
      <trkpt lat="44.59109" lon="-0.26959">
        <ele>94.83</ele>
        <time>2019-05-25T12:50:15Z</time>
      </trkpt>
      <trkpt lat="44.59127" lon="-0.26966">
        <ele>95.79</ele>
        <time>2019-05-25T12:50:29Z</time>
      </trkpt>
      <trkpt lat="44.59133" lon="-0.26968">
        <ele>95.79</ele>
        <time>2019-05-25T12:50:33Z</time>
      </trkpt>
      <trkpt lat="44.59135" lon="-0.26969">
        <ele>95.79</ele>
        <time>2019-05-25T12:50:35Z</time>
      </trkpt>
      <trkpt lat="44.59153" lon="-0.26977">
        <ele>96.27</ele>
        <time>2019-05-25T12:50:48Z</time>
      </trkpt>
      <trkpt lat="44.59169" lon="-0.26986">
        <ele>96.27</ele>
        <time>2019-05-25T12:51:01Z</time>
      </trkpt>
      <trkpt lat="44.59184" lon="-0.26996">
        <ele>97.23</ele>
        <time>2019-05-25T12:51:13Z</time>
      </trkpt>
      <trkpt lat="44.59198" lon="-0.27011">
        <ele>97.23</ele>
        <time>2019-05-25T12:51:26Z</time>
      </trkpt>
      <trkpt lat="44.59212" lon="-0.27023">
        <ele>97.71</ele>
        <time>2019-05-25T12:51:39Z</time>
      </trkpt>
      <trkpt lat="44.59226" lon="-0.27032">
        <ele>98.19</ele>
        <time>2019-05-25T12:51:50Z</time>
      </trkpt>
      <trkpt lat="44.59238" lon="-0.27042">
        <ele>98.67</ele>
        <time>2019-05-25T12:52:01Z</time>
      </trkpt>
      <trkpt lat="44.59239" lon="-0.27043">
        <ele>98.67</ele>
        <time>2019-05-25T12:52:02Z</time>
      </trkpt>
      <trkpt lat="44.59241" lon="-0.27046">
        <ele>98.67</ele>
        <time>2019-05-25T12:52:04Z</time>
      </trkpt>
      <trkpt lat="44.59243" lon="-0.27048">
        <ele>100.11</ele>
        <time>2019-05-25T12:52:05Z</time>
      </trkpt>
      <trkpt lat="44.59244" lon="-0.27049">
        <ele>100.11</ele>
        <time>2019-05-25T12:52:06Z</time>
      </trkpt>
      <trkpt lat="44.59254" lon="-0.27067">
        <ele>100.11</ele>
        <time>2019-05-25T12:52:20Z</time>
      </trkpt>
      <trkpt lat="44.59262" lon="-0.27087">
        <ele>101.08</ele>
        <time>2019-05-25T12:52:32Z</time>
      </trkpt>
      <trkpt lat="44.59263" lon="-0.271">
        <ele>101.08</ele>
        <time>2019-05-25T12:52:39Z</time>
      </trkpt>
      <trkpt lat="44.59264" lon="-0.27102">
        <ele>101.08</ele>
        <time>2019-05-25T12:52:40Z</time>
      </trkpt>
      <trkpt lat="44.59264" lon="-0.27104">
        <ele>101.08</ele>
        <time>2019-05-25T12:52:41Z</time>
      </trkpt>
      <trkpt lat="44.59269" lon="-0.27127">
        <ele>101.08</ele>
        <time>2019-05-25T12:52:54Z</time>
      </trkpt>
      <trkpt lat="44.59274" lon="-0.27145">
        <ele>99.63</ele>
        <time>2019-05-25T12:53:05Z</time>
      </trkpt>
      <trkpt lat="44.5928" lon="-0.27166">
        <ele>99.15</ele>
        <time>2019-05-25T12:53:17Z</time>
      </trkpt>
      <trkpt lat="44.59286" lon="-0.27184">
        <ele>99.15</ele>
        <time>2019-05-25T12:53:28Z</time>
      </trkpt>
      <trkpt lat="44.59291" lon="-0.272">
        <ele>99.15</ele>
        <time>2019-05-25T12:53:38Z</time>
      </trkpt>
      <trkpt lat="44.59292" lon="-0.27201">
        <ele>99.15</ele>
        <time>2019-05-25T12:53:39Z</time>
      </trkpt>
      <trkpt lat="44.59294" lon="-0.27203">
        <ele>100.6</ele>
        <time>2019-05-25T12:53:40Z</time>
      </trkpt>
      <trkpt lat="44.59295" lon="-0.27204">
        <ele>100.6</ele>
        <time>2019-05-25T12:53:41Z</time>
      </trkpt>
      <trkpt lat="44.59298" lon="-0.27209">
        <ele>100.6</ele>
        <time>2019-05-25T12:53:45Z</time>
      </trkpt>
      <trkpt lat="44.59299" lon="-0.2721">
        <ele>99.15</ele>
        <time>2019-05-25T12:53:46Z</time>
      </trkpt>
      <trkpt lat="44.593" lon="-0.27212">
        <ele>99.15</ele>
        <time>2019-05-25T12:53:47Z</time>
      </trkpt>
      <trkpt lat="44.59302" lon="-0.27218">
        <ele>99.15</ele>
        <time>2019-05-25T12:53:51Z</time>
      </trkpt>
      <trkpt lat="44.59307" lon="-0.27231">
        <ele>101.08</ele>
        <time>2019-05-25T12:53:58Z</time>
      </trkpt>
      <trkpt lat="44.59309" lon="-0.27237">
        <ele>99.63</ele>
        <time>2019-05-25T12:54:02Z</time>
      </trkpt>
      <trkpt lat="44.59316" lon="-0.27259">
        <ele>100.6</ele>
        <time>2019-05-25T12:54:15Z</time>
      </trkpt>
      <trkpt lat="44.59323" lon="-0.27278">
        <ele>100.6</ele>
        <time>2019-05-25T12:54:26Z</time>
      </trkpt>
      <trkpt lat="44.59333" lon="-0.27299">
        <ele>101.08</ele>
        <time>2019-05-25T12:54:40Z</time>
      </trkpt>
      <trkpt lat="44.59341" lon="-0.27324">
        <ele>101.08</ele>
        <time>2019-05-25T12:54:53Z</time>
      </trkpt>
      <trkpt lat="44.59354" lon="-0.27335">
        <ele>102.04</ele>
        <time>2019-05-25T12:55:06Z</time>
      </trkpt>
      <trkpt lat="44.59356" lon="-0.27337">
        <ele>102.04</ele>
        <time>2019-05-25T12:55:08Z</time>
      </trkpt>
      <trkpt lat="44.59356" lon="-0.27339">
        <ele>102.04</ele>
        <time>2019-05-25T12:55:09Z</time>
      </trkpt>
      <trkpt lat="44.59359" lon="-0.27346">
        <ele>100.6</ele>
        <time>2019-05-25T12:55:14Z</time>
      </trkpt>
      <trkpt lat="44.59361" lon="-0.27354">
        <ele>100.6</ele>
        <time>2019-05-25T12:55:21Z</time>
      </trkpt>
      <trkpt lat="44.59361" lon="-0.27356">
        <ele>100.6</ele>
        <time>2019-05-25T12:55:22Z</time>
      </trkpt>
      <trkpt lat="44.59362" lon="-0.27366">
        <ele>100.6</ele>
        <time>2019-05-25T12:55:28Z</time>
      </trkpt>
      <trkpt lat="44.59362" lon="-0.27369">
        <ele>100.6</ele>
        <time>2019-05-25T12:55:29Z</time>
      </trkpt>
      <trkpt lat="44.59365" lon="-0.27392">
        <ele>100.11</ele>
        <time>2019-05-25T12:55:42Z</time>
      </trkpt>
      <trkpt lat="44.59366" lon="-0.27416">
        <ele>99.63</ele>
        <time>2019-05-25T12:55:55Z</time>
      </trkpt>
      <trkpt lat="44.59368" lon="-0.27432">
        <ele>99.15</ele>
        <time>2019-05-25T12:56:04Z</time>
      </trkpt>
      <trkpt lat="44.59369" lon="-0.27443">
        <ele>100.11</ele>
        <time>2019-05-25T12:56:12Z</time>
      </trkpt>
      <trkpt lat="44.5937" lon="-0.27449">
        <ele>100.11</ele>
        <time>2019-05-25T12:56:15Z</time>
      </trkpt>
      <trkpt lat="44.59371" lon="-0.27458">
        <ele>98.67</ele>
        <time>2019-05-25T12:56:20Z</time>
      </trkpt>
      <trkpt lat="44.59371" lon="-0.27461">
        <ele>98.67</ele>
        <time>2019-05-25T12:56:21Z</time>
      </trkpt>
      <trkpt lat="44.59373" lon="-0.27478">
        <ele>99.15</ele>
        <time>2019-05-25T12:56:33Z</time>
      </trkpt>
      <trkpt lat="44.59373" lon="-0.27482">
        <ele>97.71</ele>
        <time>2019-05-25T12:56:36Z</time>
      </trkpt>
      <trkpt lat="44.59373" lon="-0.27484">
        <ele>97.71</ele>
        <time>2019-05-25T12:56:37Z</time>
      </trkpt>
      <trkpt lat="44.59373" lon="-0.27486">
        <ele>97.71</ele>
        <time>2019-05-25T12:56:38Z</time>
      </trkpt>
      <trkpt lat="44.59375" lon="-0.27509">
        <ele>97.23</ele>
        <time>2019-05-25T12:56:50Z</time>
      </trkpt>
      <trkpt lat="44.59372" lon="-0.27535">
        <ele>96.27</ele>
        <time>2019-05-25T12:57:04Z</time>
      </trkpt>
      <trkpt lat="44.59371" lon="-0.27543">
        <ele>96.27</ele>
        <time>2019-05-25T12:57:08Z</time>
      </trkpt>
      <trkpt lat="44.59367" lon="-0.27563">
        <ele>96.27</ele>
        <time>2019-05-25T12:57:19Z</time>
      </trkpt>
      <trkpt lat="44.59364" lon="-0.27576">
        <ele>95.79</ele>
        <time>2019-05-25T12:57:27Z</time>
      </trkpt>
      <trkpt lat="44.5936" lon="-0.27597">
        <ele>95.31</ele>
        <time>2019-05-25T12:57:39Z</time>
      </trkpt>
      <trkpt lat="44.59356" lon="-0.2762">
        <ele>94.35</ele>
        <time>2019-05-25T12:57:52Z</time>
      </trkpt>
      <trkpt lat="44.59352" lon="-0.27641">
        <ele>93.39</ele>
        <time>2019-05-25T12:58:03Z</time>
      </trkpt>
      <trkpt lat="44.59351" lon="-0.27644">
        <ele>94.83</ele>
        <time>2019-05-25T12:58:04Z</time>
      </trkpt>
      <trkpt lat="44.59351" lon="-0.27646">
        <ele>94.83</ele>
        <time>2019-05-25T12:58:05Z</time>
      </trkpt>
      <trkpt lat="44.59348" lon="-0.27667">
        <ele>92.9</ele>
        <time>2019-05-25T12:58:18Z</time>
      </trkpt>
      <trkpt lat="44.59344" lon="-0.27694">
        <ele>92.42</ele>
        <time>2019-05-25T12:58:32Z</time>
      </trkpt>
      <trkpt lat="44.5934" lon="-0.27714">
        <ele>92.42</ele>
        <time>2019-05-25T12:58:42Z</time>
      </trkpt>
      <trkpt lat="44.59338" lon="-0.27739">
        <ele>91.46</ele>
        <time>2019-05-25T12:58:55Z</time>
      </trkpt>
      <trkpt lat="44.59337" lon="-0.27758">
        <ele>90.98</ele>
        <time>2019-05-25T12:59:06Z</time>
      </trkpt>
      <trkpt lat="44.59338" lon="-0.27778">
        <ele>90.5</ele>
        <time>2019-05-25T12:59:17Z</time>
      </trkpt>
      <trkpt lat="44.59337" lon="-0.2778">
        <ele>90.5</ele>
        <time>2019-05-25T12:59:18Z</time>
      </trkpt>
      <trkpt lat="44.59336" lon="-0.27784">
        <ele>90.02</ele>
        <time>2019-05-25T12:59:21Z</time>
      </trkpt>
      <trkpt lat="44.59336" lon="-0.27786">
        <ele>90.02</ele>
        <time>2019-05-25T12:59:22Z</time>
      </trkpt>
      <trkpt lat="44.59336" lon="-0.27788">
        <ele>90.02</ele>
        <time>2019-05-25T12:59:23Z</time>
      </trkpt>
      <trkpt lat="44.59335" lon="-0.2779">
        <ele>90.02</ele>
        <time>2019-05-25T12:59:24Z</time>
      </trkpt>
      <trkpt lat="44.59334" lon="-0.27792">
        <ele>90.02</ele>
        <time>2019-05-25T12:59:25Z</time>
      </trkpt>
      <trkpt lat="44.59331" lon="-0.27814">
        <ele>90.98</ele>
        <time>2019-05-25T12:59:37Z</time>
      </trkpt>
      <trkpt lat="44.59331" lon="-0.27819">
        <ele>89.06</ele>
        <time>2019-05-25T12:59:40Z</time>
      </trkpt>
      <trkpt lat="44.59326" lon="-0.27838">
        <ele>90.02</ele>
        <time>2019-05-25T12:59:49Z</time>
      </trkpt>
      <trkpt lat="44.59324" lon="-0.27845">
        <ele>88.58</ele>
        <time>2019-05-25T12:59:52Z</time>
      </trkpt>
      <trkpt lat="44.59319" lon="-0.27869">
        <ele>88.1</ele>
        <time>2019-05-25T13:00:05Z</time>
      </trkpt>
      <trkpt lat="44.59312" lon="-0.27887">
        <ele>87.62</ele>
        <time>2019-05-25T13:00:17Z</time>
      </trkpt>
      <trkpt lat="44.59305" lon="-0.27908">
        <ele>87.14</ele>
        <time>2019-05-25T13:00:30Z</time>
      </trkpt>
      <trkpt lat="44.59299" lon="-0.27928">
        <ele>87.14</ele>
        <time>2019-05-25T13:00:42Z</time>
      </trkpt>
      <trkpt lat="44.59295" lon="-0.27934">
        <ele>87.14</ele>
        <time>2019-05-25T13:00:47Z</time>
      </trkpt>
      <trkpt lat="44.59294" lon="-0.27936">
        <ele>87.14</ele>
        <time>2019-05-25T13:00:48Z</time>
      </trkpt>
      <trkpt lat="44.59285" lon="-0.27959">
        <ele>85.69</ele>
        <time>2019-05-25T13:01:02Z</time>
      </trkpt>
      <trkpt lat="44.59281" lon="-0.2797">
        <ele>85.69</ele>
        <time>2019-05-25T13:01:08Z</time>
      </trkpt>
      <trkpt lat="44.5928" lon="-0.27992">
        <ele>85.69</ele>
        <time>2019-05-25T13:01:21Z</time>
      </trkpt>
      <trkpt lat="44.5929" lon="-0.2801">
        <ele>85.21</ele>
        <time>2019-05-25T13:01:33Z</time>
      </trkpt>
      <trkpt lat="44.59297" lon="-0.28031">
        <ele>85.21</ele>
        <time>2019-05-25T13:01:46Z</time>
      </trkpt>
      <trkpt lat="44.59303" lon="-0.28055">
        <ele>85.21</ele>
        <time>2019-05-25T13:02:00Z</time>
      </trkpt>
      <trkpt lat="44.5931" lon="-0.28071">
        <ele>85.69</ele>
        <time>2019-05-25T13:02:11Z</time>
      </trkpt>
      <trkpt lat="44.59319" lon="-0.28094">
        <ele>85.69</ele>
        <time>2019-05-25T13:02:26Z</time>
      </trkpt>
      <trkpt lat="44.59324" lon="-0.28107">
        <ele>85.69</ele>
        <time>2019-05-25T13:02:33Z</time>
      </trkpt>
      <trkpt lat="44.59326" lon="-0.28111">
        <ele>84.25</ele>
        <time>2019-05-25T13:02:36Z</time>
      </trkpt>
      <trkpt lat="44.59328" lon="-0.28114">
        <ele>85.69</ele>
        <time>2019-05-25T13:02:38Z</time>
      </trkpt>
      <trkpt lat="44.59331" lon="-0.2812">
        <ele>84.25</ele>
        <time>2019-05-25T13:02:42Z</time>
      </trkpt>
      <trkpt lat="44.59338" lon="-0.28132">
        <ele>85.69</ele>
        <time>2019-05-25T13:02:50Z</time>
      </trkpt>
      <trkpt lat="44.59344" lon="-0.28147">
        <ele>84.25</ele>
        <time>2019-05-25T13:02:59Z</time>
      </trkpt>
      <trkpt lat="44.59346" lon="-0.28151">
        <ele>85.69</ele>
        <time>2019-05-25T13:03:01Z</time>
      </trkpt>
      <trkpt lat="44.59359" lon="-0.28173">
        <ele>85.69</ele>
        <time>2019-05-25T13:03:16Z</time>
      </trkpt>
      <trkpt lat="44.59365" lon="-0.28184">
        <ele>86.66</ele>
        <time>2019-05-25T13:03:24Z</time>
      </trkpt>
      <trkpt lat="44.59365" lon="-0.28186">
        <ele>85.21</ele>
        <time>2019-05-25T13:03:25Z</time>
      </trkpt>
      <trkpt lat="44.59366" lon="-0.28188">
        <ele>85.21</ele>
        <time>2019-05-25T13:03:26Z</time>
      </trkpt>
      <trkpt lat="44.59366" lon="-0.2819">
        <ele>85.21</ele>
        <time>2019-05-25T13:03:27Z</time>
      </trkpt>
      <trkpt lat="44.59367" lon="-0.28192">
        <ele>85.21</ele>
        <time>2019-05-25T13:03:28Z</time>
      </trkpt>
      <trkpt lat="44.59367" lon="-0.28196">
        <ele>85.21</ele>
        <time>2019-05-25T13:03:31Z</time>
      </trkpt>
      <trkpt lat="44.59367" lon="-0.28198">
        <ele>85.21</ele>
        <time>2019-05-25T13:03:32Z</time>
      </trkpt>
      <trkpt lat="44.59367" lon="-0.282">
        <ele>85.21</ele>
        <time>2019-05-25T13:03:33Z</time>
      </trkpt>
      <trkpt lat="44.59368" lon="-0.28203">
        <ele>85.21</ele>
        <time>2019-05-25T13:03:34Z</time>
      </trkpt>
      <trkpt lat="44.59368" lon="-0.28204">
        <ele>85.21</ele>
        <time>2019-05-25T13:03:35Z</time>
      </trkpt>
      <trkpt lat="44.59369" lon="-0.28214">
        <ele>85.69</ele>
        <time>2019-05-25T13:03:41Z</time>
      </trkpt>
      <trkpt lat="44.59369" lon="-0.28235">
        <ele>86.18</ele>
        <time>2019-05-25T13:03:53Z</time>
      </trkpt>
      <trkpt lat="44.5937" lon="-0.28239">
        <ele>84.73</ele>
        <time>2019-05-25T13:03:56Z</time>
      </trkpt>
      <trkpt lat="44.59371" lon="-0.28253">
        <ele>84.73</ele>
        <time>2019-05-25T13:04:09Z</time>
      </trkpt>
      <trkpt lat="44.59372" lon="-0.28253">
        <ele>84.73</ele>
        <time>2019-05-25T13:04:13Z</time>
      </trkpt>
    </trkseg>
  </trk>
</gpx>